[[{"header":{"parameterUnit":"m.s-1","parameterCategory":1,"la1":30.6,"la2":29.2853,"lo1":-89.7004,"lo2":-87.6739,"dx":0.0162,"dy":0.0183,"nx":112,"ny":82,"refTime":"2023-01-16T18:00:00:Z","depth":0,"parameterNumber":2,"parameterNumberName":"U-component_of_WINDS"},"data":[0.0,0.0,0.0,0.0,0.0,0.0,0.0,0.0,0.0,0.0,0.0,0.0,0.0,0.0,0.0,0.0,0.0,0.0,0.0,0.0,0.0,0.0,0.0,0.0,0.0,0.0,0.0,0.0,0.0,0.0,0.0,0.0,0.0,0.0,0.0,0.0,0.0,0.0,0.0,0.0,0.0,0.0,0.0,0.0,0.0,0.0,0.0,0.0,0.0,0.0,0.0,0.0,0.0,0.0,0.0,0.0,0.0,0.0,0.0,0.0,0.0,0.0,0.0,0.0,0.0,0.0,0.0,0.0,0.0,0.0,0.0,0.0,0.0,0.0,0.0,0.0,0.0,0.0,0.0,0.0,0.0,0.0,0.0,0.0,0.0,0.0,0.0,0.0,0.0,0.0,0.0,2.5243,2.5391,2.5388,2.4895,2.4776,2.4322,2.3402,0.0,0.0,0.0,0.0,0.0,0.0,0.0,0.0,0.0,0.0,0.0,0.0,0.0,0.0,0.0,0.0,0.0,0.0,0.0,0.0,0.0,0.0,0.0,0.0,0.0,0.0,0.0,0.0,0.0,0.0,0.0,0.0,0.0,0.0,0.0,0.0,0.0,0.0,0.0,0.0,0.0,0.0,0.0,0.0,0.0,0.0,0.0,0.0,0.0,0.0,0.0,0.0,0.0,0.0,0.0,0.0,0.0,0.0,0.0,0.0,0.0,0.0,0.0,0.0,0.0,0.0,0.0,0.0,0.0,0.0,0.0,0.0,0.0,0.0,0.0,0.0,0.0,0.0,0.0,0.0,0.0,0.0,0.0,0.0,0.0,0.0,0.0,0.0,0.0,0.0,0.0,0.0,0.0,0.0,0.0,0.0,0.0,0.0,0.0,0.0,0.0,0.0,0.0,0.0,2.5973,2.5965,2.6177,2.5729,2.4277,2.5168,2.4897,2.2843,0.0,0.0,0.0,0.0,0.0,0.0,0.0,0.0,0.0,0.0,0.0,0.0,0.0,0.0,0.0,0.0,0.0,0.0,0.0,0.0,0.0,0.0,0.0,0.0,0.0,0.0,0.0,0.0,0.0,0.0,0.0,0.0,0.0,0.0,0.0,0.0,0.0,0.0,0.0,0.0,0.0,0.0,0.0,0.0,0.0,0.0,0.0,0.0,0.0,0.0,0.0,0.0,0.0,0.0,0.0,0.0,0.0,0.0,0.0,0.0,0.0,0.0,0.0,0.0,0.0,0.0,0.0,0.0,0.0,0.0,0.0,0.0,0.0,0.0,0.0,0.0,0.0,0.0,0.0,0.0,0.0,0.0,0.0,0.0,0.0,0.0,0.0,0.0,0.0,0.0,0.0,0.0,0.0,0.0,0.0,0.0,0.0,0.0,0.0,0.0,0.0,0.0,0.0,2.6288,2.6566,2.717,2.6983,2.6432,2.557,2.5626,2.5182,2.3764,2.3686,0.0,0.0,0.0,0.0,0.0,0.0,0.0,0.0,0.0,0.0,0.0,0.0,0.0,0.0,0.0,0.0,0.0,0.0,0.0,0.0,0.0,0.0,0.0,0.0,0.0,0.0,0.0,0.0,0.0,0.0,0.0,0.0,0.0,0.0,0.0,0.0,0.0,0.0,0.0,0.0,0.0,0.0,0.0,0.0,0.0,0.0,0.0,0.0,0.0,0.0,0.0,0.0,0.0,0.0,0.0,0.0,0.0,0.0,0.0,0.0,0.0,0.0,0.0,0.0,0.0,0.0,0.0,0.0,0.0,0.0,0.0,0.0,0.0,0.0,0.0,0.0,0.0,0.0,0.0,0.0,0.0,0.0,0.0,0.0,0.0,0.0,0.0,0.0,0.0,0.0,0.0,0.0,0.0,0.0,0.0,0.0,0.0,0.0,0.0,0.0,0.0,0.0,2.6819,2.7048,2.7836,2.7428,2.6906,2.6518,2.605,2.5467,2.456,2.4332,0.0,0.0,0.0,0.0,0.0,0.0,0.0,0.0,0.0,0.0,0.0,0.0,0.0,0.0,0.0,0.0,0.0,0.0,0.0,0.0,0.0,0.0,0.0,0.0,0.0,0.0,0.0,0.0,0.0,0.0,0.0,0.0,0.0,0.0,0.0,0.0,0.0,0.0,0.0,0.0,0.0,0.0,0.0,0.0,0.0,0.0,0.0,0.0,0.0,0.0,0.0,0.0,0.0,0.0,0.0,0.0,0.0,0.0,0.0,0.0,0.0,0.0,0.0,0.0,0.0,0.0,0.0,0.0,0.0,0.0,0.0,0.0,0.0,0.0,0.0,0.0,0.0,0.0,0.0,0.0,0.0,0.0,0.0,0.0,0.0,0.0,0.0,0.0,0.0,0.0,0.0,0.0,0.0,0.0,0.0,0.0,0.0,0.0,0.0,0.0,0.0,0.0,2.6862,2.7076,2.7173,2.7156,2.6755,2.5864,2.6231,2.5865,2.4316,2.4468,0.0,0.0,0.0,0.0,0.0,0.0,0.0,0.0,0.0,0.0,0.0,0.0,0.0,0.0,0.0,0.0,0.0,0.0,0.0,0.0,0.0,0.0,0.0,0.0,0.0,0.0,0.0,0.0,0.0,0.0,0.0,0.0,0.0,0.0,0.0,0.0,0.0,0.0,0.0,0.0,0.0,0.0,0.0,0.0,0.0,0.0,0.0,0.0,0.0,0.0,0.0,0.0,0.0,0.0,0.0,0.0,0.0,0.0,0.0,0.0,0.0,0.0,0.0,0.0,0.0,0.0,0.0,0.0,0.0,0.0,0.0,0.0,0.0,0.0,0.0,0.0,0.0,0.0,0.0,0.0,0.0,0.0,0.0,0.0,0.0,0.0,0.0,0.0,0.0,0.0,0.0,0.0,0.0,0.0,0.0,0.0,0.0,0.0,0.0,0.0,0.0,0.0,2.7228,2.7425,0.0,2.772,2.7409,2.731,2.6905,2.6327,2.547,0.0,0.0,0.0,0.0,0.0,0.0,0.0,0.0,0.0,0.0,0.0,0.0,0.0,0.0,0.0,0.0,0.0,0.0,0.0,0.0,0.0,0.0,0.0,0.0,0.0,0.0,0.0,0.0,0.0,0.0,0.0,0.0,0.0,0.0,0.0,0.0,0.0,0.0,0.0,0.0,0.0,0.0,0.0,0.0,0.0,0.0,0.0,0.0,0.0,0.0,0.0,0.0,0.0,0.0,0.0,0.0,0.0,0.0,0.0,0.0,0.0,0.0,0.0,0.0,0.0,0.0,0.0,0.0,0.0,0.0,0.0,0.0,0.0,0.0,0.0,0.0,0.0,0.0,0.0,0.0,0.0,0.0,0.0,0.0,0.0,0.0,0.0,0.0,0.0,0.0,0.0,0.0,0.0,0.0,0.0,0.0,0.0,0.0,0.0,0.0,0.0,0.0,2.7359,2.7487,2.7774,0.0,2.8173,2.7992,2.8232,2.7573,2.6997,2.648,0.0,0.0,0.0,0.0,0.0,0.0,0.0,0.0,0.0,0.0,0.0,0.0,0.0,0.0,0.0,0.0,0.0,0.0,0.0,0.0,0.0,0.0,0.0,0.0,0.0,0.0,0.0,0.0,0.0,0.0,0.0,0.0,0.0,0.0,0.0,0.0,0.0,0.0,0.0,0.0,0.0,0.0,0.0,0.0,0.0,0.0,0.0,0.0,0.0,0.0,0.0,0.0,0.0,0.0,0.0,0.0,0.0,0.0,0.0,0.0,0.0,0.0,0.0,0.0,0.0,0.0,0.0,0.0,0.0,0.0,0.0,0.0,0.0,0.0,0.0,0.0,0.0,0.0,0.0,0.0,0.0,0.0,0.0,0.0,0.0,0.0,0.0,0.0,0.0,0.0,0.0,0.0,0.0,0.0,0.0,0.0,0.0,0.0,0.0,0.0,0.0,0.0,2.7019,2.7752,2.8154,2.8141,2.8141,2.8224,2.8224,2.8162,2.7844,0.0,0.0,0.0,0.0,0.0,0.0,0.0,0.0,0.0,0.0,0.0,0.0,0.0,0.0,0.0,0.0,0.0,0.0,0.0,0.0,0.0,0.0,0.0,0.0,0.0,0.0,0.0,0.0,0.0,0.0,0.0,0.0,0.0,0.0,0.0,0.0,0.0,0.0,0.0,0.0,0.0,0.0,0.0,0.0,0.0,0.0,0.0,0.0,0.0,0.0,0.0,0.0,0.0,0.0,0.0,0.0,0.0,0.0,0.0,0.0,0.0,0.0,0.0,0.0,0.0,0.0,0.0,0.0,0.0,0.0,0.0,0.0,0.0,0.0,0.0,0.0,0.0,0.0,0.0,0.0,0.0,0.0,0.0,0.0,0.0,0.0,0.0,0.0,0.0,0.0,0.0,0.0,0.0,0.0,0.0,0.0,0.0,0.0,0.0,0.0,0.0,0.0,0.0,2.7345,2.7839,2.8223,2.845,2.8263,2.8372,2.8837,2.8439,2.8008,2.7915,0.0,0.0,0.0,0.0,0.0,0.0,0.0,0.0,0.0,0.0,0.0,0.0,0.0,0.0,0.0,0.0,0.0,0.0,0.0,0.0,0.0,0.0,0.0,0.0,0.0,0.0,0.0,0.0,0.0,0.0,0.0,0.0,0.0,0.0,0.0,0.0,0.0,0.0,0.0,0.0,0.0,0.0,0.0,0.0,0.0,0.0,0.0,0.0,0.0,0.0,0.0,0.0,0.0,0.0,0.0,0.0,0.0,0.0,0.0,0.0,0.0,0.0,0.0,0.0,0.0,0.0,0.0,0.0,0.0,0.0,0.0,0.0,0.0,0.0,0.0,0.0,0.0,0.0,0.0,0.0,0.0,0.0,0.0,0.0,0.0,0.0,0.0,0.0,0.0,0.0,0.0,0.0,0.0,0.0,0.0,0.0,0.0,0.0,0.0,0.0,0.0,0.0,2.7848,2.8544,2.8969,2.9123,2.8973,2.9063,2.9714,2.9184,2.8847,2.881,0.0,0.0,0.0,0.0,0.0,0.0,0.0,0.0,0.0,0.0,0.0,0.0,0.0,0.0,0.0,0.0,0.0,0.0,0.0,0.0,0.0,0.0,0.0,0.0,0.0,0.0,0.0,0.0,0.0,0.0,0.0,0.0,0.0,0.0,0.0,0.0,0.0,0.0,0.0,0.0,0.0,0.0,0.0,0.0,0.0,0.0,0.0,0.0,0.0,0.0,0.0,0.0,0.0,0.0,0.0,0.0,0.0,0.0,0.0,0.0,0.0,0.0,0.0,0.0,0.0,0.0,0.0,0.0,0.0,0.0,0.0,0.0,0.0,0.0,0.0,0.0,0.0,0.0,0.0,0.0,0.0,0.0,0.0,0.0,0.0,0.0,0.0,0.0,0.0,0.0,0.0,0.0,0.0,0.0,0.0,0.0,0.0,0.0,0.0,0.0,0.0,0.0,2.8479,2.9533,3.0129,2.9924,3.0002,3.022,3.0536,3.022,2.9949,2.9778,0.0,0.0,0.0,0.0,0.0,0.0,0.0,0.0,0.0,0.0,0.0,0.0,0.0,0.0,0.0,0.0,0.0,0.0,0.0,0.0,0.0,0.0,0.0,0.0,0.0,0.0,0.0,0.0,0.0,0.0,0.0,0.0,0.0,0.0,0.0,0.0,0.0,0.0,0.0,0.0,0.0,0.0,0.0,0.0,0.0,0.0,0.0,0.0,0.0,0.0,0.0,0.0,0.0,0.0,0.0,0.0,0.0,0.0,0.0,0.0,2.2482,0.0,0.0,0.0,0.0,0.0,0.0,0.0,0.0,0.0,0.0,0.0,0.0,0.0,0.0,0.0,0.0,0.0,0.0,0.0,0.0,0.0,0.0,0.0,0.0,0.0,0.0,0.0,0.0,0.0,0.0,0.0,0.0,0.0,0.0,0.0,0.0,0.0,0.0,0.0,0.0,0.0,2.9198,2.9873,3.0286,2.9917,3.0209,3.042,3.0485,3.042,3.04,3.0371,2.9821,0.0,0.0,0.0,0.0,0.0,0.0,0.0,0.0,0.0,0.0,0.0,0.0,0.0,0.0,0.0,0.0,0.0,0.0,0.0,0.0,0.0,0.0,0.0,0.0,0.0,0.0,0.0,0.0,0.0,0.0,0.0,0.0,0.0,0.0,0.0,0.0,0.0,0.0,0.0,0.0,0.0,0.0,0.0,0.0,0.0,0.0,0.0,0.0,0.0,0.0,0.0,0.0,0.0,0.0,0.0,0.0,0.0,0.0,0.0,0.0,2.3505,0.0,0.0,0.0,0.0,0.0,0.0,0.0,0.0,0.0,0.0,0.0,0.0,0.0,0.0,0.0,0.0,0.0,0.0,0.0,0.0,0.0,0.0,0.0,0.0,0.0,0.0,0.0,0.0,0.0,0.0,0.0,0.0,0.0,0.0,0.0,0.0,0.0,0.0,0.0,0.0,3.0027,3.0425,3.0743,3.0632,3.0647,3.0825,3.1248,3.1178,3.0997,3.0816,3.0895,0.0,0.0,0.0,0.0,0.0,0.0,0.0,0.0,0.0,0.0,0.0,0.0,0.0,0.0,0.0,0.0,0.0,0.0,0.0,0.0,0.0,0.0,0.0,0.0,0.0,0.0,0.0,0.0,0.0,0.0,0.0,0.0,0.0,0.0,0.0,0.0,0.0,0.0,0.0,0.0,0.0,0.0,0.0,0.0,0.0,0.0,0.0,0.0,0.0,0.0,0.0,0.0,0.0,2.7347,2.7311,2.7585,2.7553,2.753,2.759,2.7791,2.6559,2.4379,2.4203,0.0,0.0,0.0,0.0,0.0,0.0,0.0,0.0,0.0,0.0,0.0,0.0,0.0,0.0,0.0,0.0,0.0,0.0,0.0,0.0,0.0,0.0,0.0,0.0,3.0163,3.0235,2.9403,0.0,0.0,0.0,0.0,0.0,0.0,0.0,0.0,0.0,0.0,0.0,3.0788,3.101,3.128,3.1452,3.1248,3.1331,3.2009,3.1751,3.1405,3.0914,3.1315,3.0931,0.0,0.0,0.0,0.0,0.0,0.0,0.0,0.0,0.0,0.0,0.0,0.0,0.0,0.0,0.0,0.0,0.0,0.0,0.0,0.0,0.0,0.0,0.0,0.0,0.0,0.0,0.0,0.0,0.0,0.0,0.0,0.0,2.2797,2.2303,0.0,0.0,0.0,0.0,0.0,0.0,0.0,0.0,0.0,0.0,0.0,0.0,0.0,2.7177,2.7439,2.7654,2.7916,2.8223,2.9338,3.0077,3.0389,3.1214,3.1709,3.1988,3.168,0.0,2.5666,2.4562,0.0,0.0,0.0,0.0,0.0,0.0,0.0,0.0,0.0,0.0,0.0,0.0,0.0,0.0,0.0,0.0,0.0,0.0,0.0,0.0,0.0,0.0,2.6875,3.0187,3.074,3.053,0.0,3.0242,2.9669,2.939,2.9572,0.0,0.0,0.0,0.0,0.0,0.0,0.0,3.0788,3.155,3.1865,3.1565,3.1828,3.1926,3.1662,3.1535,3.1173,3.0357,2.9007,2.8647,2.9482,2.7243,0.0,0.0,0.0,0.0,0.0,0.0,0.0,0.0,0.0,0.0,0.0,0.0,0.0,0.0,0.0,0.0,0.0,0.0,0.0,0.0,0.0,0.0,0.0,0.0,0.0,0.0,0.0,0.0,0.0,2.2305,2.3171,2.226,2.296,2.3139,0.0,0.0,0.0,0.0,0.0,0.0,0.0,0.0,0.0,2.6748,2.8403,2.9412,2.9567,3.0252,3.0562,3.0497,3.1099,3.1376,3.1289,3.165,3.1924,3.2061,3.1579,3.0513,2.8993,2.7982,2.715,2.6412,0.0,0.0,0.0,0.0,2.5479,2.5212,2.5212,2.5078,2.4891,2.4891,0.0,0.0,0.0,0.0,0.0,0.0,0.0,0.0,0.0,0.0,2.8943,3.1193,3.1568,3.1487,3.165,3.1447,3.0992,0.0,3.0277,3.0595,3.1052,0.0,0.0,0.0,0.0,3.1828,3.1752,3.1969,3.2092,3.202,3.1965,3.1965,3.205,3.2122,3.1598,3.0521,3.026,2.9395,2.7671,2.6904,2.6277,0.0,0.0,0.0,0.0,0.0,0.0,0.0,0.0,0.0,0.0,0.0,0.0,0.0,0.0,0.0,0.0,0.0,0.0,0.0,0.0,0.0,0.0,0.0,0.0,0.0,0.0,0.0,0.0,2.323,2.4029,2.2599,2.3948,2.446,0.0,0.0,0.0,0.0,0.0,0.0,2.5861,2.759,2.8618,2.8673,3.0299,3.1292,3.1371,3.2305,3.2701,3.2478,3.2478,3.2259,3.1903,3.1903,3.1941,3.1949,3.1616,3.1654,3.1887,3.063,2.9564,2.8765,2.8358,2.8267,2.8267,2.8213,2.7979,2.7758,2.7758,2.7552,2.7347,2.7347,2.7334,2.7334,2.7612,0.0,0.0,0.0,0.0,2.6779,2.8337,2.958,3.0818,3.2278,3.2517,3.2449,3.2373,3.2411,3.2152,0.0,3.1063,3.1292,3.1878,0.0,0.0,0.0,0.0,3.2662,3.2419,3.2393,3.2387,3.2553,3.2229,3.2089,3.2334,3.1841,3.1131,3.0411,2.9635,2.8248,2.608,2.5699,2.4759,2.3016,0.0,0.0,0.0,0.0,0.0,0.0,0.0,0.0,0.0,0.0,0.0,0.0,0.0,0.0,0.0,0.0,0.0,0.0,0.0,0.0,0.0,0.0,0.0,0.0,0.0,0.0,0.0,0.0,0.0,2.4855,2.6072,0.0,0.0,0.0,0.0,2.785,2.7314,2.7152,2.7605,2.8837,2.953,2.9655,3.1278,3.2314,3.2725,3.2788,3.299,3.3234,3.3234,3.3137,3.3005,3.3005,3.3107,3.3234,3.315,3.3297,3.3201,3.063,2.9804,2.9946,2.8611,2.8102,2.8058,2.7938,2.7999,2.8102,2.8102,2.8112,2.8202,2.8202,2.814,2.8029,2.8102,2.791,0.0,0.0,2.8417,2.8928,3.1135,3.1459,3.1684,3.3374,3.3445,3.3111,3.3,3.3077,3.2907,0.0,3.1986,3.2029,3.2503,0.0,3.2453,3.2539,3.288,3.2859,3.2134,3.2762,3.314,3.283,3.2783,3.2508,3.196,2.9788,2.8888,2.9672,2.4475,2.2683,2.5661,2.221,2.1292,2.3343,2.2561,0.0,0.0,0.0,0.0,0.0,0.0,0.0,0.0,0.0,0.0,0.0,0.0,0.0,0.0,0.0,0.0,0.0,0.0,0.0,0.0,0.0,0.0,0.0,0.0,0.0,0.0,0.0,0.0,2.6673,2.7924,0.0,2.7079,2.6579,2.6717,2.7688,2.852,2.9271,2.9977,3.145,3.2433,3.2799,3.3395,3.3725,3.3892,3.3557,3.3535,3.366,3.3538,3.3514,3.3592,3.3436,3.335,3.349,3.3116,3.3304,3.3839,3.2693,3.2186,3.2297,3.1761,3.1542,3.1557,3.1523,3.1471,3.1468,3.1453,3.1434,3.1446,3.1446,3.1603,3.1622,3.0511,3.0343,3.0266,2.9396,2.9854,3.0916,3.161,3.2525,3.3382,3.4049,3.3987,3.3886,3.3948,3.401,3.3923,3.3688,3.3145,3.2898,3.3391,3.3414,3.3491,3.3746,3.3916,3.3862,3.3545,3.3731,3.3599,3.2554,3.2453,3.2067,3.1109,2.9145,2.7943,2.7821,2.4748,2.2757,2.2309,2.1008,1.9999,1.9531,1.9268,1.9625,0.0,0.0,0.0,0.0,0.0,0.0,0.0,0.0,0.0,0.0,0.0,0.0,0.0,0.0,0.0,0.0,0.0,0.0,0.0,0.0,0.0,0.0,0.0,0.0,0.0,0.0,2.7973,2.7642,2.8822,2.9366,2.8746,2.8163,2.8293,2.9344,3.0221,3.104,3.1823,3.2785,3.3622,3.4345,3.4369,3.4494,3.4705,3.4446,3.4185,3.4099,3.3892,3.3876,3.3853,3.3589,3.3604,3.3656,3.3441,3.3751,3.4422,3.4278,3.4213,3.4175,3.3881,3.375,3.3766,3.3725,3.3666,3.366,3.3704,3.3713,3.3677,3.3801,3.4011,3.4034,3.2989,3.2834,3.2825,3.183,3.2317,3.3068,3.3187,3.3925,3.4776,3.4776,3.4776,3.4745,3.4807,3.4868,3.4906,3.4846,3.4174,3.3661,3.4003,3.4119,3.4321,3.4674,3.4863,3.4855,3.4391,3.4417,3.3857,3.2544,3.1698,3.0885,2.9825,2.8189,2.6795,2.5849,2.4241,2.2433,2.0577,1.9779,1.9222,1.863,1.863,1.9,1.97,0.0,0.0,0.0,0.0,0.0,0.0,0.0,0.0,0.0,0.0,0.0,0.0,0.0,0.0,0.0,0.0,0.0,0.0,0.0,0.0,0.0,0.0,0.0,2.5251,2.7792,2.9147,2.7775,2.8892,2.9982,3.0678,3.0012,3.0564,3.3135,3.2364,3.2215,3.3087,3.2699,3.2923,3.4189,3.4065,3.4382,3.5181,3.5181,3.491,3.4456,3.4366,3.4184,3.3715,3.3744,3.3855,3.3978,3.444,3.4702,3.4922,3.5447,3.5621,3.5589,3.4674,3.4361,3.4321,3.4314,3.4309,3.4416,3.4514,3.4573,3.4636,3.497,3.4973,3.4968,3.5311,3.5354,3.5331,3.5782,3.5638,3.5493,3.5952,3.5875,3.5621,3.5621,3.5621,3.5629,3.5431,3.5492,3.5629,3.5431,3.4859,3.4392,3.4376,3.4586,3.4874,3.5195,3.5602,0.0,3.4502,3.4412,3.4022,3.2807,3.058,2.8981,2.8373,2.6703,2.5171,2.381,2.2272,2.1115,2.0535,1.8652,1.8647,2.09,2.0891,2.0696,2.0407,0.0,0.0,0.0,0.0,0.0,0.0,0.0,0.0,0.0,0.0,0.0,0.0,0.0,0.0,0.0,0.0,0.0,0.0,0.0,0.0,0.0,0.0,2.8183,2.8183,2.9201,3.0216,3.1052,3.1512,3.1768,3.2031,3.1702,3.1999,3.3174,3.319,3.3574,3.4352,3.4276,3.4427,3.4817,3.4803,3.4894,3.5091,3.4577,3.4487,3.491,3.4184,3.4246,3.4935,3.457,3.4768,3.5344,3.5273,3.5608,3.6323,3.6255,3.6342,3.6622,3.5589,3.5257,3.5273,3.5193,3.5406,3.5652,3.5883,3.6018,3.6034,3.6145,3.6152,3.6158,3.6253,3.6258,3.6184,3.6037,3.6174,3.6195,3.6032,3.6052,3.6161,3.6161,3.6161,3.6204,3.6227,3.6295,3.6352,3.6269,3.6126,3.5921,3.5668,3.5706,3.587,3.6184,3.5692,0.0,3.4955,3.3009,3.2106,3.3361,3.0849,2.8924,2.8514,2.6095,2.3726,2.1637,1.9869,1.8911,1.8853,1.8431,1.8464,1.893,1.8658,1.9282,0.0,0.0,0.0,0.0,0.0,0.0,0.0,0.0,0.0,0.0,0.0,0.0,0.0,0.0,0.0,0.0,0.0,0.0,0.0,0.0,0.0,0.0,2.8256,2.9822,3.0495,3.0609,3.0981,3.2344,3.2472,3.2577,3.2946,3.2938,3.3072,3.3501,3.3629,3.3967,3.4566,3.4714,3.5037,3.5438,3.5574,3.5574,3.5438,3.5242,3.5059,3.5162,3.4792,3.4887,3.5349,3.501,3.5089,3.5364,3.5584,3.6091,3.6838,3.6978,3.7319,0.0,0.0,0.0,0.0,0.0,3.613,3.6368,3.6702,3.6717,3.6654,3.6956,3.694,3.6845,3.7003,3.694,3.6781,3.659,3.6463,3.6342,3.6216,3.6204,3.6283,3.6424,3.6346,3.6279,3.6342,3.6273,3.6177,3.6177,3.6177,0.0,3.577,3.5806,3.6009,3.6352,3.5578,3.4507,3.3408,3.1502,3.0303,3.0329,2.7862,2.608,2.5889,2.4383,0.0,0.0,0.0,1.915,1.8269,1.9185,0.0,0.0,0.0,1.9476,1.9873,0.0,0.0,0.0,1.9497,1.8776,0.0,0.0,0.0,0.0,0.0,0.0,0.0,0.0,0.0,0.0,0.0,0.0,0.0,0.0,0.0,0.0,2.9251,3.07,3.2193,3.19,3.1724,3.2309,3.2354,3.2661,3.3352,3.3648,3.3867,3.3963,3.3926,3.408,3.4358,0.0,0.0,0.0,0.0,3.6155,3.5921,3.6269,3.605,3.5105,3.5563,3.5534,3.5141,3.5185,3.5038,3.4853,3.5539,3.616,3.6802,3.7567,3.8197,3.856,3.7321,3.6829,3.6829,3.6829,3.6829,3.6876,3.7194,0.0,0.0,3.7575,3.7575,3.7353,3.7639,3.7512,3.7226,3.7146,3.6717,3.6336,3.659,3.6479,3.6352,3.6654,3.6495,3.6288,3.6111,3.5858,3.5636,3.5548,3.5461,3.5295,3.4804,3.4985,3.5318,3.5587,3.4592,3.288,3.0453,2.9592,2.832,2.6014,0.0,0.0,2.2335,2.2488,2.1366,1.8732,2.0521,2.0638,1.8343,2.014,2.0409,1.8547,2.0372,2.0458,1.8514,1.8582,1.8663,1.8655,1.8217,1.7916,0.0,0.0,0.0,0.0,0.0,0.0,0.0,0.0,0.0,0.0,0.0,0.0,0.0,0.0,0.0,2.8622,3.0671,3.2412,3.2983,3.2954,3.2808,3.2745,3.2911,3.3161,3.3397,3.3855,3.4212,3.4495,3.5053,3.5295,3.5368,3.5675,3.5845,3.575,3.5809,3.5677,3.5353,3.5197,3.4985,3.4783,3.4627,0.0,3.4959,3.4853,3.5089,3.5531,3.5476,3.5949,3.6786,3.7319,3.7978,3.8672,3.8386,3.829,3.829,3.829,3.829,3.829,3.837,3.8338,3.8306,3.8449,3.8449,3.8354,3.8163,3.8052,0.0,3.7289,3.7242,3.7321,3.7083,3.7194,3.7385,3.7448,3.7417,3.7186,3.6344,3.6098,3.5868,3.5039,3.4855,3.4314,3.2616,3.2533,3.2598,3.2287,2.9965,2.8103,2.7486,2.5269,2.4605,2.712,2.4693,2.3192,2.4048,2.3256,2.1639,1.9093,1.9162,1.9167,1.8623,1.8889,1.8917,1.8547,1.88,1.8725,1.8225,1.8265,1.8282,1.8282,1.8476,1.855,0.0,0.0,0.0,0.0,0.0,0.0,0.0,0.0,0.0,0.0,0.0,2.6354,0.0,0.0,2.9793,3.0261,3.1973,3.3305,3.3466,3.3627,3.3585,3.3102,3.3424,3.382,3.4002,3.4647,3.5002,3.5163,3.547,3.5742,3.5742,3.5939,3.5968,3.5757,3.5742,3.5412,3.4929,3.4902,3.472,3.4695,3.4985,3.5078,3.5069,3.5232,3.5222,3.5219,3.5252,3.5663,3.6409,3.7049,3.7802,3.856,3.8402,3.8403,3.8449,3.8449,3.8338,3.8211,3.8386,3.8338,3.8211,3.8386,3.8449,3.8417,3.8243,3.8195,3.8131,3.7766,3.7544,3.7401,3.7401,3.7034,3.6697,3.6884,3.6406,3.5729,3.5252,3.4163,3.3201,3.2738,3.1781,3.0595,2.9218,2.8241,2.7956,2.9004,2.745,2.574,2.4682,2.3158,2.2614,2.3405,2.2184,2.1397,2.1867,2.1479,2.0621,1.9355,1.9167,1.9077,1.8996,1.8818,1.872,1.872,1.8623,1.8582,1.8582,1.8671,1.872,1.872,1.8907,1.8793,0.0,0.0,0.0,0.0,0.0,0.0,0.0,0.0,2.6969,2.8344,2.8461,2.8564,2.9325,3.0422,3.1359,3.1812,3.3085,3.3993,3.3934,3.4256,3.4271,3.3685,3.408,3.4505,3.4768,3.531,3.5742,3.5742,3.5801,3.5734,3.5734,3.6041,3.61,3.5836,3.5763,3.5456,3.49,3.4936,3.4877,3.471,3.5428,3.5563,3.517,3.5439,3.5306,3.4724,3.5031,3.5543,3.6046,3.6361,3.6949,3.7547,3.6984,3.6856,3.6944,3.7977,3.7632,3.676,3.7523,3.7242,3.6776,3.7053,3.6988,3.6829,3.6753,3.6628,3.6424,3.6364,3.5894,3.5485,3.5866,3.5081,3.4285,3.4657,3.3859,3.2929,3.2743,3.1208,2.9711,2.9538,2.8116,2.6582,2.5766,2.4183,2.3648,2.572,2.4992,2.3655,2.1921,2.1725,2.1076,1.9495,1.9305,1.9305,1.9305,1.9435,1.9516,1.9516,1.9516,1.9451,1.9313,1.9167,1.9053,1.8988,1.898,1.8964,1.8931,1.9086,1.9151,1.9151,1.9151,1.8883,0.0,0.0,0.0,2.5988,2.7042,2.8125,0.0,0.0,2.871,2.9178,2.9471,2.9676,2.9793,3.1315,3.2485,3.2266,3.3788,3.49,3.4636,3.5105,3.5353,3.4988,3.5002,3.5061,3.5105,3.5427,3.5742,3.5742,3.5909,3.607,3.607,3.6378,3.6539,3.6495,3.6217,3.5895,3.564,3.5302,3.5023,3.471,3.4803,3.4818,3.4753,3.4847,3.4833,3.4724,3.5031,3.5543,3.5857,3.4415,3.4156,3.4571,3.3159,3.2375,3.2627,3.7062,3.628,3.345,3.5323,3.4732,3.316,3.3201,3.267,3.2019,3.1757,3.0984,3.0128,2.9879,2.9604,2.9475,2.9512,2.9405,2.9297,2.9322,2.9214,2.8904,2.7973,2.7567,2.7172,2.6234,2.5464,2.4508,2.3092,2.2214,2.1963,2.2577,2.1029,1.9687,1.9394,1.9394,1.9421,1.9451,1.9484,1.9484,1.9484,1.95,1.9516,1.9516,1.9516,1.95,1.9484,1.9467,1.9305,1.8988,1.898,1.8907,1.8753,1.8777,1.8785,1.8785,1.8785,1.8915,2.7115,0.0,0.0,0.0,2.9047,2.9647,3.0027,3.0203,3.0598,3.1681,3.2017,3.2222,3.2617,3.3349,3.3978,0.0,3.4914,3.5397,3.5266,3.5631,3.5866,3.5734,3.588,3.5924,3.5734,3.5836,3.5997,3.6187,3.6319,3.6407,3.6407,3.6524,3.6524,3.6334,3.6012,3.5883,3.5845,3.5235,3.5103,3.5445,3.5445,3.5345,3.5251,3.5536,3.5536,3.5266,3.5383,3.4953,3.4129,3.3186,3.2474,3.1907,3.104,3.013,2.953,3.2776,3.3147,3.1957,3.163,3.1343,3.0972,3.0382,3.0076,2.997,2.9749,2.9616,2.931,2.9201,2.8983,2.8801,2.8801,2.8212,2.7625,2.7625,2.7157,2.6687,2.6216,2.4958,2.3686,2.3316,2.2056,2.0889,2.0218,2.0218,2.029,2.0409,1.9723,1.9142,1.9142,1.9142,1.9199,1.9354,1.9362,1.9402,1.95,1.9516,1.9557,1.9662,1.967,1.967,1.967,1.967,1.9557,1.9297,1.9289,1.9207,1.9037,1.9037,1.9037,1.9037,1.9037,1.9118,2.8749,0.0,0.0,3.0276,3.089,3.13,3.1856,3.1973,3.2368,3.3896,3.4158,3.4329,3.5162,3.5258,3.5353,3.5719,3.5851,3.588,3.5792,3.6056,3.6246,3.6246,3.6466,3.6553,3.6407,3.6305,3.6348,3.6583,3.6685,3.6744,3.6744,3.6744,3.6626,3.6392,3.5983,3.5853,3.6,3.5309,3.5265,3.5851,3.5851,3.5794,3.5742,3.6031,3.6031,3.5646,3.5053,3.4004,3.2701,3.1189,3.0132,2.9188,2.8503,2.7554,2.6639,2.7818,2.8704,2.9319,2.8222,2.7933,2.7944,2.7159,2.694,2.6934,2.6965,2.6858,2.6771,2.6804,2.6517,2.6363,2.632,2.5636,2.4956,2.503,2.4376,2.371,2.3906,2.2332,2.0949,2.1047,1.9776,1.8697,1.8797,1.9104,1.9303,1.9402,1.9402,1.937,1.9272,1.9256,1.9256,1.9256,1.9256,1.9313,1.9435,1.9443,1.9516,1.9703,1.9711,1.9735,1.9784,1.9792,1.9703,1.9516,1.9516,1.9427,1.9256,1.9256,1.9256,1.9256,1.9256,1.9289,0.0,0.0,2.9295,3.089,3.2222,3.3246,3.3583,3.3656,3.3938,3.5171,3.5276,3.55,3.6647,3.6628,3.6451,3.6144,3.6363,3.6466,3.6144,3.6378,3.6583,3.6583,3.6597,3.6729,0.0,3.6773,3.6597,3.6597,3.689,3.708,3.708,3.708,3.7065,3.7065,3.6436,3.61,3.6085,3.5778,3.5713,3.5728,3.5728,3.5728,3.5742,3.5742,3.5742,3.555,3.3477,3.2492,3.2115,2.795,2.6274,2.6086,2.4608,2.3916,2.3815,2.28,2.3093,2.4187,2.5634,2.4747,2.3083,2.3083,2.2526,2.1838,2.1652,2.0891,2.0047,1.9866,1.9693,1.9594,1.9767,1.98,1.9749,1.993,1.9573,1.937,1.9869,1.9471,1.9268,1.9776,1.9362,1.9151,1.9666,1.9362,1.9151,1.9666,1.9776,1.9646,1.9305,1.9256,1.9256,1.9256,1.9256,1.9264,1.9264,1.9264,1.9337,1.9508,1.9524,1.9605,1.9784,1.9792,1.9703,1.9516,1.9516,1.9427,1.9256,1.9256,1.9256,1.9256,1.9256,1.9345,0.0,0.0,3.2765,3.39,3.4713,3.5301,3.5632,3.5889,3.6269,3.6803,3.6171,3.5573,3.5876,3.5646,3.531,3.5192,3.5983,3.6568,3.6451,3.6714,3.6934,3.6934,3.7124,0.0,0.0,0.0,0.0,3.7226,3.7358,3.7417,3.7417,3.7417,3.7314,3.7095,3.6875,3.6045,3.4423,3.4017,3.3277,3.2169,3.2069,3.2064,3.2145,3.2051,3.1961,3.1961,3.1164,3.0064,2.8669,2.7256,2.5542,2.3817,2.3315,2.2914,2.2503,2.1783,2.1783,2.2056,2.1974,2.1893,2.1801,2.1093,2.0638,2.0375,2.0308,2.0089,1.9776,1.9711,1.9654,1.9521,1.9282,1.9197,1.9104,1.8752,1.8877,1.9088,1.9182,1.9174,1.9073,1.9276,1.9167,1.9065,1.9268,1.9378,1.9581,1.9792,1.9792,1.9743,1.963,1.9613,1.9613,1.9613,1.9613,1.9613,1.9613,1.9613,1.9638,1.9695,1.9695,1.9727,1.9784,1.9906,1.9882,1.9703,2.0223,2.0291,2.0108,2.051,2.0711,2.0711,1.9907,1.9436,0.0,3.2478,3.4426,3.547,3.6113,3.6511,3.6631,3.6951,3.7383,3.7913,3.6792,3.5731,3.6039,3.5222,3.4534,3.4534,3.5119,3.5734,3.6202,3.6436,3.6744,3.7212,3.7446,3.7622,0.0,0.0,0.0,3.7563,3.768,3.7753,3.7753,3.7753,3.7346,3.6201,3.6074,3.4899,3.2585,3.2284,3.1567,3.0546,3.0327,3.0305,3.0557,3.0281,3.0005,2.9668,2.8757,2.7447,2.5778,2.5072,2.3729,2.2074,2.2283,2.2179,2.1768,2.1243,2.0991,2.0891,2.0179,2.0389,2.0892,2.0184,1.9979,1.9963,1.9702,1.9575,1.9567,1.9292,1.9174,1.9088,1.8852,1.8765,1.8678,1.8313,1.8438,1.8644,1.9063,1.9055,1.8937,1.9355,1.9458,1.9458,1.9458,1.9766,1.9979,1.9979,1.9979,1.993,1.9808,1.9792,1.9792,1.9792,1.9792,1.9792,1.9792,1.9792,1.9792,1.9792,1.9792,1.9792,1.9792,2.011,2.0212,2.0097,2.0722,2.1028,2.0899,2.1203,2.1203,2.0798,2.0089,1.941,3.1549,3.3153,3.4319,3.5532,3.6373,3.6878,3.6847,3.7138,3.7571,3.838,3.7119,3.625,0.0,0.0,3.4212,3.4197,3.4036,3.4358,3.5573,3.586,3.6231,0.0,0.0,0.0,0.0,0.0,0.0,3.7549,3.7914,3.809,3.7987,3.7987,3.6824,3.4488,3.4223,3.293,3.0626,3.051,3.051,3.0522,3.0157,3.0169,3.0406,3.0042,2.9422,2.8555,2.6171,2.4738,2.3741,2.1678,2.0741,2.0848,2.1276,2.1481,2.1383,2.0848,2.0636,2.0466,2.0297,2.0232,2.0216,2.0216,2.0216,2.0079,1.9394,1.9133,1.8999,1.8326,1.8179,1.8114,1.838,1.8417,1.8351,1.8499,1.8222,1.8125,1.9284,1.9067,1.9059,2.0119,2.0344,2.0344,2.0336,2.0336,2.0336,2.0344,2.0328,2.0198,1.9857,1.9817,1.9817,1.9817,1.9817,1.9817,1.9817,1.9817,1.9817,1.9817,1.9817,1.9817,1.9918,2.0325,2.0621,2.0621,2.1229,2.1432,2.1432,2.1432,2.0925,1.9918,1.9817,1.9293,3.3138,3.53,3.763,3.8151,3.8843,3.9299,3.9032,3.963,3.9814,3.8398,3.7146,3.5759,0.0,0.0,0.0,3.389,3.5397,0.0,3.7036,3.73,0.0,3.79,0.0,3.8324,3.8412,3.8412,0.0,0.0,3.7405,3.767,3.596,3.5855,3.4794,3.2462,3.2387,3.121,2.8712,2.6849,2.6013,2.6185,2.553,2.5106,2.4778,2.4133,2.3877,2.3898,2.2522,2.2195,2.2548,2.1324,2.0527,2.0106,2.0313,2.0098,1.9677,1.957,1.9547,1.9501,1.9456,1.9273,1.9059,1.9059,1.9059,1.9052,1.8798,1.8782,1.8671,1.8529,1.8514,1.8425,1.8053,1.7963,1.797,1.8006,1.8222,1.8641,1.9381,1.9694,2.0047,2.0394,2.0629,2.0677,2.0547,2.0523,2.0572,2.0694,2.0491,2.0288,2.0198,2.0182,2.0182,2.0182,2.0182,2.0182,2.0182,2.0182,2.0182,2.0182,2.0182,2.0389,2.0803,2.101,2.1217,2.163,2.2137,2.2446,2.2446,2.2033,2.1733,2.1423,1.9656,1.8537,3.4605,3.6637,3.8703,3.8767,3.9418,3.9847,3.8846,3.9128,3.9142,3.7227,3.5837,0.0,0.0,0.0,0.0,0.0,0.0,0.0,3.7065,3.7314,3.7636,0.0,3.8426,0.0,3.7144,3.704,3.6083,0.0,3.5755,3.5978,3.3739,3.3633,3.2561,3.0323,3.0216,2.9089,2.6633,2.5137,2.4397,2.4279,2.3753,2.3215,2.2535,2.2022,2.1491,2.1045,2.0416,2.0161,2.0182,1.9639,1.92,1.8818,1.9133,1.9033,1.8711,1.8711,1.8667,1.8623,1.8474,1.8223,1.8128,1.8623,1.8813,1.8662,1.8518,1.839,1.8346,1.8102,1.8116,1.801,1.7699,1.7805,1.8017,1.8017,1.8441,1.8948,1.9512,1.9867,2.0271,2.0686,2.0791,2.0824,2.0726,2.071,2.0718,2.0734,2.0572,2.0409,2.0328,2.032,2.0353,2.0434,2.0442,2.0442,2.0442,2.0442,2.0409,2.032,2.0529,2.0841,2.1154,2.1674,2.208,2.2392,2.291,2.291,2.2495,2.2184,2.1457,2.052,1.9164,1.8222,3.5852,3.7413,3.8656,3.8513,3.9196,3.9433,3.757,3.7461,3.718,3.5423,0.0,3.3093,3.2827,3.2821,3.2822,3.2997,0.0,3.5397,3.6685,3.6861,3.727,3.8412,3.8217,3.7263,3.5334,3.4808,3.3739,3.1391,3.3091,3.3303,3.1391,3.1284,3.0216,2.8091,2.7876,2.6914,2.4882,2.4604,2.4279,2.3774,2.3512,2.287,2.1932,2.1665,2.0778,1.955,1.9213,1.8596,1.7806,1.7609,1.7541,1.7419,1.7958,1.8166,1.8166,1.8166,1.8088,1.7996,1.7593,1.7331,1.7456,1.856,1.883,1.8635,1.8345,1.8081,1.7896,1.7493,1.7419,1.7419,1.7527,1.7958,1.8381,1.8488,1.8926,1.9425,1.9804,2.002,2.0352,2.0749,2.0889,2.0921,2.0897,2.0872,2.0807,2.0686,2.0604,2.0515,2.0377,2.0336,2.0385,2.0539,2.0564,2.0564,2.0564,2.0564,2.0499,2.0473,2.0962,2.1162,2.1292,2.2098,2.2495,2.2495,2.291,2.2703,2.1769,2.1665,2.052,1.8641,1.8432,1.7915,3.6355,3.7383,3.8894,3.972,4.0276,4.0146,3.8259,3.8351,0.0,0.0,0.0,3.3036,3.144,3.2089,3.3115,3.4197,0.0,0.0,0.0,0.0,3.828,0.0,0.0,0.0,0.0,0.0,0.0,0.0,2.9263,2.9263,2.8941,2.8941,2.8091,2.6295,2.5742,2.5308,2.4882,2.4409,2.3647,2.2581,2.2008,2.1132,2.0073,1.95,1.9228,1.9115,1.8255,0.0,1.8565,1.7728,1.7446,1.7419,1.7527,1.7527,1.7527,1.7527,1.7513,1.7493,1.7412,1.7405,1.7385,1.7628,1.7728,1.76,1.7628,1.7513,1.7493,1.7412,1.7419,1.7527,1.8058,1.8166,1.8488,1.9463,1.9785,1.9991,2.0602,2.0846,2.0927,2.088,2.1092,2.1246,2.1108,2.0954,2.0897,2.1019,2.0653,2.0409,2.0531,2.0418,2.0328,2.0361,2.0369,2.0369,2.0369,2.0369,2.0627,2.1277,2.1238,2.1221,2.147,2.1439,2.1145,2.0737,2.0833,2.0737,2.0633,1.9686,1.8955,1.8536,1.7706,1.7188,3.7196,3.7686,3.8386,3.88,3.9221,3.8905,3.6696,0.0,0.0,0.0,0.0,3.1904,3.0934,3.1885,0.0,3.3597,3.5339,0.0,0.0,0.0,0.0,0.0,0.0,0.0,0.0,0.0,0.0,2.6698,2.594,2.5831,2.6491,2.594,2.5081,2.401,2.3346,2.3128,2.3128,2.2808,2.2253,2.1384,2.1063,2.0278,1.9081,1.8868,1.8665,1.8406,1.7854,1.7846,1.806,1.7518,1.7256,1.7188,1.7188,1.7188,1.7188,1.7188,1.7188,1.7202,1.7277,1.7518,1.7639,1.7499,1.7365,1.7317,1.7399,1.7419,1.7439,1.7839,1.8031,1.8195,1.8849,1.9176,1.9612,2.0155,2.0418,2.0695,2.1108,2.1124,2.1124,2.1132,2.1278,2.136,2.1278,2.1189,2.11,2.1002,2.0767,2.0669,2.0886,2.0795,2.0674,2.045,2.0668,2.0878,2.0878,2.1192,2.1507,2.1708,2.1413,2.1187,2.1272,2.0883,2.0529,2.032,2.032,2.0007,1.9373,1.885,1.8327,1.7706,1.7188,1.6978,3.7691,3.7828,3.7874,3.7903,3.8157,3.777,3.5194,3.4682,0.0,0.0,3.0817,3.0817,3.0817,0.0,3.2441,0.0,3.4461,3.5968,0.0,0.0,0.0,0.0,0.0,0.0,0.0,0.0,0.0,2.4337,2.3246,2.3137,2.4119,2.3246,2.2581,2.2261,2.1705,2.1384,2.1384,2.1266,2.0835,2.0073,2.0073,1.9522,1.853,1.853,1.8302,1.7812,1.7704,1.7561,1.7412,1.729,1.7175,1.7073,1.7073,1.7073,1.7073,1.7073,1.7179,1.7298,1.7274,1.7535,1.801,1.7666,1.7525,1.7477,1.76,1.7635,1.7777,1.8473,1.8725,1.9038,1.961,2.0183,2.0505,2.0623,2.0951,2.1222,2.136,2.1278,2.1222,2.136,2.1384,2.1384,2.1384,2.1453,2.1448,2.1169,2.1202,2.1283,2.1515,2.1447,2.1272,2.1002,2.1293,2.1479,2.1479,2.2004,2.217,2.1943,2.1379,2.0954,2.0682,2.0232,1.9798,1.959,1.959,1.9172,1.8222,1.8222,1.7811,1.6978,1.6978,1.6978,3.7019,3.759,3.7888,3.8432,3.8844,3.8379,3.5584,0.0,0.0,3.1429,3.0817,3.0817,3.0817,3.092,0.0,0.0,0.0,3.3934,0.0,0.0,0.0,0.0,0.0,0.0,0.0,0.0,0.0,2.1823,2.1595,2.1612,2.1705,2.1595,2.1705,2.2236,2.1705,2.1384,2.136,2.0835,1.9955,1.8868,1.8868,1.853,1.7977,1.7977,1.7902,1.767,1.765,1.7561,0.0,1.7405,1.7392,1.7378,1.7378,1.7378,1.7378,1.7378,1.7701,1.8109,1.7449,1.7704,1.8231,1.8117,1.8159,1.8152,1.8166,1.8166,1.8417,1.9117,1.9285,1.9548,2.0239,2.0505,2.0623,2.1156,2.1384,2.136,2.1384,2.136,2.136,2.1384,2.1384,2.1384,2.1384,2.169,2.1899,2.1866,2.2242,2.2441,2.2513,2.2354,2.2153,2.217,2.2013,2.1899,2.1899,2.2012,2.1865,2.1592,2.1238,2.049,1.9288,1.8933,1.8334,1.7293,1.7293,1.7293,1.7188,1.7188,1.7083,1.6978,1.6978,1.6978,3.6712,3.7402,3.7709,3.7476,3.699,3.6074,3.4581,0.0,3.2807,3.1124,3.0817,3.0817,3.0817,3.0817,3.0993,3.152,3.2266,0.0,3.4154,0.0,0.0,0.0,0.0,0.0,0.0,0.0,2.1612,2.0395,2.0278,2.0065,1.9294,1.9955,2.0278,2.005,1.9522,1.9287,1.9287,1.9081,1.8647,1.8205,1.8205,1.8088,1.786,1.786,1.7826,1.7772,1.7684,1.7616,0.0,1.746,1.7419,1.7419,1.7419,1.7419,1.7419,1.7419,1.7527,1.7735,1.7881,1.8224,1.8811,1.8752,1.8981,1.9248,1.8918,1.8877,1.908,1.9791,1.9999,2.0201,2.0921,2.1063,2.1063,2.1384,2.1384,2.1384,2.1384,2.1384,2.1384,2.1384,2.1705,2.1932,2.1932,2.2311,2.2661,2.2549,2.2581,2.2628,2.283,2.2747,2.2562,2.2267,2.2413,2.2184,2.1561,2.1769,2.17,2.0836,2.0039,1.9299,1.8738,1.8056,1.744,1.7107,1.7107,1.7154,1.7249,1.5848,1.5093,1.5088,1.3615,1.2945,3.5693,3.6645,3.7042,3.6574,3.5573,3.4505,0.0,0.0,3.1593,3.0846,3.0685,3.0715,3.0803,3.0817,3.0817,3.0817,3.1593,3.2324,3.2719,3.3554,0.0,0.0,0.0,2.6493,0.0,2.0919,2.0073,1.9405,1.9192,1.8757,1.7977,1.864,1.8853,1.853,1.8088,1.786,1.786,1.786,1.786,1.786,1.786,1.7977,1.8095,1.8095,1.8184,1.8412,1.83,1.8046,0.0,1.8031,1.788,1.7555,1.7772,1.7663,1.7555,1.7772,1.788,1.809,1.8467,1.9029,1.9498,1.9554,1.9785,2.0147,1.9923,1.9722,1.9753,2.0341,2.0599,2.0835,2.1266,2.1384,2.1384,2.1384,2.1384,2.1384,2.1384,2.1384,2.1494,2.1595,2.205,2.2371,2.2472,2.2975,2.3222,2.3206,2.3117,2.3044,2.3015,2.2765,2.2196,2.0938,2.0944,2.1063,2.0916,2.1334,2.11,1.9903,1.8424,1.7475,1.7161,1.5803,1.5021,1.5147,1.5153,1.5218,1.535,1.3609,1.2836,1.2801,1.1004,0.9886,3.3791,3.5023,3.5816,3.6041,3.5412,3.4446,0.0,0.0,3.152,3.0636,3.0431,3.0451,3.0759,3.0817,3.0817,3.0817,3.0832,3.13,3.2588,3.2778,0.0,0.0,0.0,2.7007,2.3297,1.9862,1.8205,1.864,1.8205,1.786,1.786,1.786,1.786,1.786,1.786,1.786,1.786,1.786,1.786,1.786,1.786,1.8205,1.8647,1.8647,1.8971,1.9632,1.9632,1.9199,0.0,1.9294,1.8964,1.7977,1.853,1.8412,1.7977,1.853,1.9081,1.961,1.9439,1.9819,2.0466,2.0303,2.0365,2.06,2.1156,2.0698,2.0145,2.0859,2.1254,2.1384,2.1384,2.1384,2.1384,2.1384,2.1384,2.1384,2.1384,2.1384,2.1612,2.2143,2.2261,2.2489,2.3018,2.3412,2.3718,2.3718,2.408,2.3834,2.277,2.2548,2.1136,1.7673,1.7244,1.8167,2.0369,2.0466,1.9965,1.8649,1.6518,1.4727,1.368,1.1464,1.0236,1.0219,1.0223,1.0264,1.0348,1.0348,1.0304,1.0223,1.0223,0.9,3.2149,3.3383,3.4154,3.3894,3.2939,3.2032,3.1944,0.0,3.0115,3.0027,3.0093,3.0115,3.0437,3.0495,3.0568,3.0788,3.0817,3.0964,0.0,0.0,0.0,2.6576,2.3206,2.0621,0.0,0.0,1.7977,1.8095,1.7977,1.786,1.786,1.8205,1.8316,1.786,1.786,1.786,1.786,1.786,1.804,1.8361,1.8361,1.8537,1.8972,1.8972,1.908,1.9297,1.9297,1.9465,1.9773,1.989,1.9999,2.01,1.9781,1.9495,1.9304,1.9206,1.9176,1.9319,1.9928,2.0162,2.035,2.0841,2.0935,2.1012,2.1335,2.1202,2.1012,2.1185,2.1343,2.1384,2.1384,2.1384,2.1384,2.1384,2.1384,2.1502,2.1932,2.205,2.2143,2.2699,2.3137,2.3565,2.3683,2.4173,2.4245,2.3366,2.1974,2.0431,1.9252,1.752,1.5757,1.4015,1.3808,1.3983,1.4616,1.4712,1.4124,1.2955,1.22,1.164,1.1253,1.0572,1.0223,1.0416,1.0369,1.0441,1.0534,0.8993,0.7297,0.5597,0.5597,0.5227,0.0,3.1722,3.2629,3.2617,3.1607,0.0,0.0,0.0,2.9281,2.9617,2.961,2.9617,3.01,3.0194,3.0258,3.0612,3.0744,3.0516,0.0,0.0,0.0,2.3967,0.0,0.0,0.0,1.8624,1.8569,1.8853,1.864,1.853,1.853,1.8853,1.8853,1.853,1.853,1.853,1.853,1.8473,1.8608,1.8842,1.8784,1.9029,1.9463,1.9463,1.957,1.9785,2.0069,2.0116,0.0,2.065,2.0643,2.0363,2.0147,1.9869,1.9585,1.9576,1.9554,1.9608,2.0427,2.0669,2.0605,2.1137,2.1165,2.1059,2.1238,2.1343,2.1384,2.1384,2.1384,2.1384,2.1384,2.1384,2.1494,2.1705,2.1705,2.1705,2.1384,2.1266,2.1156,2.0811,2.1023,2.125,2.1015,2.1278,2.1012,1.9796,1.8227,1.6716,1.5536,1.4091,1.2362,1.0364,1.029,0.9959,0.891,1.0409,1.1117,1.0276,0.9409,0.8957,0.8907,0.8095,0.7716,0.7886,0.7822,0.7876,0.8057,0.6476,0.5001,0.3527,0.3516,0.3486,0.0,0.0,0.0,0.0,0.0,0.0,0.0,0.0,0.0,2.9281,2.9037,2.8979,2.9698,2.976,2.9813,3.0267,3.0598,0.0,0.0,2.7597,0.0,0.0,2.2261,0.0,2.0728,1.9867,1.9642,2.0357,1.9933,1.9595,1.961,1.961,1.9618,1.9632,1.9728,1.9618,1.961,1.9461,1.9372,1.945,1.9193,1.944,2.0067,2.0067,2.0281,0.0,2.1533,2.1193,2.0206,2.145,2.0878,1.934,1.9876,1.9761,1.9325,1.9869,2.0083,2.0098,2.0827,2.11,2.1092,2.1092,2.0978,2.0889,2.1059,2.123,2.136,2.1384,2.1384,2.1384,2.1384,2.1266,2.1384,2.1932,2.1932,2.1384,1.9728,1.9383,1.8942,1.7164,1.6839,1.6612,1.6028,1.5711,1.5184,1.3971,1.3548,1.2831,1.1767,1.1636,1.0372,0.6971,0.6797,0.605,0.3814,0.7558,0.9909,0.9821,0.7861,0.6662,0.666,0.4594,0.3516,0.3544,0.3549,0.3562,0.3589,0.3562,0.3534,0.3509,0.348,0.345,0.0,0.0,0.0,0.0,0.0,0.0,0.0,0.0,0.0,0.0,0.0,2.8569,2.8964,2.9239,2.9522,2.9785,3.0258,2.9761,2.77,0.0,0.0,1.9599,1.9524,1.9559,1.9126,1.907,1.9215,1.9468,1.926,1.9312,1.9431,1.9882,2.0154,2.0278,2.0615,2.0318,1.9439,1.9401,1.9468,1.9638,1.96,1.9832,2.0232,2.0232,2.0345,2.045,2.0596,2.088,2.1191,2.1445,2.1542,2.15,2.1289,2.0994,2.0676,2.0499,2.0361,2.028,2.0807,2.0832,2.0718,2.0718,2.0783,2.0864,2.0905,2.1043,2.1213,2.1343,2.1384,2.1384,2.1384,2.0395,1.9405,1.95,1.8508,1.7502,1.7502,1.7502,1.7274,1.6366,1.6255,1.5912,1.4802,1.4547,1.4205,1.3002,1.1206,0.965,0.8452,0.6797,0.5249,0.4471,0.4368,0.4259,0.3702,0.4588,0.5235,0.5076,0.4635,0.4291,0.4265,0.3744,0.3538,0.3544,0.3569,0.3583,0.3589,0.3583,0.3576,0.3569,0.3562,0.354,0.0,0.0,0.0,0.0,0.0,0.0,0.0,0.0,0.0,0.0,0.0,2.7861,2.8425,2.7918,2.7779,2.9044,2.8412,0.0,0.0,0.0,1.9495,1.921,1.9156,1.9176,0.0,1.9616,1.9814,1.9884,1.9892,1.9931,2.0131,2.0563,2.0935,2.1032,2.1475,2.1251,2.0147,1.9993,2.0036,2.0059,1.9972,2.0095,2.032,2.032,2.032,2.0328,2.0724,2.0878,2.0999,2.1302,2.1496,2.1306,2.1096,2.0933,2.0745,2.0539,2.0409,2.0361,2.0637,2.0726,2.0726,2.0815,2.0135,1.925,1.94,1.8589,1.8097,1.9418,1.9713,1.961,1.8722,1.7846,1.7184,1.7729,1.7177,1.6176,1.5057,1.483,1.4282,1.2385,1.1937,1.1608,1.0373,1.015,0.9709,0.8606,0.7267,0.6269,0.5603,0.4373,0.3589,0.3589,0.3589,0.3589,0.3589,0.3589,0.3583,0.3565,0.3565,0.3558,0.3544,0.3558,0.3565,0.3565,0.3583,0.3589,0.3589,0.3589,0.3583,0.3569,0.3569,0.3555,0.0,0.0,0.0,0.0,0.0,0.0,0.0,0.0,0.0,0.0,0.0,0.0,0.0,2.6387,0.0,0.0,0.0,0.0,2.2919,1.9984,1.8485,2.0008,1.9833,0.0,2.0628,2.0677,2.0824,2.1078,2.1095,2.0996,2.1029,2.1448,2.1784,2.1596,2.2104,2.1951,2.1043,2.0857,2.0686,2.0556,2.0393,2.032,2.032,2.032,2.032,2.0328,2.1008,0.0,2.0328,2.1016,2.0878,2.032,2.032,2.032,2.032,2.032,2.0111,1.971,1.9543,1.9683,1.9822,1.9969,1.8416,1.665,1.6946,1.553,1.4302,1.6303,1.7164,1.7047,1.5622,1.5068,1.5074,1.5948,1.5838,1.4958,1.2284,1.1723,1.073,0.7505,0.6951,0.65,0.5383,0.5157,0.4821,0.3702,0.3589,0.3589,0.3589,0.3589,0.3589,0.3589,0.3589,0.3589,0.3589,0.3589,0.3589,0.3589,0.3589,0.3589,0.3589,0.3589,0.3589,0.3589,0.3589,0.3589,0.3589,0.3589,0.3576,0.3551,0.3551,0.3538,2.607,2.6549,2.655,2.6444,0.0,0.0,0.0,0.0,0.0,0.0,0.0,0.0,0.0,2.6228,2.6824,0.0,0.0,2.3531,0.0,0.0,1.9513,2.0377,0.0,2.0479,2.1196,2.1184,2.1309,2.1752,2.1865,2.1725,2.1361,2.1897,2.1869,2.1062,2.1347,2.128,2.0677,2.1044,2.0936,2.0361,2.0328,2.032,2.032,2.032,2.032,2.032,0.0,2.0449,2.032,2.0457,2.0449,2.032,2.032,2.032,2.032,2.032,1.9052,1.7161,1.5283,1.4674,1.4692,1.471,1.4481,1.4175,1.4423,1.4161,1.376,1.2785,1.4065,1.5512,1.5296,1.4409,1.3415,1.2627,1.1296,0.985,0.8293,0.8067,0.7505,0.5945,0.5719,0.5271,0.4039,0.3927,0.3814,0.3589,0.3589,0.3589,0.3589,0.3589,0.3589,0.3589,0.3589,0.3589,0.3589,0.3589,0.3589,0.3589,0.3589,0.3589,0.3589,0.3589,0.3589,0.3589,0.3589,0.3589,0.3589,0.3589,0.3587,0.3583,0.3583,0.358,2.5369,2.5506,2.5466,2.6212,0.0,0.0,0.0,0.0,0.0,0.0,0.0,0.0,0.0,0.0,2.4074,2.2067,0.0,2.1885,2.1289,1.988,1.9171,0.0,0.0,2.0033,2.0715,2.0787,2.0841,2.1049,2.1049,2.0979,2.0861,2.1385,2.1532,2.1091,2.1532,2.149,2.0974,2.1176,2.0883,2.0182,2.0182,2.0182,2.0182,2.0182,2.0231,2.032,0.0,2.032,2.032,2.032,2.032,2.0216,1.8947,1.8417,1.8313,1.7154,1.6,1.4955,1.4069,1.3667,1.3689,1.3932,1.3073,1.1989,1.1759,1.0795,0.9576,0.8475,1.0177,1.2172,1.1518,1.0516,0.9512,0.9289,0.8622,0.7737,0.65,0.6281,0.5831,0.4709,0.4376,0.4264,0.3702,0.3589,0.3589,0.3589,0.3927,0.4039,0.4039,0.4376,0.4597,0.4597,0.4597,0.4597,0.4597,0.4597,0.4264,0.3589,0.3589,0.3589,0.3589,0.3589,0.3589,0.3589,0.3589,0.3589,0.3589,0.3589,0.3589,0.3589,0.3589,0.3814,2.4815,2.4703,2.4737,2.6153,0.0,0.0,0.0,0.0,0.0,0.0,0.0,0.0,0.0,2.3143,0.0,2.0242,2.0535,2.0842,2.0139,1.9256,1.9085,2.0326,1.9858,1.9779,2.0575,2.0633,2.0529,2.0737,2.0737,2.0633,2.0529,2.1049,2.1258,2.1049,2.157,2.157,2.0945,2.0945,2.0671,2.0125,2.0125,2.0125,2.0125,2.0085,2.0237,2.0359,2.0263,2.0367,2.0367,1.9775,1.9477,1.9268,1.6978,1.6169,1.5878,1.3656,1.2919,1.3036,1.2584,1.2292,1.2209,1.2481,1.1064,0.9299,0.8889,0.7448,0.588,0.5708,0.7055,0.8396,0.7843,0.7063,0.6505,0.6724,0.6724,0.65,0.5271,0.4933,0.4709,0.3814,0.3589,0.3589,0.3814,0.3814,0.3815,0.4039,0.4376,0.4712,0.4712,0.5157,0.5383,0.5383,0.5383,0.5383,0.5383,0.5383,0.5045,0.4039,0.4039,0.4039,0.4039,0.4039,0.4039,0.4039,0.4039,0.4039,0.4039,0.4039,0.4039,0.4039,0.4039,0.4264,2.462,2.5008,2.5246,2.6262,2.5957,0.0,2.5369,2.6557,0.0,2.5958,0.0,0.0,0.0,2.3535,2.2444,2.2764,2.2228,2.1317,2.0229,0.0,2.0217,2.1061,2.0522,2.0505,2.1751,2.1466,2.1362,2.1873,2.1873,2.1665,2.1154,2.1674,2.1466,2.0424,2.0945,2.0945,2.032,2.032,2.0312,2.0304,2.0304,2.0304,2.0296,2.0141,2.0377,2.0694,2.0291,2.0394,2.06,1.815,1.7154,1.6958,1.4751,1.3905,1.368,1.142,1.0991,1.1208,0.9052,0.7967,0.7531,0.754,0.667,0.5586,0.5636,0.5537,0.5436,0.6046,0.5607,0.5157,0.6169,0.6836,0.6836,0.5831,0.5495,0.5157,0.4039,0.3702,0.3702,0.3589,0.3589,0.3814,0.4376,0.4488,0.46,0.5157,0.5271,0.5383,0.5383,0.5383,0.5383,0.5383,0.5383,0.5383,0.5383,0.5383,0.5383,0.5271,0.5271,0.5271,0.5271,0.5271,0.5271,0.5271,0.5271,0.5271,0.5271,0.5271,0.5271,0.5271,0.5271,0.5271,2.3886,2.4538,2.5246,2.5725,2.5801,0.0,0.0,2.6598,2.6884,2.5968,2.54,0.0,0.0,0.0,2.0812,2.1942,2.1379,2.0587,1.9984,2.0196,2.0527,2.0798,2.085,2.0977,2.1268,2.1088,2.0923,2.0937,2.0945,2.0841,2.0633,2.0841,2.0737,2.032,2.0529,2.0529,2.032,2.032,2.032,2.032,2.0214,2.0166,2.0158,2.0505,2.0538,2.0422,1.9156,1.8483,1.8181,1.5736,1.4817,1.4522,1.243,1.0943,0.9848,0.8229,0.8041,0.8406,0.6779,0.6122,0.591,0.5938,0.5619,0.5189,0.4899,0.4802,0.4802,0.4709,0.4264,0.4264,0.5383,0.5383,0.4821,0.4376,0.4264,0.4152,0.3702,0.3589,0.3702,0.4039,0.4152,0.4376,0.4933,0.5045,0.5157,0.5383,0.5719,0.5945,0.5945,0.6281,0.65,0.65,0.65,0.65,0.65,0.65,0.65,0.65,0.5831,0.5383,0.5383,0.5383,0.5383,0.5383,0.5383,0.5383,0.5383,0.5383,0.5383,0.5383,0.5383,0.5607,2.264,2.3169,2.3879,2.462,0.0,0.0,2.579,2.5995,2.5948,2.5025,2.501,0.0,0.0,0.0,0.0,0.0,2.0785,2.002,1.9898,2.0333,2.0596,2.0596,2.0848,2.1085,2.0977,2.0892,2.0661,2.043,2.0447,2.0367,2.0312,2.032,2.032,2.032,2.0529,2.0529,2.0529,2.0529,2.0529,2.0633,2.0302,2.015,2.0141,1.9965,1.9696,1.9272,1.7176,1.6163,1.5821,1.3374,1.2166,1.1473,0.9753,0.8462,0.7367,0.6177,0.6199,0.6665,0.5794,0.5365,0.5277,0.5303,0.5102,0.4676,0.4368,0.4264,0.4152,0.3702,0.3589,0.3815,0.4821,0.4376,0.3589,0.3589,0.3702,0.3927,0.3927,0.4039,0.4264,0.4712,0.4826,0.4938,0.5607,0.5719,0.5719,0.5945,0.6281,0.662,0.662,0.6951,0.7175,0.7175,0.7175,0.7175,0.7175,0.7175,0.7175,0.7175,0.6388,0.5945,0.5945,0.5945,0.5945,0.5945,0.5945,0.5945,0.5945,0.5945,0.5945,0.5945,0.5945,0.6169,2.1113,2.0918,2.104,2.2836,0.0,0.0,2.3962,2.4384,2.4501,2.2798,0.0,2.5727,2.203,0.0,0.0,2.1873,2.0785,2.0068,2.0068,2.0416,2.0596,2.0596,2.0435,2.0593,2.1379,2.0899,2.0672,2.0763,2.0772,2.065,2.0312,2.032,2.032,2.032,2.0841,2.1154,2.1154,2.1154,2.1154,2.1154,2.0529,2.032,2.0208,1.8344,1.7533,1.7327,1.4532,1.3526,1.3723,1.1159,0.9172,0.7665,0.7027,0.6888,0.6883,0.5685,0.5685,0.6231,0.6231,0.5828,0.5313,0.5313,0.4565,0.3589,0.3589,0.3589,0.3589,0.3589,0.3589,0.3702,0.4376,0.4039,0.3589,0.3589,0.4039,0.4488,0.4488,0.4933,0.5383,0.5383,0.5383,0.5607,0.6169,0.6281,0.6505,0.7063,0.7175,0.7175,0.7175,0.7175,0.7175,0.7175,0.7175,0.7175,0.7175,0.7175,0.7175,0.7175,0.7175,0.7175,0.7175,0.7175,0.7175,0.7175,0.7175,0.7175,0.7175,0.7175,0.7175,0.7175,0.7175,0.7175,2.2314,2.2541,0.0,2.2674,0.0,0.0,0.0,2.415,0.0,0.0,2.3301,2.312,2.1837,0.0,0.0,2.1683,2.0874,2.0206,2.0085,2.0714,2.1203,2.1203,2.1505,2.1831,2.1976,2.1684,2.1282,2.0663,2.068,2.056,2.0133,2.0141,2.0198,2.0312,2.0841,2.1049,2.0529,2.0945,2.0945,2.0529,1.9149,1.8305,1.7887,1.7732,1.6654,1.4668,1.3011,1.2127,1.1682,0.968,0.8126,0.6898,0.669,0.6552,0.6224,0.5047,0.4977,0.5464,0.4594,0.4163,0.4062,0.4062,0.385,0.3531,0.3551,0.3558,0.3673,0.4144,0.4264,0.4376,0.4933,0.5045,0.4821,0.4821,0.5045,0.5157,0.5157,0.5271,0.5495,0.5945,0.6057,0.6169,0.6836,0.6951,0.6951,0.7175,0.7175,0.7175,0.7175,0.7175,0.7175,0.7175,0.7175,0.7175,0.7175,0.7175,0.7175,0.7175,0.7175,0.7175,0.7175,0.7175,0.7175,0.7175,0.7175,0.7175,0.7175,0.7175,0.7175,0.7175,0.7175,0.7175,2.0604,2.0841,0.0,2.1524,2.216,2.2647,2.26,0.0,0.0,0.0,0.0,2.2039,2.1286,2.119,0.0,2.1234,2.0747,2.0255,2.0085,2.0816,2.137,2.13,2.1803,2.2097,2.194,2.1668,2.118,2.0578,2.0553,2.0545,2.0356,2.0196,2.0286,2.0526,2.0903,2.1049,2.0633,2.1049,2.1049,2.0633,1.9365,1.7782,1.5895,1.5351,1.4195,1.241,1.0626,0.9542,0.9229,0.7802,0.6859,0.6254,0.6046,0.5878,0.5512,0.4363,0.4175,0.4417,0.3678,0.3475,0.3484,0.3484,0.3493,0.3506,0.374,0.3857,0.3977,0.4676,0.4797,0.4914,0.5601,0.5719,0.5719,0.5495,0.5607,0.5719,0.5719,0.5945,0.6169,0.662,0.662,0.6724,0.7175,0.7175,0.7175,0.7175,0.7175,0.7175,0.7175,0.7175,0.7175,0.7175,0.7175,0.7175,0.7175,0.6277,0.5826,0.5826,0.4817,0.4368,0.4368,0.6162,0.7175,0.7175,0.7175,0.7175,0.7175,0.6274,0.5826,0.5715,0.4815,0.4368,1.7579,1.7511,0.0,1.9981,2.1461,0.0,2.4599,2.2125,1.954,1.9757,0.0,2.1798,2.0394,2.1449,2.2072,2.0545,2.0328,2.0263,2.0093,2.0841,2.1269,2.1121,2.1407,2.1568,2.1586,2.1183,2.0751,2.0342,2.0503,2.0604,2.0519,2.0307,2.0414,2.0677,2.1044,2.1128,2.1128,2.1145,2.1154,2.1154,2.0208,1.7894,1.4318,1.2299,1.1037,1.0517,0.7808,0.6625,0.6617,0.6044,0.584,0.5773,0.5249,0.4938,0.4841,0.3822,0.3393,0.3378,0.3407,0.3435,0.3569,0.3567,0.3585,0.3718,0.4261,0.448,0.4594,0.5189,0.5199,0.5213,0.5927,0.5938,0.5607,0.5045,0.5607,0.6281,0.6057,0.65,0.6836,0.6612,0.65,0.65,0.65,0.65,0.65,0.65,0.6612,0.6612,0.65,0.65,0.65,0.65,0.65,0.65,0.65,0.4479,0.3247,0.3247,0.1231,0.0,0.0,0.4256,0.65,0.65,0.6951,0.6951,0.65,0.4368,0.3247,0.3247,0.0895,-0.0112,2.0466,1.9825,0.0,0.0,2.018,2.0132,2.0359,2.0082,2.0266,2.212,2.1523,2.0555,2.053,2.0699,2.0778,2.062,2.0418,2.0304,2.0263,2.0625,2.096,2.1165,2.1392,2.1537,2.1696,2.1471,2.1099,2.0536,2.057,2.046,2.02,2.0041,2.0057,2.0266,2.0719,2.0736,2.0323,2.0878,2.0945,2.0424,1.7161,1.5265,1.4423,1.3891,1.1781,0.8299,0.6801,0.6346,0.6725,0.6505,0.5956,0.5096,0.4992,0.4493,0.3788,0.3479,0.3403,0.3438,0.3445,0.3792,0.425,0.4112,0.4432,0.4874,0.498,0.498,0.5207,0.5798,0.4626,0.3319,0.3992,0.2785,0.1343,0.1231,0.4144,0.65,0.4591,0.4256,0.3806,0.1903,0.1567,0.1567,0.1567,0.1567,0.1567,0.1567,0.1903,0.2129,0.1567,0.1567,0.1567,0.1567,0.1567,0.1567,0.1567,0.1119,0.0784,0.0784,0.0336,0.0,0.0,0.1007,0.1567,0.1567,0.5265,0.5377,0.1567,0.1007,0.0784,0.0784,-0.0783,-0.1453,1.8587,0.0,0.0,1.9222,0.0,1.9102,1.9004,1.9402,2.0113,2.1418,2.0875,2.0271,2.0547,2.0515,2.0483,2.058,2.0515,2.0426,2.0328,2.058,2.0814,2.101,2.1275,2.1339,2.1139,2.1061,2.0798,2.0291,2.0273,2.0331,2.0339,2.0106,2.0114,2.0339,2.043,2.0377,2.0068,2.0468,2.0023,1.8626,1.6308,1.4096,1.1983,1.1464,0.9564,0.6815,0.5964,0.5738,0.5924,0.5395,0.475,0.4203,0.4203,0.389,0.3369,0.3382,0.3621,0.3759,0.2587,0.2605,0.2949,0.174,0.1302,0.1519,0.2062,0.2056,0.2053,0.2943,0.2293,0.1532,0.1867,0.1217,0.0445,0.0445,0.2226,0.3454,0.2125,0.1897,0.1559,0.0224,0.0224,0.0448,0.0448,0.0672,0.0895,0.0895,0.112,0.1232,0.0896,0.0895,0.0895,0.0895,0.0895,0.0895,0.0895,-0.0224,-0.1119,-0.1679,-0.2799,-0.3695,-0.4256,-0.4256,-0.2799,0.0336,0.2574,0.235,-0.0448,-0.1903,-0.2684,-0.302,-0.4588,-0.5259,1.5769,0.0,1.6763,1.8403,1.8948,0.0,1.9037,1.9451,1.9825,1.9792,2.0068,2.0377,2.0564,2.0572,2.0556,2.0596,2.0572,2.0491,2.0344,2.0501,2.0719,2.0719,2.0995,2.0994,2.0587,2.0587,2.0383,1.9882,2.002,2.025,2.0493,2.034,2.0332,2.0503,2.0278,2.0052,2.002,1.9481,1.8418,1.6728,1.5561,1.2711,0.8498,0.7659,0.6709,0.5858,0.5115,0.4796,0.4689,0.3837,0.3412,0.3412,0.3412,0.3502,0.3482,0.3083,0.3307,0.3527,0.1186,0.0761,0.0986,-0.1095,-0.197,-0.2184,-0.1201,-0.1194,-0.1296,-0.0218,-0.0109,-0.0325,-0.0218,-0.011,-0.011,-0.011,-0.0442,-0.0774,-0.0334,-0.0223,-0.0333,-0.0781,-0.056,-0.0224,-0.0224,0.0336,0.056,0.0336,0.0336,0.0336,0.0,-0.0112,-0.0112,-0.0112,-0.0112,-0.0112,-0.0112,-0.1905,-0.3471,-0.4479,-0.6388,-0.7961,-0.8967,-0.8856,-0.6274,-0.0784,-0.1231,-0.1791,-0.2349,-0.4812,-0.6269,-0.6823,-0.8517,-0.9306,1.6278,0.0,1.7908,0.0,1.9313,1.9402,0.0,0.0,1.9987,0.0,2.0068,2.0377,2.0564,2.0466,2.0409,2.0572,2.0466,2.0344,2.032,2.0296,2.0392,2.0392,2.0367,2.0455,2.0351,2.0351,2.0351,2.0247,2.0271,2.0271,2.0351,2.0158,2.0106,1.9894,2.0073,1.9987,1.9825,1.7203,1.5965,1.6191,1.2079,0.8604,0.5645,0.5541,0.5328,0.5115,0.405,0.3625,0.3625,0.3412,0.3412,0.3412,0.3412,0.3728,0.3936,0.1916,0.1605,0.1833,-0.0544,-0.0987,-0.0552,-0.0994,-0.0769,-0.0328,-0.0328,-0.0326,-0.0216,0.0436,-0.0764,-0.2181,-0.1638,-0.2955,-0.4494,-0.4494,-0.4494,-0.3952,-0.1991,-0.1559,-0.212,-0.4218,-0.4574,-0.4597,-0.4597,-0.4035,-0.4147,-0.5715,-0.5607,-0.5831,-0.7393,-0.7505,-0.7505,-0.7505,-0.7505,-0.7505,-0.7505,-0.7843,-0.8067,-0.8293,-0.8629,-0.8856,-0.8967,-0.8517,-0.7843,-0.6943,-0.7505,-0.7843,-0.7955,-0.8293,-0.8517,-0.8629,-0.9973,-1.0528,1.5871,1.6943,1.8022,0.0,1.9459,1.9524,1.9549,0.0,2.0068,2.0085,2.0214,2.0344,2.0426,2.0377,2.0344,2.0426,2.0377,2.032,2.032,2.032,2.032,2.032,2.032,2.032,2.032,2.032,2.032,2.032,2.032,2.032,2.032,2.0247,2.0125,1.9946,1.8453,1.7622,1.755,1.4279,1.2055,1.0809,0.79,0.5668,0.4157,0.4157,0.4157,0.4157,0.3625,0.3412,0.3412,0.3412,0.3412,0.3306,0.2344,0.213,0.213,0.0213,-0.0107,0.0,-0.2379,-0.2718,-0.2401,-0.3839,-0.4384,-0.437,-0.4043,-0.4018,-0.3889,-0.3269,-0.4029,-0.4996,-0.4802,-0.5685,-0.6678,-0.6821,-0.6497,-0.5951,-0.4976,-0.4769,-0.5229,-0.6575,-0.693,-0.6836,-0.65,-0.6169,-0.6281,-0.7063,-0.6951,-0.7063,-0.7849,-0.7964,-0.7964,-0.7964,-0.7964,-0.7964,-0.7964,-0.7964,-0.8293,-0.8967,-0.8967,-0.9306,-0.9973,-0.9746,-0.9634,-0.9634,-0.9195,-0.9191,-0.9523,-0.9862,-1.0197,-1.0416,-1.0639,-1.0751,0.0,0.0,1.7291,1.8688,1.9102,1.9264,0.0,0.0,2.0101,0.0,2.0328,2.0377,2.0328,2.032,2.032,2.032,2.032,2.032,2.032,2.032,2.032,2.032,2.0424,2.0529,2.0529,2.0674,2.0787,2.0737,2.0778,2.0553,1.9831,1.9823,1.9329,1.8336,1.628,1.5045,1.4734,1.1526,0.8545,0.5761,0.4614,0.3862,0.3412,0.3412,0.3412,0.3412,0.3412,0.3412,0.3412,0.2985,0.2767,0.2549,0.0955,0.0318,0.0212,-0.159,-0.191,-0.17,-0.419,-0.4638,-0.4535,-0.6214,-0.7328,-0.7767,-0.7233,-0.7207,-0.7399,-0.6808,-0.6779,-0.6965,-0.6787,-0.7131,-0.7359,-0.7278,-0.7085,-0.6882,-0.7104,-0.7098,-0.7209,-0.7611,-0.7625,-0.7398,-0.6836,-0.6724,-0.6948,-0.7398,-0.7398,-0.7625,-0.8067,-0.8067,-0.8067,-0.8067,-0.8067,-0.8067,-0.8067,-0.8067,-0.8517,-0.9418,-0.9411,-0.9862,-1.0751,-1.0751,-1.0751,-1.0751,-0.9862,-0.9634,-1.0077,-1.0528,-1.0978,-1.142,-1.0978,-1.0751,0.0,1.4684,0.0,1.7299,1.7989,0.0,0.0,0.0,2.0068,2.0076,2.0353,2.0531,2.0353,2.032,2.032,2.032,2.032,2.032,2.032,2.032,2.032,2.032,2.0841,2.1154,2.1154,2.1838,2.2083,2.189,2.2056,2.115,1.8712,1.8594,1.7064,1.3632,1.3532,1.2964,1.1815,0.9082,0.6083,0.2806,0.3213,0.3414,0.3412,0.3412,0.3412,0.3412,0.3412,0.3412,0.3306,0.1704,0.106,0.0842,-0.0841,-0.115,-0.0935,-0.325,-0.368,-0.3477,-0.59,-0.6692,-0.6703,-0.6323,-0.6891,-0.7776,-0.7283,-0.7855,-0.8641,-0.8147,-0.7564,-0.6966,-0.6416,-0.6306,-0.6184,-0.5591,-0.5979,-0.6605,-0.7055,-0.7125,-0.6993,-0.6493,-0.6393,-0.6169,-0.5607,-0.5495,-0.6057,-0.7843,-0.8067,-0.8629,-1.0412,-1.0639,-1.0639,-1.0639,-1.0639,-1.0639,-1.0639,-1.0639,-1.0639,-1.0751,-1.0751,-1.0751,-1.0751,-1.0751,-1.0751,-1.0751,-1.0751,-1.0751,-1.0751,-1.0751,-1.0862,-1.0867,-1.0862,-1.0751,0.0,0.0,0.0,1.6544,1.7486,1.8152,1.8704,1.9378,1.9955,2.0182,2.0247,2.0304,2.0466,2.0588,2.0588,2.0353,2.0418,2.0563,2.0858,2.0841,2.1049,2.1353,2.1673,2.1864,2.1864,2.2135,2.1609,2.0167,2.0006,1.8551,1.5493,1.5382,1.4418,1.2385,1.0643,0.8453,0.5818,0.5554,0.4505,0.2571,0.3543,0.3751,0.3412,0.3837,0.3944,0.3944,0.277,0.213,0.1811,0.1491,0.053,-0.0841,-0.2627,-0.3135,-0.3217,-0.555,-0.6384,-0.6687,-0.7705,-0.8275,-0.8469,-0.7939,-0.8085,-0.8419,-0.8223,-0.8265,-0.8313,-0.7713,-0.7713,-0.7708,-0.7076,-0.7365,-0.7852,-0.7608,-0.778,-0.8067,-0.8293,-0.7713,-0.737,-0.7955,-0.8076,-0.7961,-0.7737,-0.7737,-0.7961,-0.8629,-0.8629,-0.8967,-0.9523,-0.9973,-1.0197,-1.0197,-1.0528,-1.0751,-1.0751,-1.2196,-1.2409,-1.0867,-1.3626,-1.3965,-1.0867,-1.22,-1.3076,-1.3076,-1.3076,-1.2298,-1.0751,-1.0751,-1.0751,-1.0751,-1.0751,-1.0639,1.3197,0.0,0.0,0.0,0.0,1.7104,1.8127,0.0,1.9535,2.0299,2.0501,2.0517,2.0908,2.1133,2.1199,2.0682,2.074,2.0966,2.1293,2.1423,2.1544,2.1898,2.1534,2.1331,2.1331,2.0855,1.9824,1.7791,1.7636,1.6077,1.2616,1.24,1.1643,0.9928,0.7426,0.5215,0.3196,0.3751,0.3644,0.2878,0.3871,0.3762,0.2557,0.3205,0.2991,0.2237,0.1068,0.0747,0.1064,0.0106,-0.1373,-0.3254,-0.4922,-0.5627,-0.6021,-0.7561,-0.8287,-0.8365,-0.8693,-0.8936,-0.9103,-0.8373,-0.8538,-0.8773,-0.8342,-0.8281,-0.8348,-0.7946,-0.8517,-0.9195,-0.8794,-0.9739,-1.0657,-1.0916,-1.0813,-1.0698,-1.0698,-0.9167,-0.7961,-0.8629,-0.8741,-0.8629,-0.8405,-0.8405,-0.8517,-0.8629,-0.9407,-0.9973,-1.0189,-1.1193,-1.1973,-1.1973,-1.2525,-1.2864,-1.2864,-1.4409,-1.4841,-1.3303,-1.6059,-1.6384,-1.3303,-1.462,-1.5506,-1.5506,-1.5506,-1.4631,-1.2864,-1.3076,-1.3187,-1.3187,-1.2965,-1.2525,0.0,0.0,0.0,0.0,0.0,0.0,1.7559,0.0,1.8666,2.0359,2.0864,2.1147,2.1628,2.2003,2.1978,2.137,2.1249,2.1302,2.1731,2.1862,2.1906,2.1722,2.0406,1.9462,1.9454,1.8023,1.6617,1.5323,1.5337,1.3798,1.0196,0.9972,0.8671,0.578,0.4243,0.373,0.426,0.373,0.3412,0.3306,0.3977,0.3115,0.0852,0.1396,0.0429,-0.1704,-0.1933,-0.0643,0.117,-0.2637,-0.494,-0.6188,-0.7698,-0.8711,-0.9243,-0.9296,-0.8995,-0.8443,-0.8664,-0.88,-0.8536,-0.7414,-0.7916,-0.8741,-0.764,-0.8132,-0.9195,-0.9195,-1.0412,-1.1746,-1.1634,-1.295,-1.442,-1.5106,-1.462,-1.3998,-1.3998,-1.1453,-0.8957,-0.8405,-0.8293,-0.8067,-0.7505,-0.7398,-0.7625,-0.8188,-1.0189,-1.1857,-1.2525,-1.4631,-1.6077,-1.6077,-1.6514,-1.6839,-1.6839,-1.7502,-1.7826,-1.7716,-1.7826,-1.7936,-1.7716,-1.7826,-1.7826,-1.7826,-1.7826,-1.7599,-1.7067,-1.7612,-1.7826,-1.7716,-1.7164,-1.6624,1.1996,0.0,0.0,0.0,0.0,0.0,0.0,0.0,1.7394,1.9274,1.9606,2.0013,2.1427,2.1669,2.1727,2.1878,2.1915,2.2082,2.2262,2.2482,2.2113,2.078,2.0408,1.9586,1.7887,1.6631,1.5159,0.0,1.2199,1.033,0.7304,0.6727,0.5726,0.4102,0.4031,0.4143,0.4224,0.4462,0.3835,0.213,0.2776,0.1708,-0.0958,-0.1173,-0.1593,-0.2317,-0.4458,-0.4773,-0.3793,-0.5109,-0.6899,-0.8922,-0.9009,-0.9069,-0.9132,-0.8818,-0.8878,-0.9042,-0.879,-0.9087,-0.9353,-0.8658,-0.9802,-1.1483,-1.115,-1.2549,-1.4092,-1.3634,-1.3863,-1.4178,-1.3642,-1.3954,-1.4403,-1.4547,-1.4321,-1.3998,-1.3998,-1.319,-1.2386,-1.2292,-1.2354,-1.2291,-1.2176,-1.2237,-1.2399,-1.2511,-1.3177,-1.3616,-1.3727,-1.473,-1.5413,-1.5413,-1.596,-1.6286,-1.6286,-1.8053,-1.8398,-1.6631,-1.9713,-2.0145,-1.6741,-1.8171,-1.9272,-1.9705,-1.9272,-2.005,-2.2025,-1.8722,-1.695,-1.6514,-1.596,-1.6514,0.0,0.0,0.0,0.0,0.0,0.0,1.5207,1.6129,1.7312,1.9863,2.0325,2.0712,2.193,2.1252,2.0745,2.0959,2.0375,2.0155,2.1171,2.1473,2.0839,1.8906,1.8031,1.711,1.5701,1.3702,1.1992,1.0347,0.9154,0.7536,0.5396,0.514,0.4784,0.4125,0.4464,0.4784,0.4973,0.413,0.3078,0.1704,0.1384,-0.0426,-0.3512,-0.3522,-0.4155,-0.5516,-0.7488,-0.8138,-0.7793,-0.8223,-0.8925,-0.9827,-0.9545,-0.9526,-0.9608,-0.9125,-0.9186,-0.9651,-1.0152,-1.0546,-1.1001,-1.1398,-1.2525,-1.3626,-1.3288,-1.4235,-1.5289,-1.4948,-1.5618,-1.6497,-1.7067,-1.7274,-1.7274,-1.7274,-1.695,-1.6641,-1.6641,-1.636,-1.5696,-1.4133,-1.3874,-1.3939,-1.3987,-1.4057,-1.4222,-1.4265,-1.5168,-1.5721,-1.5721,-1.695,-1.784,-1.784,-1.8281,-1.8715,-1.8715,-2.0168,-2.049,-1.9155,-2.1587,-2.1916,-1.9155,-2.0372,-2.1266,-2.1587,-2.1266,-2.1823,-2.3246,-2.0694,-1.9155,-1.8715,-1.8281,-1.8722,0.0,0.0,0.0,0.0,0.0,0.0,1.5261,1.5998,1.7053,2.0138,2.0827,2.1138,2.1609,2.0107,1.876,1.8721,1.7319,1.6999,1.8812,1.9415,1.8735,1.6429,1.4509,1.3257,1.2828,1.0017,0.7974,0.7453,0.6543,0.55,0.4425,0.4702,0.4886,0.478,0.4568,0.4778,0.5305,0.2951,0.1478,0.1064,-0.0319,-0.2872,-0.6286,-0.579,-0.6985,-0.9568,-1.0304,-1.0557,-1.0565,-1.1317,-1.0887,-0.9614,-0.9897,-1.0259,-1.0624,-1.0424,-1.0353,-1.0534,-1.2279,-1.2835,-1.299,-1.4658,-1.5325,-1.5313,-1.4747,-1.473,-1.4941,-1.4819,-1.6366,-1.8473,-2.0584,-2.1132,-2.1132,-2.1132,-2.0568,-2.0124,-2.0124,-1.9861,-1.8598,-1.4961,-1.4338,-1.4485,-1.4724,-1.4753,-1.481,-1.504,-1.682,-1.815,-1.815,-2.005,-2.1384,-2.1384,-2.1932,-2.2143,-2.2143,-2.269,-2.29,-2.29,-2.29,-2.29,-2.29,-2.29,-2.3018,-2.3246,-2.3337,-2.3137,-2.2581,-2.2808,-2.269,-2.2143,-2.2143,-2.1941,0.0,0.0,0.0,0.0,0.0,0.0,0.9873,1.0159,1.0921,1.3,1.3352,1.3707,1.516,1.4952,1.4557,1.4562,1.4758,1.5359,1.6593,1.6956,1.6216,1.3889,1.269,1.1264,0.935,0.7475,0.6338,0.6278,0.6083,0.5681,0.5073,0.4222,0.3333,0.2501,0.1563,0.1142,0.1237,0.1149,-0.0106,-0.2447,-0.2766,-0.4698,-0.8171,-0.8876,-0.9455,-0.9924,-1.0653,-1.0691,-1.0273,-1.197,-1.1919,-1.1077,-1.2497,-1.2995,-1.2857,-1.3806,-1.4195,-1.4165,-1.4306,-1.4231,-1.422,-1.4774,-1.5754,-1.6789,-1.6677,-1.7491,-1.8494,-1.8477,-1.8762,-1.9206,-1.9642,-1.9758,-1.9758,-1.9758,-1.9521,-1.93,-1.93,-1.9143,-1.8796,-1.8074,-1.8613,-1.9303,-1.957,-1.9607,-1.9751,-2.0027,-2.0372,-2.0717,-2.0717,-2.1148,-2.1384,-2.1384,-2.1502,-2.1612,-2.1612,-2.1705,-2.1705,-2.1705,-2.1705,-2.1705,-2.1705,-2.1705,-2.2371,-2.3783,-2.4773,-2.4991,-2.4337,-2.2581,-2.1705,-2.1612,-2.1612,-2.205,0.0,0.0,0.0,0.7917,0.0,0.0,0.0,0.9629,1.0251,1.1967,1.2289,1.2548,1.3322,1.2357,1.1435,1.1417,1.0767,1.0456,1.0875,1.2606,1.2946,1.0462,0.9576,0.8705,0.7417,0.6195,0.5439,0.5463,0.496,0.4444,0.3915,0.2831,0.177,0.0933,0.0933,0.0622,0.0104,-0.0729,-0.221,-0.4387,-0.5413,-0.7134,-0.9487,-0.9724,-1.053,-1.18,-1.1958,-1.2331,-1.2915,-1.383,-1.3707,-1.3165,-1.4206,-1.4447,-1.436,-1.4831,-1.5292,-1.57,-1.6325,-1.6569,-1.667,-1.7517,-1.8356,-1.8957,-1.8538,-1.8911,-1.961,-1.9536,-1.9439,-1.9401,-1.9476,-1.9439,-1.9401,-1.9476,-1.9228,-1.8929,-1.8849,-1.9133,-1.944,-1.944,-2.0547,-2.1289,-2.061,-2.0284,-2.0434,-2.1226,-2.1172,-2.1063,-2.1384,-2.1384,-2.1384,-2.1384,-2.1932,-2.2261,-2.2261,-2.2808,-2.3137,-2.3137,-2.3137,-2.3137,-2.3137,-2.3137,-2.3574,-2.4446,-2.4991,-2.5208,-2.4882,-2.3692,-2.3137,-2.3137,-2.3137,-2.3455,0.0,0.0,0.0,0.0,0.0,0.7473,0.0,0.0,0.0,0.0,0.0,0.0,0.0,0.0,0.0,0.0,0.0,0.0,0.0,0.7933,0.0,0.7279,0.6662,0.6322,0.6217,0.5066,0.4409,0.4663,0.3409,0.2579,0.2274,0.0935,-0.0104,-0.0517,-0.0103,-0.0311,-0.1465,-0.302,-0.4415,-0.5706,-0.7323,-0.9035,-1.0586,-1.0158,-1.1432,-1.3984,-1.3444,-1.4062,-1.5386,-1.5794,-1.5766,-1.5468,-1.5771,-1.5789,-1.582,-1.6122,-1.6531,-1.725,-1.8768,-1.909,-1.9227,-2.0484,-2.0713,-2.0286,-1.9464,-1.9309,-1.9287,-1.9272,-1.9272,-1.9409,-1.955,-1.9702,-1.9743,-1.9879,-1.9595,-1.9104,-1.9082,-1.9599,-2.0153,-2.0261,-2.1218,-2.1797,-2.0773,-2.0153,-2.0263,-2.1546,-2.1274,-2.1156,-2.1705,-2.1705,-2.1814,-2.1932,-2.2699,-2.3364,-2.3455,-2.4337,-2.4882,-2.4882,-2.4882,-2.4882,-2.4882,-2.5525,-2.6058,-2.6481,-2.6806,-2.6914,-2.6914,-2.6914,-2.6166,-2.4882,-2.4882,-2.4991,0.0,0.0,0.0,0.0,0.4379,0.0,0.0,0.0,0.0,0.0,0.0,0.0,0.0,0.0,0.0,0.0,0.0,0.0,0.4038,0.4507,0.5193,0.5848,0.5306,0.4853,0.4638,0.3029,0.2456,0.351,0.1584,0.0588,0.1124,-0.1322,-0.2744,-0.2864,-0.4708,-0.5964,-0.664,-0.5956,-0.6248,-0.7548,-0.7159,-0.8683,-1.1857,-1.1667,-1.2909,-1.5259,-1.4714,-1.4746,-1.5184,-1.669,-1.7337,-1.7565,-1.7909,-1.8108,-1.8332,-2.0335,-2.1257,-2.152,-2.1923,-2.1422,-2.0727,-2.1175,-2.0335,-1.9054,-1.835,-1.8088,-1.8053,-1.793,-1.8639,-1.9386,-1.9401,-2.0264,-2.1008,-2.1032,-2.0923,-2.0923,-2.0899,-2.0983,-2.1083,-2.1083,-2.1175,-2.1599,-2.2389,-2.2497,-2.2566,-2.2883,-2.2808,-2.2808,-2.29,-2.29,-2.3128,-2.3683,-2.3783,-2.4119,-2.4664,-2.4773,-2.4882,-2.4882,-2.4882,-2.4882,-2.4882,-2.7757,-3.0419,-3.2418,-3.3383,-3.3925,-3.3925,-3.3925,-3.0846,-2.4882,-2.4882,-2.5426,0.0,0.0,0.0,0.0,0.0,0.0,0.3881,0.0,0.3658,0.0,0.0,0.0,0.0,0.0,0.0,0.0,0.3019,0.0,0.0,0.0,0.2617,0.0,0.0,0.0,0.2729,0.2327,0.2312,0.3127,0.0292,-0.1261,-0.0506,-0.3166,-0.47,-0.4667,-0.564,-0.6611,-0.746,-0.6799,-0.7734,-1.0235,-0.993,-1.1152,-1.3609,-1.3546,-1.4602,-1.656,-1.644,-1.715,-1.846,-1.9148,-1.9584,-1.9796,-2.0045,-2.0244,-2.0446,-2.179,-2.1928,-2.1492,-2.1682,-2.1222,-2.0448,-2.008,-1.9692,-1.9272,-1.8985,-1.9405,-1.9933,-1.9872,-2.0108,-2.0489,-2.0591,-2.1824,-2.2838,-2.1565,-2.2335,-2.3233,-2.2894,-2.3384,-2.4199,-2.542,-2.6136,-2.6724,-2.7398,-2.5506,-2.4551,-2.6551,-2.6673,-2.6755,-2.7089,-2.7089,-2.7197,-2.7413,-2.807,-2.8608,-2.8834,-2.9489,-2.9918,-2.9918,-2.9929,-2.9929,-2.9918,-3.1296,-3.2467,-3.3434,-3.395,-3.4162,-3.4162,-3.4162,-3.2605,-2.9607,-3.0467,-3.0976,0.3371,0.0,0.0,0.0,0.0,0.0,0.0,0.0,0.0,0.0,0.0,0.0,0.0,0.0,0.0,0.0,0.0,0.1165,0.0,0.0,0.0,0.0,0.0,0.0,0.0,0.0623,0.0824,0.156,-0.1895,-0.3618,-0.2818,-0.5021,-0.6267,-0.6182,-0.6871,-0.7657,-0.8625,-0.8786,-1.0147,-1.2651,-1.2282,-1.3316,-1.5236,-1.5242,-1.6346,-1.8222,-1.8431,-1.93,-2.0714,-2.1086,-2.1324,-2.1388,-2.2489,-2.299,-2.3104,-2.2383,-2.2188,-2.2398,-2.2414,-2.2122,-2.1751,-2.0913,-2.0883,-2.1103,-2.1103,-2.216,-2.3311,-2.3311,-2.343,-2.3674,-2.3711,-2.5135,-2.6122,-2.458,-2.5467,-2.6556,-2.6221,-2.6754,-2.7723,-2.9192,-3.0042,-3.0775,-3.1516,-2.87,-2.708,-2.958,-2.9846,-2.9888,-3.0395,-3.0514,-3.0514,-3.0727,-3.1497,-3.2042,-3.2148,-3.3023,-3.3447,-3.3553,-3.3659,-3.3976,-3.4386,-3.4597,-3.4821,-3.5361,-3.5267,-3.5213,-3.5213,-3.5213,-3.5119,-3.4814,-3.4583,-3.4307,0.0,0.0,0.0,0.3291,0.0,0.0,0.0,0.0,0.3049,0.0,0.0,0.0,0.0,0.0,0.0,0.0,0.0,0.0,0.0,0.0,0.0,0.0,0.0,0.0,0.0,-0.2706,-0.3529,-0.2423,-0.5473,-0.6838,-0.5623,-0.6721,-0.7368,-0.7365,-0.9393,-1.0808,-1.1417,-1.3083,-1.3983,-1.4107,-1.3381,-1.4136,-1.6315,-1.6531,-1.7804,-2.014,-2.0682,-2.0682,-2.0465,-2.1732,-2.2024,-2.2055,-2.5367,-2.6794,-2.645,-2.2457,-2.3127,-2.5741,-2.5339,-2.5551,-2.5947,-2.5184,-2.488,-2.488,-2.488,-2.6355,-2.8006,-2.8006,-2.8864,-2.9743,-2.9754,-3.0621,-3.1485,-3.1391,-3.1391,-3.1485,-3.1473,-3.127,-3.1078,-3.1078,-3.0978,-3.1346,-3.3245,-3.189,-3.0698,-3.1066,-3.1102,-3.1315,-3.1568,-3.1604,-3.1817,-3.2479,-3.2586,-3.281,-3.3366,-3.3472,-3.346,-3.3553,-3.3963,-3.5018,-3.6593,-3.7235,-3.8292,-3.9981,-3.9662,-3.9495,-3.9495,-3.9495,-3.9495,-3.9377,-3.5022,-3.2913,0.0,0.0,-0.0085,0.1496,0.0,0.0,0.0,0.0,0.0,0.0,0.0,0.0,0.0,0.0,0.0,0.0,0.0,0.0,0.0,0.0,0.0,0.0,0.0,0.0,0.0,0.0,-0.3915,-0.3108,-0.5807,-0.6948,-0.5787,-0.6777,-0.7921,-0.8887,-1.0061,-1.1423,-1.3059,-1.3112,-1.3839,-1.5234,-1.525,-1.6288,-1.8273,-1.9561,-2.041,-2.0807,-2.1774,-2.2022,-2.1912,-2.4014,-2.4782,-2.4976,-2.7958,-2.888,-2.8441,-2.7842,-2.777,-2.794,-2.7435,-2.7383,-2.7482,-2.729,-2.7702,-2.836,-2.836,-2.9393,-3.0502,-3.0502,-3.0834,-3.1166,-3.1166,-3.2561,-3.3527,-3.203,-3.2879,-3.3899,-3.3705,-3.3484,-3.3889,-3.5164,-3.5349,-3.5457,-3.6187,-3.5735,-3.5321,-3.5418,-3.561,-3.5844,-3.6147,-3.6188,-3.6293,-3.6516,-3.6516,-3.6621,-3.674,-3.6845,-3.6845,-3.6845,-3.7353,-3.7979,-3.85,-3.8722,-3.9033,-3.967,-3.9151,-3.8885,-3.8885,-3.8885,-3.8781,-3.8574,-3.712,-3.6739,-0.248,-0.2275,0.0,-0.0327,0.0081,0.0,0.1055,0.0,0.0,0.0,0.0,0.0,0.0,0.0,0.0,0.0,0.0,0.0,0.0,-0.6366,0.0,0.0,0.0,0.0,0.0,0.0,-0.5715,-0.4802,-0.7016,-0.8101,0.0,-0.8157,-0.9392,-1.1167,-1.2216,-1.336,-1.48,-1.508,-1.5924,-1.7432,-1.7643,-1.8416,-1.9885,-2.114,-2.1616,-2.1449,-2.3269,-2.375,-2.3511,-2.6413,-2.76,-2.7739,-3.0809,-3.1785,-3.1365,-3.079,-3.0682,-3.094,-3.1795,-3.1474,-3.0726,-3.0726,-3.1273,-3.1938,-3.1938,-3.2942,-3.4136,-3.4045,-3.4084,-3.4136,-3.4045,-3.5149,-3.5978,-3.4478,-3.5229,-3.6238,-3.6045,-3.592,-3.6209,-3.7578,-3.7665,-3.7578,-3.7578,-3.7578,-3.7622,-3.7739,-3.7929,-3.8178,-3.85,-3.8543,-3.8543,-3.8543,-3.8543,-3.8647,-3.8841,-3.8841,-3.8945,-3.9063,-3.936,-3.9479,-3.9359,-3.9464,-3.9375,-3.9048,-3.8634,-3.8368,-3.8368,-3.8368,-3.8265,-3.8075,-3.8178,-3.8634]},{"header":{"parameterUnit":"m.s-1","parameterCategory":1,"la1":30.6,"la2":29.2853,"lo1":-89.7004,"lo2":-87.6739,"dx":0.0162,"dy":0.0183,"nx":112,"ny":82,"refTime":"2023-01-16T18:00:00:Z","depth":0,"parameterNumber":3,"parameterNumberName":"V-component_of_WINDS"},"data":[0.0,0.0,0.0,0.0,0.0,0.0,0.0,0.0,0.0,0.0,0.0,0.0,0.0,0.0,0.0,0.0,0.0,0.0,0.0,0.0,0.0,0.0,0.0,0.0,0.0,0.0,0.0,0.0,0.0,0.0,0.0,0.0,0.0,0.0,0.0,0.0,0.0,0.0,0.0,0.0,0.0,0.0,0.0,0.0,0.0,0.0,0.0,0.0,0.0,0.0,0.0,0.0,0.0,0.0,0.0,0.0,0.0,0.0,0.0,0.0,0.0,0.0,0.0,0.0,0.0,0.0,0.0,0.0,0.0,0.0,0.0,0.0,0.0,0.0,0.0,0.0,0.0,0.0,0.0,0.0,0.0,0.0,0.0,0.0,0.0,0.0,0.0,0.0,0.0,0.0,0.0,5.3828,5.2936,5.2634,5.3387,5.3744,5.3993,5.4143,0.0,0.0,0.0,0.0,0.0,0.0,0.0,0.0,0.0,0.0,0.0,0.0,0.0,0.0,0.0,0.0,0.0,0.0,0.0,0.0,0.0,0.0,0.0,0.0,0.0,0.0,0.0,0.0,0.0,0.0,0.0,0.0,0.0,0.0,0.0,0.0,0.0,0.0,0.0,0.0,0.0,0.0,0.0,0.0,0.0,0.0,0.0,0.0,0.0,0.0,0.0,0.0,0.0,0.0,0.0,0.0,0.0,0.0,0.0,0.0,0.0,0.0,0.0,0.0,0.0,0.0,0.0,0.0,0.0,0.0,0.0,0.0,0.0,0.0,0.0,0.0,0.0,0.0,0.0,0.0,0.0,0.0,0.0,0.0,0.0,0.0,0.0,0.0,0.0,0.0,0.0,0.0,0.0,0.0,0.0,0.0,0.0,0.0,0.0,0.0,0.0,0.0,0.0,0.0,5.5384,5.4437,5.4119,5.3641,5.2812,5.382,5.4161,5.349,0.0,0.0,0.0,0.0,0.0,0.0,0.0,0.0,0.0,0.0,0.0,0.0,0.0,0.0,0.0,0.0,0.0,0.0,0.0,0.0,0.0,0.0,0.0,0.0,0.0,0.0,0.0,0.0,0.0,0.0,0.0,0.0,0.0,0.0,0.0,0.0,0.0,0.0,0.0,0.0,0.0,0.0,0.0,0.0,0.0,0.0,0.0,0.0,0.0,0.0,0.0,0.0,0.0,0.0,0.0,0.0,0.0,0.0,0.0,0.0,0.0,0.0,0.0,0.0,0.0,0.0,0.0,0.0,0.0,0.0,0.0,0.0,0.0,0.0,0.0,0.0,0.0,0.0,0.0,0.0,0.0,0.0,0.0,0.0,0.0,0.0,0.0,0.0,0.0,0.0,0.0,0.0,0.0,0.0,0.0,0.0,0.0,0.0,0.0,0.0,0.0,0.0,0.0,5.6056,5.6487,5.6329,5.5942,5.5729,5.5786,5.5588,5.5577,5.5816,5.5297,0.0,0.0,0.0,0.0,0.0,0.0,0.0,0.0,0.0,0.0,0.0,0.0,0.0,0.0,0.0,0.0,0.0,0.0,0.0,0.0,0.0,0.0,0.0,0.0,0.0,0.0,0.0,0.0,0.0,0.0,0.0,0.0,0.0,0.0,0.0,0.0,0.0,0.0,0.0,0.0,0.0,0.0,0.0,0.0,0.0,0.0,0.0,0.0,0.0,0.0,0.0,0.0,0.0,0.0,0.0,0.0,0.0,0.0,0.0,0.0,0.0,0.0,0.0,0.0,0.0,0.0,0.0,0.0,0.0,0.0,0.0,0.0,0.0,0.0,0.0,0.0,0.0,0.0,0.0,0.0,0.0,0.0,0.0,0.0,0.0,0.0,0.0,0.0,0.0,0.0,0.0,0.0,0.0,0.0,0.0,0.0,0.0,0.0,0.0,0.0,0.0,0.0,5.7188,5.7512,5.7872,5.7504,5.7535,5.8188,5.7327,5.7033,5.7684,5.6635,0.0,0.0,0.0,0.0,0.0,0.0,0.0,0.0,0.0,0.0,0.0,0.0,0.0,0.0,0.0,0.0,0.0,0.0,0.0,0.0,0.0,0.0,0.0,0.0,0.0,0.0,0.0,0.0,0.0,0.0,0.0,0.0,0.0,0.0,0.0,0.0,0.0,0.0,0.0,0.0,0.0,0.0,0.0,0.0,0.0,0.0,0.0,0.0,0.0,0.0,0.0,0.0,0.0,0.0,0.0,0.0,0.0,0.0,0.0,0.0,0.0,0.0,0.0,0.0,0.0,0.0,0.0,0.0,0.0,0.0,0.0,0.0,0.0,0.0,0.0,0.0,0.0,0.0,0.0,0.0,0.0,0.0,0.0,0.0,0.0,0.0,0.0,0.0,0.0,0.0,0.0,0.0,0.0,0.0,0.0,0.0,0.0,0.0,0.0,0.0,0.0,0.0,5.7771,5.8231,5.8273,5.8237,5.8036,5.7583,5.8061,5.7925,5.6939,5.7469,0.0,0.0,0.0,0.0,0.0,0.0,0.0,0.0,0.0,0.0,0.0,0.0,0.0,0.0,0.0,0.0,0.0,0.0,0.0,0.0,0.0,0.0,0.0,0.0,0.0,0.0,0.0,0.0,0.0,0.0,0.0,0.0,0.0,0.0,0.0,0.0,0.0,0.0,0.0,0.0,0.0,0.0,0.0,0.0,0.0,0.0,0.0,0.0,0.0,0.0,0.0,0.0,0.0,0.0,0.0,0.0,0.0,0.0,0.0,0.0,0.0,0.0,0.0,0.0,0.0,0.0,0.0,0.0,0.0,0.0,0.0,0.0,0.0,0.0,0.0,0.0,0.0,0.0,0.0,0.0,0.0,0.0,0.0,0.0,0.0,0.0,0.0,0.0,0.0,0.0,0.0,0.0,0.0,0.0,0.0,0.0,0.0,0.0,0.0,0.0,0.0,0.0,5.8893,5.949,0.0,6.0129,5.9971,6.0273,5.9727,5.8959,5.8057,0.0,0.0,0.0,0.0,0.0,0.0,0.0,0.0,0.0,0.0,0.0,0.0,0.0,0.0,0.0,0.0,0.0,0.0,0.0,0.0,0.0,0.0,0.0,0.0,0.0,0.0,0.0,0.0,0.0,0.0,0.0,0.0,0.0,0.0,0.0,0.0,0.0,0.0,0.0,0.0,0.0,0.0,0.0,0.0,0.0,0.0,0.0,0.0,0.0,0.0,0.0,0.0,0.0,0.0,0.0,0.0,0.0,0.0,0.0,0.0,0.0,0.0,0.0,0.0,0.0,0.0,0.0,0.0,0.0,0.0,0.0,0.0,0.0,0.0,0.0,0.0,0.0,0.0,0.0,0.0,0.0,0.0,0.0,0.0,0.0,0.0,0.0,0.0,0.0,0.0,0.0,0.0,0.0,0.0,0.0,0.0,0.0,0.0,0.0,0.0,0.0,0.0,6.0208,6.0665,6.1478,0.0,6.2541,6.2322,6.2857,6.2295,6.1354,6.0003,0.0,0.0,0.0,0.0,0.0,0.0,0.0,0.0,0.0,0.0,0.0,0.0,0.0,0.0,0.0,0.0,0.0,0.0,0.0,0.0,0.0,0.0,0.0,0.0,0.0,0.0,0.0,0.0,0.0,0.0,0.0,0.0,0.0,0.0,0.0,0.0,0.0,0.0,0.0,0.0,0.0,0.0,0.0,0.0,0.0,0.0,0.0,0.0,0.0,0.0,0.0,0.0,0.0,0.0,0.0,0.0,0.0,0.0,0.0,0.0,0.0,0.0,0.0,0.0,0.0,0.0,0.0,0.0,0.0,0.0,0.0,0.0,0.0,0.0,0.0,0.0,0.0,0.0,0.0,0.0,0.0,0.0,0.0,0.0,0.0,0.0,0.0,0.0,0.0,0.0,0.0,0.0,0.0,0.0,0.0,0.0,0.0,0.0,0.0,0.0,0.0,0.0,6.2325,6.3071,6.4174,6.6095,6.55,6.4911,6.4911,6.5746,6.5202,0.0,0.0,0.0,0.0,0.0,0.0,0.0,0.0,0.0,0.0,0.0,0.0,0.0,0.0,0.0,0.0,0.0,0.0,0.0,0.0,0.0,0.0,0.0,0.0,0.0,0.0,0.0,0.0,0.0,0.0,0.0,0.0,0.0,0.0,0.0,0.0,0.0,0.0,0.0,0.0,0.0,0.0,0.0,0.0,0.0,0.0,0.0,0.0,0.0,0.0,0.0,0.0,0.0,0.0,0.0,0.0,0.0,0.0,0.0,0.0,0.0,0.0,0.0,0.0,0.0,0.0,0.0,0.0,0.0,0.0,0.0,0.0,0.0,0.0,0.0,0.0,0.0,0.0,0.0,0.0,0.0,0.0,0.0,0.0,0.0,0.0,0.0,0.0,0.0,0.0,0.0,0.0,0.0,0.0,0.0,0.0,0.0,0.0,0.0,0.0,0.0,0.0,0.0,6.4226,6.4992,6.5889,6.7024,6.6382,6.6038,6.6518,6.6392,6.5387,6.3255,0.0,0.0,0.0,0.0,0.0,0.0,0.0,0.0,0.0,0.0,0.0,0.0,0.0,0.0,0.0,0.0,0.0,0.0,0.0,0.0,0.0,0.0,0.0,0.0,0.0,0.0,0.0,0.0,0.0,0.0,0.0,0.0,0.0,0.0,0.0,0.0,0.0,0.0,0.0,0.0,0.0,0.0,0.0,0.0,0.0,0.0,0.0,0.0,0.0,0.0,0.0,0.0,0.0,0.0,0.0,0.0,0.0,0.0,0.0,0.0,0.0,0.0,0.0,0.0,0.0,0.0,0.0,0.0,0.0,0.0,0.0,0.0,0.0,0.0,0.0,0.0,0.0,0.0,0.0,0.0,0.0,0.0,0.0,0.0,0.0,0.0,0.0,0.0,0.0,0.0,0.0,0.0,0.0,0.0,0.0,0.0,0.0,0.0,0.0,0.0,0.0,0.0,6.7023,6.7451,6.8247,6.9877,6.9305,6.8886,6.916,6.8962,6.7959,6.6061,0.0,0.0,0.0,0.0,0.0,0.0,0.0,0.0,0.0,0.0,0.0,0.0,0.0,0.0,0.0,0.0,0.0,0.0,0.0,0.0,0.0,0.0,0.0,0.0,0.0,0.0,0.0,0.0,0.0,0.0,0.0,0.0,0.0,0.0,0.0,0.0,0.0,0.0,0.0,0.0,0.0,0.0,0.0,0.0,0.0,0.0,0.0,0.0,0.0,0.0,0.0,0.0,0.0,0.0,0.0,0.0,0.0,0.0,0.0,0.0,0.0,0.0,0.0,0.0,0.0,0.0,0.0,0.0,0.0,0.0,0.0,0.0,0.0,0.0,0.0,0.0,0.0,0.0,0.0,0.0,0.0,0.0,0.0,0.0,0.0,0.0,0.0,0.0,0.0,0.0,0.0,0.0,0.0,0.0,0.0,0.0,0.0,0.0,0.0,0.0,0.0,0.0,7.0268,7.0213,7.0979,7.3602,7.3107,7.2509,7.2377,7.2509,7.186,7.0152,0.0,0.0,0.0,0.0,0.0,0.0,0.0,0.0,0.0,0.0,0.0,0.0,0.0,0.0,0.0,0.0,0.0,0.0,0.0,0.0,0.0,0.0,0.0,0.0,0.0,0.0,0.0,0.0,0.0,0.0,0.0,0.0,0.0,0.0,0.0,0.0,0.0,0.0,0.0,0.0,0.0,0.0,0.0,0.0,0.0,0.0,0.0,0.0,0.0,0.0,0.0,0.0,0.0,0.0,0.0,0.0,0.0,0.0,0.0,0.0,5.2328,0.0,0.0,0.0,0.0,0.0,0.0,0.0,0.0,0.0,0.0,0.0,0.0,0.0,0.0,0.0,0.0,0.0,0.0,0.0,0.0,0.0,0.0,0.0,0.0,0.0,0.0,0.0,0.0,0.0,0.0,0.0,0.0,0.0,0.0,0.0,0.0,0.0,0.0,0.0,0.0,0.0,7.2042,7.2568,7.3116,7.3816,7.3612,7.3441,7.3372,7.3441,7.2942,7.1768,7.0898,0.0,0.0,0.0,0.0,0.0,0.0,0.0,0.0,0.0,0.0,0.0,0.0,0.0,0.0,0.0,0.0,0.0,0.0,0.0,0.0,0.0,0.0,0.0,0.0,0.0,0.0,0.0,0.0,0.0,0.0,0.0,0.0,0.0,0.0,0.0,0.0,0.0,0.0,0.0,0.0,0.0,0.0,0.0,0.0,0.0,0.0,0.0,0.0,0.0,0.0,0.0,0.0,0.0,0.0,0.0,0.0,0.0,0.0,0.0,0.0,5.5713,0.0,0.0,0.0,0.0,0.0,0.0,0.0,0.0,0.0,0.0,0.0,0.0,0.0,0.0,0.0,0.0,0.0,0.0,0.0,0.0,0.0,0.0,0.0,0.0,0.0,0.0,0.0,0.0,0.0,0.0,0.0,0.0,0.0,0.0,0.0,0.0,0.0,0.0,0.0,0.0,7.4319,7.4368,7.4449,7.4875,7.4911,7.488,7.4747,7.4352,7.392,7.3488,7.2564,0.0,0.0,0.0,0.0,0.0,0.0,0.0,0.0,0.0,0.0,0.0,0.0,0.0,0.0,0.0,0.0,0.0,0.0,0.0,0.0,0.0,0.0,0.0,0.0,0.0,0.0,0.0,0.0,0.0,0.0,0.0,0.0,0.0,0.0,0.0,0.0,0.0,0.0,0.0,0.0,0.0,0.0,0.0,0.0,0.0,0.0,0.0,0.0,0.0,0.0,0.0,0.0,0.0,6.4819,6.513,6.5184,6.5707,6.6055,6.6199,6.6073,6.3921,6.0339,5.8977,0.0,0.0,0.0,0.0,0.0,0.0,0.0,0.0,0.0,0.0,0.0,0.0,0.0,0.0,0.0,0.0,0.0,0.0,0.0,0.0,0.0,0.0,0.0,0.0,7.2152,7.2545,6.8231,0.0,0.0,0.0,0.0,0.0,0.0,0.0,0.0,0.0,0.0,0.0,7.6203,7.5564,7.5284,7.5931,7.6142,7.6108,7.5868,7.5256,7.4893,7.5097,7.3998,7.3312,0.0,0.0,0.0,0.0,0.0,0.0,0.0,0.0,0.0,0.0,0.0,0.0,0.0,0.0,0.0,0.0,0.0,0.0,0.0,0.0,0.0,0.0,0.0,0.0,0.0,0.0,0.0,0.0,0.0,0.0,0.0,0.0,5.5036,5.3845,0.0,0.0,0.0,0.0,0.0,0.0,0.0,0.0,0.0,0.0,0.0,0.0,0.0,6.3448,6.4058,6.4561,6.5171,6.5889,6.7876,6.9173,6.989,7.2002,7.3362,7.4008,7.4183,0.0,6.3526,6.0602,0.0,0.0,0.0,0.0,0.0,0.0,0.0,0.0,0.0,0.0,0.0,0.0,0.0,0.0,0.0,0.0,0.0,0.0,0.0,0.0,0.0,0.0,6.5692,7.1549,7.3308,7.348,0.0,7.2119,7.1849,7.1838,7.2059,0.0,0.0,0.0,0.0,0.0,0.0,0.0,7.6203,7.5933,7.5759,7.5969,7.5901,7.5903,7.5971,7.5897,7.5961,7.6333,7.5812,7.5364,7.5083,7.4095,0.0,0.0,0.0,0.0,0.0,0.0,0.0,0.0,0.0,0.0,0.0,0.0,0.0,0.0,0.0,0.0,0.0,0.0,0.0,0.0,0.0,0.0,0.0,0.0,0.0,0.0,0.0,0.0,0.0,5.4182,5.5768,5.4243,5.5602,5.6035,0.0,0.0,0.0,0.0,0.0,0.0,0.0,0.0,0.0,6.3206,6.611,6.7844,6.8203,6.9992,7.1134,7.1629,7.2604,7.325,7.3712,7.4789,7.5437,7.5761,7.6005,7.4121,7.0649,6.7348,6.4944,6.3178,0.0,0.0,0.0,0.0,6.1323,6.1434,6.1434,6.1489,6.1607,6.1607,0.0,0.0,0.0,0.0,0.0,0.0,0.0,0.0,0.0,0.0,6.9233,7.371,7.4824,7.4858,7.4789,7.4536,7.4134,0.0,7.4007,7.4552,7.4278,0.0,0.0,0.0,0.0,7.6367,7.7371,7.6943,7.6765,7.7303,7.741,7.741,7.7375,7.6837,7.6758,7.7235,7.633,7.6081,7.6808,7.5713,7.4982,0.0,0.0,0.0,0.0,0.0,0.0,0.0,0.0,0.0,0.0,0.0,0.0,0.0,0.0,0.0,0.0,0.0,0.0,0.0,0.0,0.0,0.0,0.0,0.0,0.0,0.0,0.0,0.0,5.6082,5.7654,5.5412,5.7815,5.8871,0.0,0.0,0.0,0.0,0.0,0.0,6.1672,6.5394,6.742,6.7141,7.0312,7.1968,7.1933,7.4296,7.5657,7.6051,7.6051,7.6228,7.6547,7.6547,7.6404,7.6189,7.6328,7.6185,7.558,7.2379,6.9649,6.7357,6.6808,6.6593,6.6593,6.687,6.6926,6.6807,6.6807,6.6722,6.6638,6.6638,6.6812,6.7023,6.6867,0.0,0.0,0.0,0.0,6.4252,6.7369,6.9897,7.2384,7.5584,7.6373,7.6445,7.6731,7.6588,7.5977,0.0,7.5458,7.6251,7.5329,0.0,0.0,0.0,0.0,7.7415,7.8025,7.7486,7.7234,7.763,7.7808,7.795,7.806,7.7588,7.7538,7.8201,7.7454,7.7347,7.8228,7.7367,7.7057,7.7392,0.0,0.0,0.0,0.0,0.0,0.0,0.0,0.0,0.0,0.0,0.0,0.0,0.0,0.0,0.0,0.0,0.0,0.0,0.0,0.0,0.0,0.0,0.0,0.0,0.0,0.0,0.0,0.0,0.0,5.9637,6.1795,0.0,0.0,0.0,0.0,6.5412,6.6145,6.5958,6.4837,6.8769,7.0638,6.9653,7.3462,7.5441,7.5263,7.5407,7.5872,7.6661,7.6661,7.7128,7.7991,7.7991,7.7523,7.6661,7.6697,7.6122,7.5012,7.2379,7.1074,7.0548,6.844,6.7636,6.7739,6.8717,6.8439,6.7636,6.7636,6.704,6.6238,6.6238,6.6901,6.7667,6.7636,6.8222,0.0,0.0,6.8394,6.9197,7.2036,7.3002,7.3968,7.6983,7.7846,7.8243,7.918,7.8639,7.7524,0.0,7.6513,7.7087,7.6804,0.0,7.8349,7.8314,7.8171,7.7883,7.734,7.6949,7.6446,7.5729,7.5621,7.6122,7.7158,7.7855,7.8568,7.9361,8.0053,8.0092,7.927,7.9413,7.8775,7.7253,7.7404,0.0,0.0,0.0,0.0,0.0,0.0,0.0,0.0,0.0,0.0,0.0,0.0,0.0,0.0,0.0,0.0,0.0,0.0,0.0,0.0,0.0,0.0,0.0,0.0,0.0,0.0,0.0,0.0,6.4,6.6186,0.0,6.4973,6.4968,6.5714,6.7258,6.9281,7.045,7.0407,7.3644,7.5262,7.4762,7.6122,7.6873,7.6799,7.6946,7.7126,7.7413,7.8061,7.8241,7.7953,7.9251,7.9287,7.8422,7.9216,7.9179,7.8527,7.702,7.5368,7.3618,7.2829,7.2541,7.2577,7.2932,7.3252,7.3466,7.343,7.3608,7.3858,7.3858,7.4003,7.3825,7.1878,7.1483,7.1303,6.9253,7.012,7.196,7.3575,7.5478,7.7235,7.8308,7.8633,7.8634,7.8309,7.7985,7.7554,7.7017,7.738,7.7739,7.7486,7.7774,7.7954,7.7843,7.777,7.7878,7.8313,7.8276,7.8205,7.835,7.8349,7.8382,7.8472,7.8473,7.8909,7.9946,8.001,8.0355,8.1129,8.1233,8.0965,8.0195,8.0258,7.9448,0.0,0.0,0.0,0.0,0.0,0.0,0.0,0.0,0.0,0.0,0.0,0.0,0.0,0.0,0.0,0.0,0.0,0.0,0.0,0.0,0.0,0.0,0.0,0.0,0.0,0.0,6.6505,6.6939,6.8944,6.9817,6.8553,6.8625,6.9374,7.0843,7.3185,7.4706,7.4971,7.7236,7.8493,7.852,7.8808,7.9094,7.9343,7.9456,7.9569,7.9606,8.033,8.0294,7.9753,8.1092,8.1128,8.026,8.0984,8.0982,8.036,7.9784,7.845,7.6759,7.6548,7.6477,7.6513,7.6873,7.7197,7.7413,7.7053,7.7304,7.7916,7.8203,7.8453,7.8272,7.6554,7.6195,7.5944,7.3863,7.4546,7.6051,7.6553,7.8022,7.9269,7.9269,7.9269,7.9198,7.8872,7.8546,7.8401,7.8727,7.8595,7.8348,7.8201,7.8704,7.917,7.9272,7.9231,7.9448,8.0288,8.0107,8.0006,8.0296,8.0214,8.0196,8.0304,8.0438,8.0666,8.1056,8.1185,8.1581,8.2149,8.2385,8.2437,8.2332,8.2332,8.1486,7.9751,0.0,0.0,0.0,0.0,0.0,0.0,0.0,0.0,0.0,0.0,0.0,0.0,0.0,0.0,0.0,0.0,0.0,0.0,0.0,0.0,0.0,0.0,0.0,6.2304,6.7511,7.0586,6.853,7.0184,7.1719,7.2274,7.268,7.4016,7.6661,7.8133,7.8743,7.8423,7.9431,8.0226,8.0544,8.1486,8.2243,8.2881,8.2881,8.2996,8.3185,8.3223,8.3297,8.3446,8.3519,8.301,8.203,8.188,8.126,8.0314,8.0084,8.0006,7.9935,7.9272,7.9025,7.917,8.0109,7.9856,7.8915,7.7976,7.7651,7.7794,7.8543,7.9482,8.0422,8.121,8.2042,8.2732,8.2538,8.1962,8.1386,8.1227,8.0577,8.0006,8.0006,8.0006,8.0259,8.1243,8.0662,8.0259,8.1243,8.0171,7.9096,7.906,8.0502,8.1908,8.2663,8.2616,0.0,8.3039,8.2315,8.1631,8.1201,8.0981,8.1276,8.24,8.3736,8.3964,8.2695,8.385,8.3907,8.2361,8.2848,8.325,8.3438,8.34,8.3006,8.2232,0.0,0.0,0.0,0.0,0.0,0.0,0.0,0.0,0.0,0.0,0.0,0.0,0.0,0.0,0.0,0.0,0.0,0.0,0.0,0.0,0.0,0.0,6.9756,6.9756,7.1155,7.2722,7.4278,7.561,7.6223,7.5689,7.7011,7.8705,8.0587,8.1636,8.2323,8.2678,8.3006,8.2859,8.2272,8.249,8.2706,8.292,8.2458,8.2495,8.2996,8.3297,8.2934,8.2052,8.4237,8.4197,8.2514,8.386,8.4143,8.3538,8.2886,8.2592,8.2255,8.0405,7.9655,7.9691,7.9982,8.023,8.0548,8.0831,8.0899,8.0934,8.1184,8.1438,8.1691,8.1906,8.216,8.2235,8.1659,8.1727,8.2017,8.2131,8.2421,8.2671,8.2671,8.2671,8.2525,8.2088,8.1759,8.1648,8.1941,8.162,8.1156,8.0584,8.0909,8.152,8.2235,8.2577,0.0,8.285,8.3266,8.3367,8.2831,8.3341,8.3408,8.2517,8.3395,8.3775,8.329,8.397,8.4431,8.4604,8.5337,8.549,8.4947,8.3727,8.3105,0.0,0.0,0.0,0.0,0.0,0.0,0.0,0.0,0.0,0.0,0.0,0.0,0.0,0.0,0.0,0.0,0.0,0.0,0.0,0.0,0.0,0.0,6.9937,7.3812,7.5478,7.5053,7.5492,7.7845,7.8637,7.889,7.8567,8.0262,8.1599,8.2142,8.2975,8.3808,8.4492,8.4853,8.4847,8.4511,8.4835,8.4835,8.4511,8.4043,8.4119,8.4626,8.4779,8.4486,8.3786,8.5576,8.5502,8.4076,8.5381,8.5804,8.5486,8.5298,8.5064,0.0,0.0,0.0,0.0,0.0,8.1148,8.1684,8.2433,8.2469,8.2326,8.3004,8.2968,8.2754,8.3111,8.2968,8.2611,8.2183,8.1898,8.1866,8.2306,8.2525,8.2704,8.3025,8.2847,8.2449,8.1866,8.147,8.1255,8.1255,8.1255,0.0,8.1777,8.2102,8.2568,8.3355,8.3816,8.4347,8.5082,8.539,8.5574,8.5648,8.6071,8.5975,8.5012,8.5741,0.0,0.0,0.0,8.5499,8.5491,8.6091,0.0,0.0,0.0,8.4784,8.4812,0.0,0.0,0.0,8.3616,8.298,0.0,0.0,0.0,0.0,0.0,0.0,0.0,0.0,0.0,0.0,0.0,0.0,0.0,0.0,0.0,0.0,7.24,7.5985,7.968,7.8955,7.8521,7.9717,8.0078,8.0333,8.0767,8.2504,8.33,8.2501,8.3445,8.4352,8.504,0.0,0.0,0.0,0.0,8.7555,8.6722,8.6492,8.6499,8.6887,8.6658,8.6586,8.6704,8.6813,8.6451,8.5725,8.633,8.6496,8.6437,8.6916,8.7068,8.6608,8.3825,8.2718,8.2718,8.2718,8.2718,8.2826,8.3539,0.0,0.0,8.4396,8.4396,8.3896,8.4538,8.4253,8.3611,8.3432,8.2469,8.1612,8.2183,8.1933,8.1648,8.2326,8.1969,8.1505,8.1584,8.1013,8.0513,8.0551,8.059,8.1174,8.2998,8.3685,8.4223,8.5126,8.5619,8.6501,8.8129,8.7804,8.7812,8.8889,0.0,0.0,8.8756,8.9362,8.8994,8.719,8.7148,8.6799,8.5835,8.5953,8.6251,8.679,8.6942,8.6881,8.6637,8.7422,8.7804,8.7766,8.5702,8.4289,0.0,0.0,0.0,0.0,0.0,0.0,0.0,0.0,0.0,0.0,0.0,0.0,0.0,0.0,0.0,7.0842,7.5913,8.0223,8.1635,8.1563,8.0948,7.9792,8.0948,8.1563,8.0876,8.301,8.4678,8.5111,8.6487,8.7358,8.7539,8.83,8.8442,8.7932,8.8077,8.7751,8.6955,8.6302,8.605,8.609,8.5437,0.0,8.4922,8.5725,8.5502,8.4472,8.5384,8.5991,8.6401,8.6342,8.6567,8.6858,8.6216,8.6002,8.6002,8.6002,8.6002,8.6002,8.618,8.6109,8.6037,8.6358,8.6358,8.6144,8.5716,8.5466,0.0,8.3753,8.3646,8.3825,8.3289,8.3539,8.3967,8.411,8.4039,8.4013,8.4338,8.4274,8.4244,8.4593,8.4669,8.4931,8.5807,8.4751,8.4098,8.5221,8.6107,8.6814,8.7175,8.7763,8.8722,9.0109,9.0966,9.132,9.0936,9.0739,9.0134,8.887,8.8256,8.7815,8.7613,8.6996,8.667,8.679,8.6136,8.5793,8.5741,8.5932,8.6008,8.6008,8.6925,8.7269,0.0,0.0,0.0,0.0,0.0,0.0,0.0,0.0,0.0,0.0,0.0,6.5229,0.0,0.0,7.374,7.4899,7.9136,8.2432,8.2831,8.3229,8.2866,8.1165,8.2468,8.3446,8.3372,8.5218,8.6634,8.7032,8.7793,8.8188,8.8188,8.8951,8.9024,8.8224,8.8188,8.7648,8.6452,8.5578,8.5399,8.5873,8.5249,8.5211,8.5721,8.6118,8.5827,8.5026,8.5899,8.6364,8.6561,8.6756,8.7198,8.7634,8.7276,8.6764,8.6358,8.6358,8.6109,8.5823,8.6216,8.6109,8.5823,8.6216,8.6358,8.6287,8.5894,8.5787,8.5645,8.4824,8.4324,8.4003,8.4003,8.4166,8.4398,8.4828,8.4737,8.4685,8.4843,8.4824,8.4828,8.5007,8.5286,8.5802,8.6693,8.6276,8.6041,8.6683,8.7392,8.7951,8.8254,8.8747,8.9451,9.0499,9.1087,9.1316,9.1083,9.1216,9.1133,9.0572,9.0173,8.9752,8.937,8.853,8.8071,8.8071,8.7613,8.7422,8.7422,8.7842,8.8071,8.8071,8.895,8.8415,0.0,0.0,0.0,0.0,0.0,0.0,0.0,0.0,6.675,7.0154,7.0444,7.0698,7.2581,7.5297,7.7615,7.8738,8.1889,8.4135,8.399,8.4786,8.4823,8.3374,8.4352,8.5402,8.6054,8.7394,8.8188,8.8188,8.8333,8.8444,8.8444,8.9205,8.935,8.8698,8.8517,8.7756,8.638,8.5395,8.5251,8.5909,8.5531,8.5856,8.6776,8.6625,8.6299,8.5945,8.6706,8.6878,8.6755,8.7512,8.8113,8.8455,8.7929,8.7092,8.6249,8.6055,8.578,8.5562,8.6041,8.5907,8.5598,8.6244,8.6612,8.6765,8.6585,8.6553,8.6597,8.6453,8.5336,8.4364,8.5009,8.4956,8.4859,8.5509,8.5408,8.5227,8.5298,8.5165,8.5078,8.518,8.5578,8.6271,8.7333,8.7946,8.8254,8.8242,8.8613,8.906,8.9583,8.9631,8.9946,9.0742,9.0822,9.0822,9.0822,9.1434,9.1816,9.1816,9.1816,9.151,9.0861,9.0173,8.9638,8.9332,8.9294,8.9218,8.9065,8.9791,9.0096,9.0096,9.0096,8.8835,0.0,0.0,0.0,6.4323,6.6931,6.9611,0.0,0.0,7.106,7.2219,7.2943,7.345,7.374,7.7507,8.0404,7.9861,8.3627,8.638,8.5728,8.6887,8.7503,8.6597,8.6634,8.6778,8.6887,8.7684,8.8188,8.8188,8.8879,8.9277,8.9277,9.0038,9.0436,9.0328,8.964,8.8843,8.7935,8.7102,8.6414,8.5909,8.5871,8.5907,8.6018,8.598,8.5944,8.5945,8.6706,8.6878,8.6833,8.8212,8.8689,8.8612,8.8983,8.8648,8.7848,8.7048,8.7588,8.8582,8.7978,8.8171,8.8691,8.8801,8.9455,9.0105,8.9369,8.935,8.9395,8.8655,8.7841,8.7142,8.7253,8.7248,8.7243,8.7317,8.7312,8.7333,8.7718,8.7764,8.7847,8.8213,8.8438,8.8748,8.9289,8.9511,8.9332,8.8493,8.8874,8.9261,8.9325,8.9325,8.9919,9.151,9.1663,9.1663,9.1663,9.1739,9.1816,9.1816,9.1816,9.1739,9.1663,9.1586,9.0822,8.9332,8.9294,8.895,8.8224,8.8339,8.8377,8.8377,8.8377,8.8988,6.7323,0.0,0.0,0.0,7.1893,7.3378,7.4319,7.4754,7.5732,7.8412,7.9245,7.9752,8.073,8.2541,8.4098,0.0,8.6416,8.7611,8.7285,8.8191,8.877,8.8444,8.8807,8.8915,8.8444,8.8698,8.9096,8.9567,8.9893,9.011,9.011,9.04,9.04,8.9929,8.9133,8.8258,8.7345,8.6666,8.634,8.6369,8.6369,8.6663,8.7249,8.7133,8.7133,8.7285,8.7575,8.8168,8.8909,8.9056,8.9526,9.0103,8.9827,8.9724,8.9553,8.825,8.7778,8.7802,8.7796,8.7899,8.8072,8.8236,8.8918,8.9572,8.9234,8.9484,8.9872,8.9538,8.887,8.8313,8.8313,8.8134,8.7951,8.7951,8.8137,8.8322,8.8503,8.8866,8.9173,8.9352,8.9711,9.003,9.0263,9.0263,9.0127,8.974,8.9893,9.0058,9.0058,9.0058,9.0326,9.1052,9.109,9.1281,9.1739,9.1816,9.2007,9.2504,9.2542,9.2542,9.2542,9.2542,9.2007,9.0784,9.0746,9.0364,8.9561,8.9561,8.9561,8.9561,8.9561,8.9944,7.1381,0.0,0.0,7.4935,7.6456,7.747,7.8847,7.9136,8.0114,8.3373,8.4278,8.4968,8.6485,8.6994,8.7503,8.8408,8.8734,8.8807,8.8589,8.9241,8.9712,8.9712,9.0255,9.0473,9.011,8.9857,8.9966,9.0545,9.0799,9.0943,9.0943,9.0943,9.0654,9.0074,8.906,8.8185,8.745,8.6846,8.6738,8.7089,8.7089,8.7492,8.8188,8.8071,8.8071,8.8227,8.8422,8.9165,9.0151,8.9941,9.0383,9.1184,9.0746,9.0834,9.1026,8.9936,8.9001,8.8265,8.8499,8.8591,8.8628,8.8832,8.951,9.0205,8.9951,9.0309,9.0742,9.0488,8.9881,8.9356,8.9572,8.9405,8.9232,8.9495,8.9797,9.0056,9.0004,9.0408,9.0738,9.0715,9.1081,9.1388,9.1368,9.1344,9.1302,9.1281,9.1281,9.1128,9.0669,9.0593,9.0593,9.0593,9.0593,9.0861,9.1434,9.1472,9.1816,9.2695,9.2733,9.2847,9.3077,9.3115,9.2695,9.1816,9.1816,9.1395,9.0593,9.0593,9.0593,9.0593,9.0593,9.0746,0.0,0.0,7.2509,7.6456,7.9752,8.2287,8.312,8.3301,8.3735,8.5172,8.6227,8.7317,8.8747,8.981,9.0219,8.9459,9.0002,9.0255,8.9459,9.0038,9.0545,9.0545,9.0581,9.0907,0.0,9.1016,9.0581,9.0581,9.1306,9.1776,9.1776,9.1776,9.174,9.174,9.0183,8.935,8.9314,8.8553,8.8116,8.8152,8.8152,8.8152,8.8188,8.8188,8.8188,8.8266,8.8947,8.9271,8.9448,9.0713,9.1253,9.1348,9.1838,9.2061,9.2087,9.2304,9.2191,9.1869,9.1273,9.1558,9.2153,9.2153,9.2934,9.3659,9.286,9.2794,9.282,9.198,9.1179,9.072,9.1522,9.1675,9.1926,9.2766,9.3081,9.3124,9.2979,9.3103,9.3145,9.3038,9.3086,9.3089,9.3022,9.3086,9.3089,9.3022,9.3038,9.2427,9.0822,9.0593,9.0593,9.0593,9.0593,9.0631,9.0631,9.0631,9.0975,9.1778,9.1854,9.2236,9.3077,9.3115,9.2695,9.1816,9.1816,9.1395,9.0593,9.0593,9.0593,9.0593,9.0593,9.1013,0.0,0.0,7.8135,8.109,8.3036,8.4441,8.5234,8.5847,8.6492,8.7497,8.6787,8.6147,8.6613,8.7131,8.7394,8.7104,8.906,9.0509,9.0219,9.0871,9.1414,9.1414,9.1885,0.0,0.0,0.0,0.0,9.2139,9.2465,9.261,9.261,9.261,9.2356,9.1813,9.1269,9.0634,8.9967,8.9787,8.9898,9.0217,9.0875,9.1497,9.2048,9.146,9.1202,9.1202,9.1478,9.1845,9.2331,9.2758,9.3285,9.378,9.3947,9.4086,9.4185,9.4354,9.4354,9.413,9.2865,9.2523,9.2585,9.2749,9.3091,9.3349,9.3044,9.3011,9.3038,9.2733,9.2465,9.2334,9.2703,9.2801,9.286,9.321,9.3305,9.3302,9.3242,9.3204,9.3225,9.3183,9.3166,9.3187,9.3145,9.3162,9.312,9.3115,9.3115,9.2886,9.2351,9.2274,9.2274,9.2274,9.2274,9.2274,9.2274,9.2274,9.2389,9.2656,9.2656,9.2809,9.3077,9.365,9.3535,9.2695,9.3142,9.2967,9.2128,9.2039,9.1994,9.1994,9.2171,9.2432,0.0,7.745,8.0613,8.331,8.482,8.5754,8.6297,8.7052,8.7803,8.8511,8.7205,8.5997,8.6207,8.5827,8.5475,8.5475,8.6923,8.8444,8.9603,9.0183,9.0943,9.2102,9.2682,9.3117,0.0,0.0,0.0,9.2972,9.3261,9.3443,9.3443,9.3443,9.3312,9.3091,9.2764,9.2419,9.2018,9.2124,9.2331,9.2633,9.2992,9.3615,9.4396,9.3541,9.3384,9.3737,9.3694,9.4167,9.4962,9.5231,9.5615,9.6091,9.6042,9.6067,9.6201,9.6318,9.6173,9.5715,9.443,9.3906,9.3755,9.395,9.3994,9.3917,9.3693,9.36,9.3561,9.326,9.3204,9.3302,9.3708,9.3805,9.3902,9.4213,9.4308,9.4268,9.4224,9.4185,9.4129,9.4084,9.4063,9.4063,9.4063,9.3999,9.3994,9.3994,9.3994,9.3764,9.3191,9.3115,9.3115,9.3115,9.3115,9.3115,9.3115,9.3115,9.3115,9.3115,9.3115,9.3115,9.3115,9.3606,9.3584,9.305,9.3473,9.3404,9.2833,9.2764,9.2764,9.2855,9.3011,9.3315,7.8086,7.9793,8.0361,8.3454,8.543,8.6617,8.6545,8.7228,8.7977,8.8267,8.7448,8.6712,0.0,0.0,8.4678,8.4642,8.4243,8.504,8.8046,8.8478,8.9676,0.0,0.0,0.0,0.0,0.0,0.0,9.323,9.3841,9.4276,9.4317,9.4317,9.4693,9.5403,9.4668,9.4629,9.5318,9.5314,9.5314,9.5351,9.4565,9.4603,9.5347,9.4561,9.4756,9.5632,9.5583,9.6085,9.702,9.7782,9.8105,9.8082,9.799,9.7905,9.7967,9.8082,9.7608,9.6805,9.6003,9.5697,9.5621,9.5621,9.5621,9.549,9.4794,9.4568,9.4436,9.3733,9.3523,9.3734,9.4558,9.475,9.4962,9.5729,9.5981,9.6039,9.5853,9.5856,9.5818,9.5681,9.5713,9.5713,9.5675,9.5675,9.5675,9.5713,9.5637,9.5025,9.3421,9.3229,9.3229,9.3229,9.3229,9.3229,9.3229,9.3229,9.3229,9.3229,9.3229,9.3229,9.3208,9.312,9.3015,9.3015,9.2878,9.2831,9.2831,9.2831,9.2947,9.3208,9.3229,9.3778,7.9757,8.2661,8.5269,8.6704,8.8277,8.9314,8.8706,9.0065,9.0752,8.8046,8.6459,8.4757,0.0,0.0,0.0,8.3881,8.7611,0.0,9.1668,9.232,0.0,9.3805,0.0,9.4855,9.5072,9.5072,0.0,0.0,9.5263,9.5327,9.586,9.5899,9.6248,9.7018,9.6795,9.6771,9.693,9.6815,9.7083,9.7724,9.6969,9.7079,9.801,9.7245,9.6665,9.6297,9.707,9.7105,9.6703,9.77,9.815,9.8277,9.8194,9.8238,9.8363,9.8385,9.827,9.804,9.781,9.6891,9.5818,9.5818,9.5818,9.578,9.5591,9.5514,9.5496,9.5325,9.5248,9.5345,9.5655,9.5751,9.579,9.5982,9.5981,9.59,9.5793,9.5729,9.5856,9.6461,9.705,9.728,9.6668,9.6554,9.6783,9.7356,9.6401,9.5446,9.5025,9.4949,9.4949,9.4949,9.4949,9.4949,9.4949,9.4949,9.4949,9.4949,9.4949,9.4905,9.4815,9.4769,9.4723,9.463,9.4472,9.4399,9.4399,9.4496,9.4606,9.4677,9.5019,9.5363,8.2022,8.4765,8.6929,8.7072,8.8535,8.9499,8.7764,8.8664,8.8957,8.5872,8.3918,0.0,0.0,0.0,0.0,0.0,0.0,0.0,9.174,9.2356,9.3153,0.0,9.5109,0.0,9.5826,9.5866,9.6189,0.0,9.627,9.6228,9.6953,9.699,9.7314,9.8034,9.8067,9.8204,9.8534,9.808,9.8307,9.9221,9.8464,9.8592,9.9591,9.8826,9.8463,9.8479,9.8692,9.8544,9.8102,9.873,9.8776,9.8531,9.8431,9.849,9.8552,9.8552,9.8322,9.8091,9.8477,9.7729,9.6634,9.6938,9.6782,9.6572,9.6958,9.6863,9.6633,9.7077,9.7153,9.7173,9.727,9.725,9.7211,9.7211,9.7132,9.6915,9.6444,9.6571,9.6926,9.7318,9.7815,9.7967,9.7509,9.7432,9.7471,9.7547,9.6783,9.6019,9.5637,9.5598,9.5751,9.6133,9.6172,9.6172,9.6172,9.6172,9.6019,9.5598,9.5554,9.5486,9.5417,9.5301,9.5167,9.5094,9.4971,9.4971,9.507,9.5143,9.531,9.5516,9.5797,9.5981,8.4718,8.6302,8.6822,8.6501,8.8036,8.8828,8.5892,8.5898,8.5764,8.2948,0.0,7.9648,7.9251,8.0225,8.1237,8.1672,0.0,8.7611,9.0799,9.1233,9.2247,9.5072,9.5488,9.5822,9.6425,9.6616,9.6953,9.7698,9.7135,9.7063,9.7698,9.7732,9.8067,9.8778,9.8839,9.9146,9.9796,9.9141,9.9221,9.9986,9.9365,9.9555,10.0486,9.9784,9.9893,10.0578,10.0007,9.9726,9.9711,9.9865,9.9481,9.8788,9.8692,9.8614,9.8614,9.8614,9.8191,9.7692,9.8519,9.8288,9.775,9.8342,9.8012,9.7572,9.8382,9.8153,9.775,9.8577,9.8788,9.8788,9.8769,9.8692,9.8574,9.8554,9.8511,9.8214,9.7342,9.7856,9.8386,9.8143,9.8273,9.8426,9.8311,9.8197,9.7891,9.7318,9.6936,9.6515,9.5866,9.5675,9.5904,9.663,9.6745,9.6745,9.6745,9.6745,9.6439,9.5805,9.554,9.5456,9.5547,9.5243,9.507,9.507,9.4971,9.5021,9.5239,9.5263,9.5516,9.59,9.5941,9.6078,8.7768,8.7803,8.7358,8.9213,9.0462,9.0435,8.7467,8.7938,0.0,0.0,0.0,7.9757,7.733,7.9174,8.1961,8.4642,0.0,0.0,0.0,0.0,9.4746,0.0,0.0,0.0,0.0,0.0,0.0,0.0,9.8397,9.8397,9.8492,9.8492,9.8778,9.9433,9.9537,9.9649,9.9796,9.9752,9.9936,10.0302,10.0309,10.0497,10.0913,10.0906,10.0084,9.8912,9.971,0.0,9.7784,9.8654,9.8942,9.8788,9.8769,9.8769,9.8769,9.8769,9.8692,9.8577,9.875,9.8711,9.8596,9.8712,9.8654,9.8558,9.8712,9.8692,9.8577,9.875,9.8788,9.8769,9.8634,9.8614,9.8554,9.8406,9.8342,9.826,9.7974,9.8602,9.8984,9.8235,9.9228,9.9954,9.9305,9.8579,9.8311,9.8884,9.7165,9.6019,9.6592,9.6057,9.5637,9.5789,9.5828,9.5828,9.5828,9.5828,9.6012,9.647,9.5799,9.5723,9.6348,9.5714,9.5379,9.5509,9.5448,9.5509,9.5531,9.5691,9.5839,9.592,9.6117,9.6251,8.7628,8.7716,8.7497,8.9234,9.0201,8.9742,8.593,0.0,0.0,0.0,0.0,7.7984,7.6565,7.8919,0.0,8.3157,8.7467,0.0,0.0,0.0,0.0,0.0,0.0,0.0,0.0,0.0,0.0,9.9204,9.9405,9.9434,9.93,9.9405,9.9666,10.001,10.0126,10.0177,10.0177,10.029,10.0375,10.0604,10.0711,10.0793,10.1106,10.1185,10.0707,9.992,9.9981,9.9307,9.8038,9.8096,9.7865,9.748,9.748,9.748,9.748,9.748,9.748,9.7557,9.798,9.8096,9.8154,9.8615,9.8481,9.8211,9.8673,9.8788,9.8904,9.9269,9.9711,9.9998,9.9877,9.9815,9.973,9.9622,9.9249,9.8953,9.9305,9.9381,9.9381,9.9419,10.0107,10.0489,10.0107,9.9687,9.9266,9.8808,9.77,9.6722,9.6196,9.5776,9.5722,9.621,9.6203,9.6158,9.6158,9.6089,9.6019,9.5934,9.56,9.557,9.5951,9.5677,9.5554,9.5598,9.5598,9.5664,9.5755,9.5859,9.5961,9.6117,9.6251,9.6288,8.7203,8.7782,8.789,8.9025,8.9893,8.9251,8.4444,8.3472,0.0,0.0,7.6275,7.6275,7.6275,0.0,8.0295,0.0,8.5293,8.9024,0.0,0.0,0.0,0.0,0.0,0.0,0.0,0.0,0.0,9.993,10.019,10.0215,9.9983,10.019,10.0302,10.0413,10.0495,10.0604,10.0604,10.0589,10.0719,10.0913,10.0913,10.1021,10.1208,10.1208,10.121,10.1019,10.0404,9.9596,9.875,9.8057,9.7403,9.6826,9.6826,9.6826,9.6826,9.6826,9.6808,9.6866,9.7346,9.7577,9.7769,9.8308,9.8135,9.7866,9.8558,9.875,9.8923,9.967,10.0417,10.0875,10.0885,10.0891,10.0787,10.0802,10.0176,9.984,10.0489,10.0107,9.984,10.0489,10.0604,10.0604,10.0604,10.0389,9.9831,9.8533,9.8166,9.7509,9.6057,9.5752,9.5951,9.673,9.6547,9.6386,9.6386,9.6267,9.6029,9.552,9.5447,9.5502,9.5761,9.5697,9.5708,9.5751,9.5751,9.5835,9.5981,9.5981,9.6098,9.6288,9.6288,9.6288,8.855,8.9369,8.8989,9.054,9.1511,9.069,8.5381,0.0,0.0,7.7545,7.6275,7.6275,7.6275,7.6529,0.0,0.0,0.0,8.399,0.0,0.0,0.0,0.0,0.0,0.0,0.0,0.0,0.0,10.051,10.0519,10.0595,10.0495,10.0519,10.0495,10.0299,10.0495,10.0604,10.0489,10.0719,10.0897,10.1185,10.1185,10.1208,10.1308,10.1308,10.0885,10.0212,10.0096,9.9596,0.0,9.8711,9.8634,9.8557,9.8557,9.8557,9.8557,9.8557,9.85,9.8307,9.7712,9.7904,9.8364,9.7749,9.798,9.8537,9.8614,9.8614,9.8766,9.9508,9.9794,9.9982,10.0601,10.0787,10.0802,10.0612,10.0604,10.0489,10.0604,10.0489,10.0489,10.0604,10.0604,10.0604,10.0604,9.9899,9.9293,9.9141,9.8296,9.769,9.7513,9.6828,9.6433,9.6509,9.5824,9.5329,9.5329,9.5343,9.5658,9.64,9.5799,9.5882,9.6967,9.6281,9.5999,9.6232,9.6232,9.6232,9.6251,9.6251,9.6269,9.6288,9.6288,9.6288,8.8085,8.9194,8.9107,9.0475,8.9577,8.7631,8.4528,0.0,8.0442,7.7036,7.6275,7.6275,7.6275,7.6275,7.671,7.8014,7.9861,0.0,8.4533,0.0,0.0,0.0,0.0,0.0,0.0,0.0,10.0595,10.0809,10.0793,10.0875,10.1025,10.0897,10.0793,10.0798,10.1021,10.0987,10.0987,10.1106,10.1226,10.1307,10.1307,10.1288,10.1289,10.1289,10.1096,10.0789,10.0289,9.9904,0.0,9.9019,9.8788,9.8788,9.8788,9.8788,9.8788,9.8788,9.8769,9.8692,9.8269,9.8325,9.8493,9.8186,9.8222,9.8448,9.8472,9.8838,9.9316,9.9496,9.9972,10.041,10.0581,10.0711,10.0711,10.0604,10.0604,10.0604,10.0604,10.0604,10.0604,10.0604,10.0495,10.0486,10.0486,10.0122,9.9643,9.9148,9.8299,9.7526,9.6957,9.6134,9.5817,9.6447,9.5651,9.5143,9.5286,9.5239,9.5415,9.5967,9.5817,9.5929,9.6399,9.625,9.6443,9.7019,9.7019,9.7288,9.7827,9.7984,9.8064,9.8025,9.7649,9.7504,8.6436,8.8198,8.8879,8.9958,8.8046,8.5402,0.0,0.0,7.8195,7.6348,7.5949,7.6022,7.6239,7.6275,7.6275,7.6275,7.8195,8.0006,8.0984,8.3048,0.0,0.0,0.0,9.3547,0.0,10.0023,10.0913,10.1004,10.1085,10.1206,10.1308,10.1188,10.1109,10.1208,10.1288,10.1289,10.1289,10.1289,10.1289,10.1289,10.1289,10.1308,10.1326,10.1326,10.1191,10.119,10.0575,10.0422,0.0,9.9711,9.95,9.9558,9.9519,9.9538,9.9558,9.9519,9.95,9.9422,9.9035,9.9048,9.9155,9.8866,9.89,9.9026,9.9031,9.9151,9.9304,9.9425,10.0129,10.0719,10.0589,10.0604,10.0604,10.0604,10.0604,10.0604,10.0604,10.0604,10.058,10.0519,10.05,10.0389,10.0326,10.0012,9.9594,9.9036,9.8174,9.7389,9.6793,9.621,9.6143,9.6944,9.6463,9.5998,9.583,9.5737,9.5669,9.5686,9.5902,9.604,9.6097,9.6369,9.6889,9.77,9.7738,9.8163,9.9012,9.9188,9.9172,9.8901,9.8489,9.8175,8.3373,8.6414,8.8369,8.9205,8.7648,8.5257,0.0,0.0,7.8014,7.559,7.5083,7.537,7.613,7.6275,7.6275,7.6275,7.6311,7.747,8.0658,8.1128,0.0,0.0,0.0,8.9735,9.4314,9.8725,10.1307,10.1188,10.1307,10.1289,10.1289,10.1289,10.1289,10.1289,10.1289,10.1289,10.1289,10.1289,10.1289,10.1289,10.1289,10.1307,10.1226,10.1226,10.1126,10.1,10.1,10.1123,0.0,10.1025,10.1088,10.1308,10.1208,10.119,10.1308,10.1208,10.1106,10.0885,10.0003,10.0207,10.0595,9.9791,10.0098,10.0688,10.0612,9.9511,9.8468,9.9198,9.9992,10.0604,10.0604,10.0604,10.0604,10.0604,10.0604,10.0604,10.0604,10.0604,10.0595,10.0399,10.0413,10.0403,10.0202,9.9429,9.8794,9.8794,9.7943,9.74,9.7654,9.7665,9.7861,9.8346,9.8422,9.8018,9.6866,9.6805,9.6511,9.5938,9.613,9.6381,9.6575,9.6863,9.7393,9.8259,9.8298,9.8686,9.9502,9.9502,9.9075,9.8298,9.8298,9.7947,7.9571,8.1853,8.3225,8.3627,8.1527,7.9281,7.9064,0.0,7.4537,7.4319,7.425,7.4537,7.5334,7.5478,7.5659,7.6203,7.6275,7.6637,0.0,0.0,0.0,8.6926,9.2645,9.7012,0.0,0.0,10.1308,10.1326,10.1308,10.1289,10.1289,10.1307,10.1287,10.1289,10.1289,10.1289,10.1289,10.1289,10.1019,10.0286,10.0286,10.0015,9.9337,9.9337,9.9316,9.9274,9.9274,9.956,9.9977,9.9994,9.9972,9.9912,10.0016,9.9713,9.9313,9.9968,9.9815,9.939,10.0185,10.0218,10.0021,10.0199,10.01,9.9924,10.0375,10.0283,9.9924,10.0207,10.0413,10.0604,10.0604,10.0604,10.0604,10.0604,10.0604,10.0619,10.0486,10.05,10.0399,10.0315,10.0215,10.0075,10.0088,9.9729,9.9551,9.9721,9.9117,9.8768,9.9044,9.8731,9.879,9.9723,9.9831,9.9491,9.8531,9.8438,9.8169,9.7581,9.76,9.7432,9.6888,9.7514,9.8298,9.9102,9.9696,10.0396,10.1289,10.1516,10.1182,10.0508,10.0508,9.9746,0.0,7.8269,7.9755,8.0477,7.8231,0.0,0.0,0.0,7.2472,7.3305,7.3519,7.3768,7.45,7.4968,7.5363,7.5768,7.6094,7.6733,0.0,0.0,0.0,8.679,0.0,0.0,0.0,9.988,10.0804,10.1109,10.1188,10.1208,10.1208,10.1109,10.1109,10.1208,10.1208,10.1208,10.1208,10.0901,10.0399,9.9839,9.9532,9.9048,9.8406,9.8406,9.8385,9.8342,9.8643,9.8873,0.0,9.9281,9.9243,9.8982,9.9026,9.8763,9.8461,9.8981,9.8866,9.8576,9.9846,9.9916,9.961,9.9977,9.9572,9.9075,9.9916,10.0413,10.0604,10.0604,10.0604,10.0604,10.0604,10.0604,10.058,10.0495,10.0495,10.0495,10.0604,10.0589,10.0612,10.0604,10.052,10.0512,10.0482,10.0107,9.9924,10.0092,9.9556,9.9227,9.9497,9.9475,9.9784,10.0718,10.1079,10.1112,10.0582,10.0085,9.9498,9.8803,9.885,9.8657,9.8112,9.8731,9.9427,10.0198,10.079,10.1491,10.2379,10.2217,10.1791,10.0993,10.0681,9.9822,0.0,0.0,0.0,0.0,0.0,0.0,0.0,0.0,0.0,7.2472,7.2781,7.3098,7.3736,7.4595,7.5204,7.5149,7.5732,0.0,0.0,8.1592,0.0,0.0,9.0546,0.0,9.4471,9.7648,9.9884,10.0617,10.0782,10.0808,10.0885,10.0885,10.0923,10.1,10.0902,10.0923,10.0885,10.0118,9.9658,9.9483,9.8738,9.8291,9.8085,9.8085,9.8041,0.0,9.8654,9.8647,9.8216,9.8792,9.8754,9.8351,9.8244,9.8227,9.8274,9.8205,9.8162,9.8238,9.9045,9.9266,9.9228,9.9228,9.8693,9.8273,9.9075,9.9878,10.0489,10.0604,10.0604,10.0604,10.0604,10.0589,10.0604,10.0486,10.0486,10.0604,10.0902,10.0889,10.0973,10.1211,10.1305,10.1303,10.1199,10.0616,10.0105,10.0202,9.9551,9.9134,9.9423,10.0186,10.0796,10.1284,10.2,10.2595,10.2781,10.1711,10.0607,9.9713,9.9886,9.9973,9.9934,10.0207,10.0681,10.15,10.1618,10.2008,10.2789,10.2008,10.1188,10.0485,9.9666,9.8807,0.0,0.0,0.0,0.0,0.0,0.0,0.0,0.0,0.0,0.0,0.0,7.2294,7.3062,7.3289,7.3764,7.5132,7.5363,7.6777,8.0732,0.0,0.0,9.527,9.5964,9.6674,9.8393,9.8682,9.8853,9.9002,9.9083,9.9351,9.9965,9.9956,10.018,10.0793,10.0206,9.9868,10.0003,9.9811,9.9002,9.7614,9.7423,9.6937,9.6216,9.6216,9.6232,9.621,9.6378,9.6677,9.7089,9.7233,9.7172,9.6981,9.7028,9.6692,9.6241,9.6958,9.6828,9.6445,9.7891,9.8006,9.7471,9.7471,9.7776,9.8158,9.8349,9.8999,9.9801,10.0413,10.0604,10.0604,10.0604,10.0809,10.1004,10.0906,10.1093,10.1193,10.1193,10.1193,10.1192,10.1185,10.1203,10.1178,10.1307,10.1107,10.1077,10.1317,10.1296,10.1377,10.172,10.2,10.2287,10.2402,10.2602,10.2685,10.2785,10.2514,10.2014,10.1083,10.1104,10.0807,10.0182,10.0907,10.1305,10.15,10.2203,10.2593,10.2789,10.2593,10.2398,10.2203,10.2008,10.1383,0.0,0.0,0.0,0.0,0.0,0.0,0.0,0.0,0.0,0.0,0.0,7.2109,7.2393,7.2966,7.3562,7.4206,7.6245,0.0,0.0,0.0,9.0742,9.4951,9.4683,9.5317,0.0,9.8057,9.7937,9.8282,9.832,9.8512,9.8949,9.886,9.9022,9.9481,9.8906,9.8915,9.9584,9.8818,9.7932,9.697,9.6549,9.6085,9.5598,9.5598,9.5598,9.5637,9.5951,9.6158,9.6211,9.6585,9.6462,9.6104,9.615,9.5906,9.5547,9.6111,9.6019,9.5789,9.7089,9.7509,9.7509,9.7929,9.7872,9.7891,9.8657,9.9092,9.946,10.0484,10.0825,10.0885,10.1014,10.1212,10.1326,10.1193,10.1288,10.1413,10.1506,10.15,10.1618,10.1788,10.1802,10.188,10.1895,10.1917,10.2,10.2216,10.232,10.2504,10.262,10.2719,10.2789,10.2789,10.2789,10.2789,10.2789,10.2789,10.2593,10.2086,10.2086,10.1891,10.15,10.1891,10.2086,10.2086,10.2593,10.2789,10.2789,10.2789,10.2593,10.2203,10.2203,10.1813,0.0,0.0,0.0,0.0,0.0,0.0,0.0,0.0,0.0,0.0,0.0,0.0,0.0,7.2994,0.0,0.0,0.0,0.0,8.6669,8.7873,8.9358,9.215,9.1828,0.0,9.6531,9.676,9.6929,9.7593,9.767,9.7731,9.7884,9.7753,9.7758,9.792,9.7686,9.8001,9.8999,9.7601,9.6799,9.6706,9.5942,9.5598,9.5598,9.5598,9.5598,9.5637,9.6249,0.0,9.5637,9.6288,9.6158,9.5598,9.5598,9.5598,9.5598,9.5598,9.5643,9.5806,9.6597,9.7286,9.7976,9.8703,9.817,9.7534,9.9267,9.9459,9.9406,10.0799,10.1211,10.1191,10.15,10.1584,10.1622,10.141,10.1427,10.16,10.1879,10.1906,10.2094,10.2499,10.2616,10.2607,10.271,10.2683,10.2699,10.2785,10.2789,10.2789,10.2789,10.2789,10.2789,10.2789,10.2789,10.2789,10.2789,10.2789,10.2789,10.2789,10.2789,10.2789,10.2789,10.2789,10.2789,10.2789,10.2789,10.2789,10.2789,10.2789,10.2398,10.1696,10.1696,10.1305,6.5553,6.8051,7.031,6.8888,0.0,0.0,0.0,0.0,0.0,0.0,0.0,0.0,0.0,7.2553,7.271,0.0,0.0,8.5574,0.0,0.0,9.4849,9.5866,0.0,9.5325,9.6608,9.6051,9.5623,9.5643,9.5658,9.601,9.6852,9.6772,9.7139,9.8036,9.7295,9.699,9.728,9.6921,9.6425,9.5789,9.5637,9.5598,9.5598,9.5598,9.5598,9.5598,0.0,9.5691,9.5598,9.5729,9.5691,9.5598,9.5598,9.5598,9.5598,9.5598,9.578,9.6097,9.6492,9.6745,9.6861,9.6976,9.6892,9.7017,9.8717,9.9189,9.9482,10.1384,10.1688,10.1517,10.1589,10.1719,10.1894,10.1916,10.2111,10.23,10.2516,10.2495,10.2499,10.2718,10.2692,10.2716,10.2811,10.2815,10.2781,10.2789,10.2789,10.2789,10.2789,10.2789,10.2789,10.2789,10.2789,10.2789,10.2789,10.2789,10.2789,10.2789,10.2789,10.2789,10.2789,10.2789,10.2789,10.2789,10.2789,10.2789,10.2789,10.2789,10.2711,10.2593,10.2593,10.2515,6.4402,6.6445,6.8797,6.9644,0.0,0.0,0.0,0.0,0.0,0.0,0.0,0.0,0.0,0.0,7.7233,8.1641,0.0,8.617,8.9535,9.0138,9.117,0.0,0.0,9.3743,9.5913,9.5738,9.5486,9.544,9.544,9.5616,9.6081,9.5966,9.6133,9.6631,9.6133,9.5943,9.6097,9.6013,9.5677,9.4949,9.4949,9.4949,9.4949,9.4949,9.5178,9.5598,0.0,9.5598,9.5598,9.5598,9.5598,9.5621,9.58,9.5864,9.5884,9.6058,9.6257,9.6465,9.7032,9.7247,9.7402,9.8354,9.8472,9.8531,10.0289,10.0594,10.06,10.1992,10.219,10.1892,10.2086,10.2195,10.2293,10.2313,10.2411,10.2599,10.2607,10.2698,10.2686,10.2704,10.2797,10.2802,10.2785,10.2789,10.2789,10.2789,10.2815,10.2811,10.2811,10.2797,10.2709,10.2709,10.2709,10.2709,10.2709,10.2709,10.2802,10.2789,10.2789,10.2789,10.2789,10.2789,10.2789,10.2789,10.2789,10.2789,10.2789,10.2789,10.2789,10.2789,10.2789,10.2781,6.3402,6.5204,6.7734,7.0417,0.0,0.0,0.0,0.0,0.0,0.0,0.0,0.0,0.0,7.6293,0.0,8.6812,8.6783,8.7232,9.0841,8.9155,8.8832,9.216,9.1942,9.2558,9.5264,9.5531,9.5554,9.5509,9.5509,9.5531,9.5554,9.544,9.5394,9.544,9.5324,9.5324,9.5463,9.5463,9.5203,9.4681,9.4681,9.4681,9.4681,9.449,9.4698,9.5271,9.5331,9.5309,9.5309,9.5593,9.5734,9.5776,9.6288,9.6625,9.6832,9.717,9.731,9.7373,9.8063,9.8336,9.8543,9.9848,10.0015,9.9998,10.1604,10.172,10.1588,10.2497,10.2492,10.2391,10.2513,10.2609,10.2685,10.2592,10.2592,10.2607,10.2716,10.2694,10.2704,10.2781,10.2789,10.2789,10.2781,10.2781,10.282,10.2811,10.2797,10.2782,10.2782,10.2683,10.271,10.271,10.271,10.271,10.271,10.271,10.2688,10.2811,10.2811,10.2811,10.2811,10.2811,10.2811,10.2811,10.2811,10.2811,10.2811,10.2811,10.2811,10.2811,10.2811,10.2802,6.3311,6.6007,6.9128,7.071,6.9657,0.0,7.6653,7.5256,0.0,7.8145,0.0,0.0,0.0,7.7889,7.9916,8.2786,8.6728,9.0532,9.366,0.0,9.4103,9.4998,9.4516,9.444,9.5163,9.5348,9.5371,9.5215,9.5215,9.5263,9.5417,9.5301,9.5348,9.5576,9.5463,9.5463,9.5598,9.5598,9.556,9.5522,9.5522,9.5522,9.5484,9.4758,9.4348,9.4319,9.4446,9.4424,9.4379,9.5597,9.6058,9.6172,9.7247,9.816,9.8902,9.9267,9.9355,9.933,9.9707,9.9839,9.9872,9.9989,10.009,10.0313,10.121,10.1411,10.1612,10.2517,10.2698,10.2683,10.2705,10.2585,10.2585,10.2686,10.2704,10.2683,10.2811,10.2785,10.2785,10.2789,10.2789,10.2781,10.2797,10.2792,10.2788,10.2683,10.2716,10.271,10.271,10.271,10.271,10.271,10.271,10.271,10.271,10.271,10.271,10.2716,10.2716,10.2716,10.2716,10.2716,10.2716,10.2716,10.2716,10.2716,10.2716,10.2716,10.2716,10.2716,10.2716,10.2716,6.284,6.585,6.9128,7.0201,7.0172,0.0,0.0,8.0073,7.9483,8.1428,8.3079,0.0,0.0,0.0,8.6275,8.6398,8.9915,9.2862,9.3513,9.3508,9.3556,9.3816,9.3564,9.3656,9.4471,9.4632,9.4868,9.5425,9.5463,9.5486,9.5531,9.5486,9.5509,9.5598,9.5554,9.5554,9.5598,9.5598,9.5598,9.5598,9.5102,9.4872,9.4834,9.444,9.4593,9.5057,9.4683,9.4538,9.4636,9.5311,9.5577,9.5741,9.6862,9.7945,9.8886,9.9033,9.9402,9.9842,10.0083,10.0086,10.0216,10.0684,10.0898,10.1117,10.1992,10.2309,10.2309,10.2704,10.2802,10.2802,10.271,10.271,10.2699,10.2797,10.2802,10.2807,10.2785,10.2789,10.2785,10.2811,10.2807,10.2797,10.2694,10.2688,10.2683,10.271,10.2692,10.2718,10.2718,10.2698,10.2607,10.2607,10.2607,10.2607,10.2607,10.2607,10.2607,10.2607,10.2686,10.271,10.271,10.271,10.271,10.271,10.271,10.271,10.271,10.271,10.271,10.271,10.271,10.2698,6.2843,6.4977,6.7668,6.9767,0.0,0.0,8.1485,8.2444,8.2295,8.4823,8.5804,0.0,0.0,0.0,0.0,0.0,9.1857,9.4185,9.3612,9.3158,9.29,9.29,9.2604,9.2711,9.3656,9.3755,9.4166,9.5096,9.5172,9.5309,9.556,9.5598,9.5598,9.5598,9.5554,9.5554,9.5554,9.5554,9.5554,9.5531,9.5003,9.4796,9.4758,9.4436,9.4692,9.5257,9.4983,9.4685,9.4545,9.5158,9.5635,9.6036,9.6854,9.7955,9.914,9.9222,9.9573,10.0012,10.0106,10.0286,10.0682,10.1189,10.159,10.2002,10.2602,10.2802,10.2807,10.2785,10.2789,10.282,10.2699,10.2797,10.2789,10.2789,10.2785,10.2815,10.2815,10.2811,10.2802,10.2782,10.2816,10.2811,10.2698,10.2692,10.2692,10.2718,10.2698,10.2716,10.2716,10.2616,10.2601,10.2601,10.2601,10.2601,10.2601,10.2601,10.2601,10.2601,10.2614,10.2718,10.2718,10.2718,10.2718,10.2718,10.2718,10.2718,10.2718,10.2718,10.2718,10.2718,10.2718,10.2705,6.3331,6.3437,6.4753,6.9509,0.0,0.0,8.1878,8.1019,8.0453,8.8154,0.0,8.6163,8.7141,0.0,0.0,8.8549,9.1857,9.4414,9.4414,9.354,9.29,9.29,9.2176,9.194,9.2603,9.2833,9.3244,9.4144,9.4182,9.4608,9.556,9.5598,9.5598,9.5598,9.5486,9.5417,9.5417,9.5417,9.5417,9.5417,9.5554,9.5598,9.5582,9.4923,9.46,9.4638,9.5107,9.4742,9.3924,9.5168,9.6361,9.7394,9.7442,9.8509,9.9998,10.0112,10.0112,10.0079,10.0079,10.0691,10.1384,10.1384,10.2007,10.2789,10.2789,10.2789,10.2789,10.2789,10.2789,10.2785,10.2797,10.2811,10.2789,10.2789,10.2811,10.2792,10.2792,10.2694,10.271,10.271,10.271,10.2698,10.2705,10.2698,10.2685,10.2609,10.2601,10.2601,10.2601,10.2601,10.2601,10.2601,10.2601,10.2601,10.2601,10.2601,10.2601,10.2601,10.2601,10.2601,10.2601,10.2601,10.2601,10.2601,10.2601,10.2601,10.2601,10.2601,10.2601,10.2601,10.2601,10.2601,6.2794,6.6642,0.0,7.0834,0.0,0.0,0.0,8.3532,0.0,0.0,9.1332,9.0209,8.9242,0.0,0.0,8.9882,9.2718,9.5064,9.449,9.3434,9.2764,9.2764,9.133,9.0932,9.2423,9.2091,9.2184,9.3206,9.3282,9.3708,9.472,9.4758,9.5025,9.556,9.5486,9.544,9.5554,9.5463,9.5463,9.5554,9.572,9.5846,9.5924,9.5675,9.567,9.5995,9.5603,9.5325,9.5145,9.5094,9.5279,9.565,9.5665,9.6731,9.824,9.8347,9.9094,10.0085,10.0207,10.0382,10.0582,10.0582,10.0786,10.111,10.1696,10.1891,10.2004,10.2611,10.2802,10.2797,10.2694,10.2688,10.2699,10.2699,10.2688,10.2683,10.2683,10.2716,10.2704,10.2718,10.2712,10.2705,10.2585,10.2616,10.2616,10.2601,10.2601,10.2601,10.2601,10.2601,10.2601,10.2601,10.2601,10.2601,10.2601,10.2601,10.2601,10.2601,10.2601,10.2601,10.2601,10.2601,10.2601,10.2601,10.2601,10.2601,10.2601,10.2601,10.2601,10.2601,10.2601,10.2601,6.4853,6.8705,0.0,7.4451,7.7601,8.1319,8.5461,0.0,0.0,0.0,0.0,9.2689,9.1742,9.3648,0.0,9.2436,9.4067,9.5293,9.449,9.3412,9.2565,9.226,9.0818,9.0304,9.1387,9.1131,9.1286,9.2344,9.271,9.3152,9.3753,9.4507,9.4927,9.5035,9.5273,9.544,9.5531,9.544,9.544,9.5531,9.5717,9.5944,9.6275,9.6244,9.6421,9.6707,9.6054,9.5815,9.5846,9.5149,9.5104,9.542,9.5433,9.6109,9.707,9.748,9.8075,9.869,9.9111,9.9509,9.9783,9.9783,10.0017,10.0407,10.079,10.0981,10.1211,10.2002,10.2192,10.2304,10.2581,10.2692,10.2692,10.2704,10.2698,10.2692,10.2692,10.2718,10.2705,10.2716,10.2716,10.2592,10.2601,10.2601,10.2601,10.2601,10.2601,10.2601,10.2601,10.2601,10.2601,10.2601,10.2601,10.2601,10.2601,10.262,10.2608,10.2608,10.2621,10.2602,10.2602,10.2588,10.2601,10.2601,10.2601,10.2601,10.2601,10.2582,10.2608,10.2614,10.2582,10.2602,6.8281,7.0233,0.0,7.9399,8.1155,0.0,8.7588,9.0418,9.193,9.1964,0.0,9.3949,9.4424,9.4791,9.5129,9.563,9.5637,9.5331,9.4529,9.3526,9.2588,9.1941,9.0912,9.0271,9.0347,9.0403,9.0783,9.1756,9.2481,9.2939,9.3037,9.4523,9.5019,9.4242,9.4922,9.5303,9.5303,9.5379,9.5417,9.5417,9.5582,9.5963,9.6522,9.6682,9.6873,9.7009,9.652,9.6256,9.6139,9.5394,9.5485,9.6116,9.6146,9.624,9.6402,9.7268,9.7167,9.6738,9.7558,9.8377,9.9115,9.9037,9.9545,10.0204,10.0104,10.0095,10.0207,10.1117,10.1312,10.1585,10.2407,10.2601,10.2698,10.2688,10.2698,10.2698,10.2712,10.2607,10.2585,10.2599,10.2607,10.2607,10.2607,10.2607,10.2607,10.2607,10.2599,10.2599,10.2607,10.2607,10.2607,10.2607,10.2607,10.2607,10.2607,10.2597,10.2605,10.2605,10.261,10.2617,10.2617,10.2607,10.2607,10.2607,10.2616,10.2616,10.2607,10.2602,10.2605,10.2605,10.2613,10.2617,6.8002,7.3668,0.0,0.0,8.5703,8.8521,8.907,9.1054,9.2853,9.3031,9.3692,9.4669,9.6073,9.5837,9.57,9.6493,9.6057,9.5522,9.5331,9.4494,9.406,9.4494,9.3121,9.2366,9.3051,9.2542,9.2307,9.2633,9.2786,9.325,9.4026,9.3781,9.3857,9.4332,9.4433,9.451,9.4599,9.5158,9.5463,9.5576,9.6097,9.6377,9.6506,9.6545,9.6825,9.7303,9.7262,9.6823,9.6171,9.603,9.5674,9.5254,9.526,9.5715,9.641,9.6617,9.744,9.8455,9.8651,9.9263,9.9831,9.9133,9.9041,9.9216,9.9172,9.9172,9.9356,10.0184,10.0909,10.1391,10.1601,10.211,10.2608,10.261,10.2611,10.2607,10.2592,10.2607,10.2585,10.2599,10.2605,10.2605,10.2605,10.2605,10.2605,10.2605,10.2599,10.2712,10.2605,10.2605,10.2605,10.2605,10.2605,10.2605,10.2605,10.2611,10.2614,10.2614,10.2616,10.2617,10.2617,10.2612,10.2605,10.2605,10.2599,10.2593,10.2605,10.2612,10.2614,10.2614,10.2497,10.2489,6.9672,0.0,0.0,8.4521,0.0,8.9867,8.9409,9.1281,9.3126,9.3235,9.4159,9.5369,9.6668,9.6515,9.6363,9.6821,9.6515,9.6095,9.5637,9.4784,9.4372,9.4769,9.3549,9.2893,9.3419,9.3076,9.2855,9.2967,9.3371,9.3638,9.3677,9.4086,9.4125,9.3677,9.4096,9.4348,9.4414,9.4768,9.5222,9.5823,9.6166,9.6475,9.6721,9.6863,9.7108,9.7457,9.7513,9.7292,9.685,9.6881,9.668,9.6275,9.6275,9.6328,9.6464,9.6855,9.7589,9.8405,9.8794,9.9497,10.0113,9.9672,9.9483,9.948,9.9471,9.9197,9.9041,9.9878,10.0091,10.0301,10.0686,10.1399,10.1991,10.1991,10.2007,10.209,10.2517,10.2287,10.2097,10.25,10.2617,10.2616,10.2616,10.2615,10.2613,10.2613,10.2689,10.2688,10.2691,10.2613,10.2613,10.2613,10.2613,10.2613,10.2613,10.2617,10.2611,10.2603,10.2618,10.259,10.2607,10.2607,10.2618,10.2616,10.2585,10.259,10.2616,10.2599,10.2504,10.2494,10.2514,10.2482,7.0764,0.0,7.8863,8.6581,8.9141,0.0,8.9561,9.151,9.3268,9.3115,9.4414,9.5866,9.6745,9.6783,9.6706,9.6898,9.6783,9.6401,9.5713,9.4921,9.4433,9.4433,9.3732,9.3252,9.3342,9.3342,9.3387,9.3535,9.4185,9.4255,9.3403,9.4675,9.4637,9.2961,9.389,9.4338,9.4185,9.4696,9.5307,9.6094,9.621,9.6549,9.7129,9.7316,9.7464,9.7519,9.76,9.7616,9.7622,9.7659,9.7714,9.7714,9.7714,9.7241,9.6695,9.7412,9.7756,9.7944,9.8821,9.9684,10.0386,10.0384,10.0293,10.0093,10.011,9.9485,9.8976,9.9843,9.957,9.9179,9.9921,10.0703,10.1211,10.1211,10.121,10.1403,10.2187,10.1992,10.1796,10.2301,10.2615,10.2695,10.2695,10.2695,10.2694,10.2695,10.2695,10.2695,10.2695,10.2695,10.2695,10.2695,10.2695,10.2695,10.2695,10.2716,10.2597,10.2597,10.2614,10.2582,10.2499,10.2509,10.2582,10.2692,10.261,10.2601,10.2512,10.2504,10.2504,10.239,10.2498,10.2508,6.7478,0.0,8.425,0.0,9.0861,9.1281,0.0,0.0,9.4032,0.0,9.4414,9.5866,9.6745,9.6286,9.6019,9.6783,9.6286,9.5713,9.5598,9.5484,9.5423,9.5423,9.5309,9.521,9.5232,9.5232,9.5232,9.5255,9.5369,9.5369,9.5232,9.4834,9.4086,9.3093,9.3934,9.4032,9.3268,9.5732,9.6699,9.6106,9.6631,9.7119,9.7532,9.7577,9.7589,9.76,9.765,9.7706,9.7706,9.7714,9.7714,9.7714,9.7714,9.7585,9.7459,9.7559,9.8073,9.885,9.9725,10.0581,10.1209,10.1206,10.07,10.0116,10.0116,9.9491,9.8984,9.9843,9.9997,9.9976,10.0104,10.0308,10.0407,10.0407,10.0407,10.0586,10.1386,10.2097,10.2282,10.1709,10.2202,10.2709,10.2709,10.2694,10.269,10.2614,10.2698,10.2686,10.2507,10.2499,10.2499,10.2499,10.2499,10.2499,10.2499,10.2513,10.2495,10.2516,10.2489,10.2509,10.2499,10.2498,10.2513,10.2499,10.2499,10.2513,10.2504,10.2516,10.2498,10.2489,10.2406,10.2311,7.0141,7.7625,8.4785,0.0,9.1548,9.1854,9.1969,0.0,9.4414,9.449,9.5102,9.5713,9.6095,9.5866,9.5713,9.6095,9.5866,9.5598,9.5598,9.5598,9.5598,9.5598,9.5598,9.5598,9.5598,9.5598,9.5598,9.5598,9.5598,9.5598,9.5598,9.5255,9.4681,9.3841,9.4385,9.4504,9.412,9.554,9.6437,9.6742,9.765,9.7922,9.7646,9.7646,9.7646,9.7646,9.7706,9.7714,9.7714,9.7714,9.7714,9.7717,9.7667,9.7633,9.7594,9.7617,9.7851,9.8281,9.9112,9.965,10.001,10.0512,10.0412,10.01,10.0113,9.9489,9.8986,9.9868,9.9762,9.9484,9.9963,10.0112,10.0207,10.0707,10.0806,10.0918,10.1284,10.1607,10.1897,10.2015,10.2304,10.2585,10.2607,10.2705,10.2698,10.2609,10.2616,10.2609,10.2591,10.2621,10.2621,10.2621,10.2621,10.2621,10.2621,10.2621,10.2516,10.2499,10.2499,10.2508,10.2406,10.2389,10.2399,10.2399,10.2518,10.2479,10.241,10.2417,10.2384,10.2323,10.23,10.2288,0.0,0.0,8.1347,8.7918,8.9867,9.0631,0.0,0.0,9.4567,0.0,9.5637,9.5866,9.5637,9.5598,9.5598,9.5598,9.5598,9.5598,9.5598,9.5598,9.5598,9.5598,9.5576,9.5554,9.5554,9.5722,9.5738,9.5509,9.57,9.5668,9.5342,9.5304,9.5007,9.4328,9.4744,9.4988,9.5036,9.5596,9.6458,9.7682,9.829,9.8283,9.7714,9.7714,9.7714,9.7714,9.7714,9.7714,9.7714,9.7689,9.7539,9.7349,9.73,9.7148,9.6953,9.7174,9.7247,9.7407,9.8426,9.8797,9.8919,9.9807,10.0083,10.0089,10.0286,9.9936,9.9569,10.0512,10.0083,9.96,10.02,10.0411,10.0512,10.091,10.1315,10.1603,10.1588,10.151,10.1502,10.2413,10.2607,10.2585,10.2585,10.2592,10.2577,10.2585,10.2585,10.2607,10.2495,10.2495,10.2495,10.2495,10.2495,10.2495,10.2495,10.2495,10.2498,10.2498,10.242,10.2417,10.2288,10.2288,10.2288,10.2288,10.2417,10.2399,10.2317,10.2311,10.2303,10.2215,10.2303,10.2288,0.0,6.9082,0.0,8.1385,8.4632,0.0,0.0,0.0,9.4414,9.4452,9.5751,9.6592,9.5751,9.5598,9.5598,9.5598,9.5598,9.5598,9.5598,9.5598,9.5598,9.5598,9.5486,9.5417,9.5417,9.6024,9.6129,9.5291,9.6015,9.5898,9.4612,9.4556,9.4368,9.4017,9.4781,9.5254,9.5364,9.6527,9.7701,9.8905,9.815,9.7753,9.7714,9.7714,9.7714,9.7714,9.7714,9.7714,9.7717,9.7641,9.7142,9.6441,9.6402,9.5852,9.523,9.6078,9.6336,9.6539,9.8221,9.8797,9.8953,9.98,10.0114,10.0206,10.0987,10.1219,10.1312,10.2097,10.1789,10.1206,10.1281,10.1288,10.11,10.0391,10.1386,10.2482,10.2492,10.1899,10.1595,10.249,10.2692,10.2705,10.2698,10.2704,10.2712,10.2513,10.2495,10.2489,10.2284,10.23,10.23,10.23,10.23,10.23,10.23,10.23,10.23,10.2288,10.2288,10.2288,10.2288,10.2288,10.2288,10.2288,10.2288,10.2288,10.2288,10.2288,10.2276,10.2315,10.2276,10.2288,0.0,0.0,0.0,7.7831,8.2264,8.5397,8.7995,9.1166,9.3879,9.4949,9.5255,9.5522,9.6286,9.6859,9.6859,9.5751,9.6057,9.6226,9.5563,9.5486,9.544,9.5333,9.5781,9.6139,9.6139,9.6357,9.6477,9.6429,9.6183,9.5997,9.5786,9.5764,9.5756,9.5686,9.621,9.6623,9.6856,9.7811,9.8256,9.8169,9.8373,9.8209,9.7714,9.7659,9.7655,9.7655,9.7656,9.7633,9.7639,9.7606,9.7108,9.6324,9.6292,9.5769,9.5102,9.5894,9.5803,9.5626,9.79,9.8285,9.8033,9.9488,9.9947,9.9998,10.0288,10.0794,10.1378,10.2287,10.2287,10.221,10.2803,10.2117,10.118,10.0885,10.1695,10.2495,10.2516,10.2287,10.2195,10.2504,10.2612,10.2582,10.2599,10.2599,10.2582,10.2489,10.2489,10.2499,10.241,10.2406,10.2384,10.2384,10.2311,10.2288,10.2288,10.2086,10.1982,10.2315,10.1787,10.1781,10.2315,10.2125,10.1899,10.1899,10.1899,10.1995,10.2288,10.2288,10.2288,10.2288,10.2288,10.23,6.2089,0.0,0.0,0.0,0.0,8.0468,8.5282,0.0,9.1412,9.4485,9.4921,9.4997,9.5791,9.6822,9.7127,9.5761,9.6028,9.6059,9.5066,9.5157,9.521,9.4849,9.5653,9.6218,9.6218,9.6562,9.6899,9.7174,9.6924,9.672,9.6641,9.6629,9.6566,9.6483,9.706,9.7478,9.7643,9.8209,9.8213,9.7692,9.8518,9.8483,9.7662,9.7916,9.7884,9.763,9.7885,9.7848,9.7572,9.7265,9.6787,9.6195,9.5928,9.542,9.5044,9.607,9.5932,9.5611,9.8131,9.8423,9.7898,9.9453,10.0105,10.0281,10.0396,10.0989,10.1807,10.2387,10.2498,10.2518,10.3102,10.2311,10.1394,10.172,10.181,10.1783,10.1783,10.2207,10.2582,10.2489,10.2479,10.2489,10.2507,10.2507,10.2498,10.2489,10.2381,10.2406,10.2306,10.2201,10.2113,10.2113,10.2007,10.2004,10.2004,10.1719,10.1578,10.1909,10.1392,10.13,10.1909,10.161,10.1478,10.1478,10.1478,10.1687,10.2004,10.1899,10.1884,10.1884,10.1913,10.2007,0.0,0.0,0.0,0.0,0.0,0.0,8.2607,0.0,8.6885,9.2793,9.4601,9.4899,9.4149,9.5305,9.6153,9.5409,9.5356,9.5104,9.4125,9.4696,9.4887,9.4087,9.4981,9.5657,9.5619,9.6654,9.7342,9.7435,9.8224,9.8176,9.7005,9.691,9.6682,9.6233,9.7173,9.7663,9.7563,9.7663,9.7714,9.7717,9.8474,9.8427,9.7613,9.8466,9.8397,9.7602,9.8418,9.8279,9.7493,9.6683,9.6279,9.6012,9.5158,9.4796,9.4902,9.6545,9.6731,9.6506,9.9036,9.9337,9.8811,9.9764,10.0587,10.1185,10.1314,10.1902,10.2518,10.2518,10.2284,10.21,10.2113,10.1797,10.1796,10.2605,10.161,10.0396,10.0396,10.1504,10.2382,10.2507,10.2516,10.2495,10.2499,10.2585,10.2607,10.2603,10.2306,10.2087,10.2007,10.1687,10.1508,10.1508,10.1398,10.1305,10.1305,10.1193,10.1096,10.1116,10.1096,10.1077,10.1116,10.1096,10.1096,10.1096,10.1096,10.1097,10.1307,10.1174,10.1096,10.1116,10.1211,10.138,5.6434,0.0,0.0,0.0,0.0,0.0,0.0,0.0,8.0965,8.7392,8.8438,8.9348,9.3273,9.3859,9.3645,9.3369,9.4925,9.5648,9.4082,9.4551,9.4839,9.422,9.55,9.627,9.5924,9.6784,9.7777,0.0,9.8466,9.8287,9.8283,9.7737,9.7097,9.6358,9.7182,9.7334,9.6744,9.7319,9.762,9.7633,9.7851,9.7836,9.7612,9.7766,9.733,9.6534,9.7241,9.7148,9.6527,9.7483,9.7138,9.5953,9.5749,9.5272,9.4835,9.5963,9.6624,9.7237,9.9221,10.0096,10.0581,10.1506,10.1795,10.1776,10.1813,10.2201,10.2709,10.2692,10.2701,10.25,10.1903,10.1703,10.168,10.1896,10.11,10.0396,10.0396,10.019,9.9978,10.0107,10.0611,10.1013,10.0987,10.1491,10.1904,10.1891,10.1807,10.171,10.1695,10.1594,10.1611,10.1611,10.1487,10.1395,10.1395,10.1096,10.1113,10.1419,10.0825,10.07,10.14,10.1114,10.091,10.0787,10.091,10.0798,10.0385,10.1014,10.1287,10.1398,10.1487,10.1398,0.0,0.0,0.0,0.0,0.0,0.0,7.0408,7.4285,7.8904,8.6899,8.8477,8.9269,9.2233,9.2512,9.2147,9.1697,9.3349,9.4316,9.3091,9.3944,9.4487,9.3976,9.554,9.6423,9.5752,9.6729,9.7665,9.8442,9.8442,9.8501,9.8837,9.8068,9.7382,9.6904,9.7358,9.7382,9.6904,9.7021,9.7256,9.7602,9.7568,9.7538,9.7515,9.7788,9.7607,9.7148,9.7878,9.7943,9.7658,9.8956,9.8306,9.6532,9.6914,9.6719,9.6476,9.8131,9.8792,9.9101,10.0818,10.1406,10.1475,10.2021,10.2007,10.1787,10.1792,10.2098,10.2301,10.2312,10.2212,10.1995,10.1307,10.1192,10.1192,10.1192,10.0613,10.0111,10.0111,9.9088,9.8404,9.8996,9.9506,9.997,10.0318,10.0821,10.1193,10.1502,10.149,10.1406,10.1406,10.1287,10.1173,10.1173,10.1095,10.0975,10.0975,10.0815,10.071,10.0893,10.0481,10.0409,10.0893,10.0694,10.0589,10.0481,10.0589,10.051,10.019,10.0589,10.0893,10.0975,10.1095,10.1014,0.0,0.0,0.0,0.0,0.0,0.0,7.1035,7.4073,7.7321,8.6796,8.9323,8.9771,8.9579,8.9768,8.97,8.9029,9.0148,9.1163,9.1444,9.2835,9.3652,9.3172,9.4952,9.5845,9.5036,9.6316,9.7252,9.741,9.818,9.8753,9.8885,9.7895,9.7299,9.7304,9.7315,9.7265,9.716,9.6595,9.6746,9.7572,9.7538,9.7497,9.7532,9.8189,9.8346,9.8246,9.9075,9.9402,9.9479,10.0301,9.9405,9.7613,9.8292,9.8647,9.9002,10.1301,10.1701,10.1289,10.2785,10.2677,10.2107,10.188,10.1782,10.1705,10.171,10.1594,10.1484,10.1423,10.1185,10.0901,10.0611,10.0497,10.0497,10.0497,9.9976,9.9469,9.9469,9.8167,9.738,9.8637,9.8888,9.9142,10.0015,10.0209,10.0595,10.139,10.119,10.0999,10.0999,10.0798,10.0604,10.0604,10.0486,10.0399,10.0399,10.0277,10.0189,10.0189,10.0189,10.0189,10.0189,10.0189,10.0202,10.019,10.0088,10.0215,10.0302,10.029,10.0277,10.0399,10.0399,10.0524,0.0,0.0,0.0,0.0,0.0,0.0,6.1043,6.2381,6.4829,7.1444,7.2928,7.4412,7.8908,7.9226,7.9022,7.9537,8.2122,8.5467,8.953,9.0932,9.1385,9.0898,9.2493,9.3425,9.2851,9.498,9.6706,9.7415,9.7701,9.8156,9.8854,9.6705,9.5449,9.5514,9.5495,9.5188,9.4484,9.5735,9.6758,9.7508,9.75,9.7817,9.8333,9.7762,9.708,9.6444,9.727,9.7619,9.7743,9.8376,9.8854,9.9148,9.9098,9.9546,10.0194,10.062,10.0999,10.1595,10.2601,10.2887,10.281,10.3482,10.31,10.2382,10.2401,10.1789,10.1016,10.0304,10.0013,9.9968,9.9884,9.9901,9.9901,9.9901,9.927,9.8717,9.8717,9.7912,9.7263,9.7519,9.7457,9.7601,9.8385,9.9134,9.9862,10.0684,10.0694,10.0703,10.0703,10.0574,10.0604,10.0604,10.0619,10.0595,10.0595,10.0495,10.0495,10.0495,10.0495,10.0495,10.0495,10.0495,10.0389,10.0024,9.9823,9.9769,9.993,10.0302,10.0495,10.0595,10.0595,10.05,0.0,0.0,0.0,5.5887,0.0,0.0,0.0,6.2109,6.4266,6.9643,7.1054,7.208,7.4601,7.4846,7.4834,7.5272,7.9114,8.2189,8.2607,8.7613,9.1392,9.1828,9.3063,9.3619,9.2947,9.4524,9.5783,9.6212,9.6669,9.6929,9.6952,9.6091,9.5413,9.4995,9.4995,9.4998,9.4961,9.5427,9.6459,9.8027,9.7193,9.7434,9.8528,9.7642,9.7126,9.698,9.7393,9.778,9.8099,9.8408,9.9095,9.9996,10.0288,10.0411,10.0581,10.229,10.3091,10.3503,10.3802,10.3882,10.3787,10.3291,10.2788,10.2281,10.1882,10.1416,10.0885,10.0502,10.0003,9.9811,10.0195,10.0003,9.9811,10.0195,10.0084,9.9703,9.9281,9.8431,9.7733,9.7733,9.7187,9.7028,9.8013,9.8599,9.9326,10.0398,10.0688,10.0711,10.0604,10.0604,10.0604,10.0604,10.0486,10.0413,10.0413,10.029,10.0215,10.0215,10.0215,10.0215,10.0215,10.0215,10.0113,9.9904,9.9769,9.9714,9.9796,10.0126,10.0215,10.0215,10.0215,10.0101,0.0,0.0,0.0,0.0,0.0,5.7249,0.0,0.0,0.0,0.0,0.0,0.0,0.0,0.0,0.0,0.0,0.0,0.0,0.0,8.2392,0.0,8.9979,9.2377,9.3341,9.1782,9.2791,9.392,9.4924,9.4665,9.4535,9.4738,9.5269,9.5312,9.4764,9.4726,9.5116,9.5926,9.5421,9.6305,9.8585,9.7107,9.7159,9.8652,9.7676,9.7496,9.7952,9.7988,9.8493,9.9244,9.9022,9.954,10.0496,10.1002,10.1118,10.1311,10.3992,10.5114,10.5196,10.5095,10.4918,10.4376,10.2982,10.2379,10.1986,10.1311,10.1102,10.0987,10.091,10.0314,9.985,10.0578,10.019,9.9824,10.0514,10.0808,10.0624,9.9913,9.9096,9.8506,9.8484,9.7723,9.7315,9.8258,9.8506,9.9042,10.029,10.0627,10.0612,10.0495,10.0495,10.0471,10.0486,10.0315,10.0203,10.0101,9.993,9.9796,9.9796,9.9796,9.9796,9.9796,9.9593,9.9415,9.9263,9.9175,9.9146,9.9146,9.9146,9.9386,9.9796,9.9796,9.9769,0.0,0.0,0.0,0.0,5.6432,0.0,0.0,0.0,0.0,0.0,0.0,0.0,0.0,0.0,0.0,0.0,0.0,0.0,6.9766,7.369,7.666,7.7553,8.5225,8.8891,8.4951,8.6744,9.0044,9.4583,9.0767,8.9881,9.3665,9.3194,9.3123,9.3745,9.3749,9.4147,9.4963,9.5674,9.6947,9.8657,9.7785,9.8014,9.9255,9.7665,9.7233,9.7722,9.7726,9.867,10.0105,9.9073,9.9596,10.0904,10.0288,10.1403,10.3308,10.341,10.3902,10.4606,10.54,10.4706,10.3611,10.4078,10.341,10.2184,10.1479,10.1288,10.1096,10.0404,9.9957,9.9735,9.9811,9.96,9.9366,9.9481,9.9503,9.9503,9.9389,9.9251,9.919,9.919,9.9091,9.8959,9.8944,9.8919,9.9224,10.0113,10.029,10.029,10.0189,10.0189,10.0177,10.0088,10.0024,9.9983,9.985,9.9823,9.9796,9.9796,9.9796,9.9796,9.9796,9.8832,9.7964,9.7238,9.6952,9.6806,9.6806,9.6806,9.783,9.9796,9.9796,9.9659,0.0,0.0,0.0,0.0,0.0,0.0,5.729,0.0,5.6757,0.0,0.0,0.0,0.0,0.0,0.0,0.0,6.2857,0.0,0.0,0.0,7.4954,0.0,0.0,0.0,8.3354,8.532,8.829,9.2447,8.9296,8.8897,9.2811,9.3579,9.3593,9.293,9.3893,9.4535,9.4785,9.5735,9.6918,9.8414,9.7543,9.7882,9.9188,9.7935,9.7704,9.8302,9.8243,9.8518,9.8997,9.8508,9.9019,10.0092,10.0202,10.1198,10.2791,10.4191,10.4282,10.3894,10.4812,10.4308,10.3388,10.3301,10.25,10.1507,10.1203,10.1004,10.0782,10.0475,9.995,9.9594,10.0091,9.947,9.8921,9.9846,9.9717,9.915,9.8186,9.787,9.7511,9.6553,9.6281,9.6363,9.6742,9.7742,9.847,9.8233,9.8685,9.8987,9.8936,9.8936,9.8907,9.8847,9.8703,9.8549,9.8523,9.837,9.824,9.824,9.8278,9.8278,9.824,9.7769,9.7387,9.71,9.6879,9.6805,9.6805,9.6805,9.7093,9.76,9.7744,9.7502,6.4326,0.0,0.0,0.0,0.0,0.0,0.0,0.0,0.0,0.0,0.0,0.0,0.0,0.0,0.0,0.0,0.0,6.2802,0.0,0.0,0.0,0.0,0.0,0.0,0.0,8.156,8.398,8.9361,8.6854,8.7229,9.2222,9.385,9.4049,9.2763,9.385,9.4652,9.5,9.5613,9.6538,9.7739,9.7392,9.7848,9.899,9.8317,9.8338,9.8921,9.8843,9.8717,9.851,9.867,9.9258,10.0084,10.0403,10.109,10.2106,10.4185,10.4386,10.3702,10.3779,10.3522,10.2882,10.2218,10.1507,10.0903,10.0903,10.0476,9.9974,9.9974,9.9505,9.9086,9.972,9.8967,9.8347,9.9509,9.9366,9.8676,9.7432,9.6881,9.6284,9.5113,9.4561,9.4366,9.4533,9.6119,9.7237,9.6751,9.7241,9.776,9.7889,9.7893,9.7893,9.7827,9.7663,9.7527,9.7492,9.7282,9.7137,9.71,9.7064,9.6953,9.6767,9.6692,9.6653,9.6498,9.6242,9.6095,9.6095,9.6095,9.5838,9.5326,9.5991,9.5883,0.0,0.0,0.0,6.1513,0.0,0.0,0.0,0.0,5.6989,0.0,0.0,0.0,0.0,0.0,0.0,0.0,0.0,0.0,0.0,0.0,0.0,0.0,0.0,0.0,0.0,7.2918,7.519,8.5395,8.2122,8.3392,9.1937,9.3195,9.3617,9.3578,9.3278,9.395,9.557,9.5356,9.5702,9.6553,9.7524,9.8246,9.8818,9.8782,9.9077,9.9545,9.9434,9.9434,9.9479,10.009,10.0905,10.1578,10.0802,10.0877,10.1816,10.289,10.3782,10.4211,10.2581,10.2005,10.1703,10.1009,10.0722,10.0722,10.0722,9.966,9.8478,9.8478,9.823,9.8049,9.8086,9.786,9.7626,9.7698,9.7698,9.7626,9.7589,9.6957,9.6362,9.6362,9.5697,9.4713,9.3234,9.4284,9.5541,9.6325,9.6437,9.6737,9.7518,9.7629,9.756,9.7424,9.7388,9.7354,9.7247,9.7211,9.7174,9.71,9.6916,9.654,9.5954,9.5749,9.5373,9.4763,9.4007,9.3611,9.3611,9.3611,9.3611,9.3618,9.525,9.5586,0.0,0.0,7.7695,6.8538,0.0,0.0,0.0,0.0,0.0,0.0,0.0,0.0,0.0,0.0,0.0,0.0,0.0,0.0,0.0,0.0,0.0,0.0,0.0,0.0,0.0,0.0,7.7948,8.377,8.437,8.7067,9.2945,9.3974,9.4081,9.3367,9.3758,9.3878,9.3664,9.48,9.5447,9.5511,9.6972,9.7991,9.8594,9.8904,9.9211,9.9488,9.9241,9.8826,9.833,9.8602,9.8935,9.9249,9.9547,9.9893,10.0425,10.1687,10.1423,10.0322,9.9773,9.9585,9.9517,9.9246,9.905,9.8905,9.8905,9.844,9.7856,9.7856,9.7793,9.7729,9.7729,9.7314,9.7027,9.749,9.7207,9.6732,9.6179,9.5884,9.5368,9.4364,9.3919,9.3586,9.3055,9.3397,9.3846,9.4102,9.4614,9.5236,9.604,9.6149,9.611,9.6067,9.6067,9.6027,9.6024,9.5984,9.5984,9.5984,9.5745,9.5498,9.529,9.5242,9.5114,9.4893,9.4812,9.4753,9.4753,9.4753,9.45,9.3994,9.4536,9.4475,8.1173,8.3406,0.0,7.4843,7.4609,0.0,6.4483,0.0,0.0,0.0,0.0,0.0,0.0,0.0,0.0,0.0,0.0,0.0,0.0,5.9936,0.0,0.0,0.0,0.0,0.0,0.0,7.4703,8.1421,8.3338,8.6104,0.0,9.3237,9.4299,9.3476,9.3581,9.3582,9.3444,9.4547,9.5161,9.5214,9.6962,9.817,9.884,9.9458,9.9555,9.9311,9.8821,9.7983,9.6996,9.7299,9.7456,9.7538,9.8087,9.8556,9.91,10.0711,9.9967,9.8128,9.7855,9.7958,9.8196,9.8196,9.8064,9.7931,9.7931,9.7392,9.6731,9.6474,9.6584,9.6731,9.6474,9.6243,9.6228,9.6693,9.6463,9.5964,9.5452,9.5123,9.4637,9.3597,9.3225,9.3008,9.3008,9.3008,9.3117,9.3406,9.3877,9.4493,9.529,9.5398,9.5398,9.5398,9.5398,9.5356,9.5235,9.5235,9.5193,9.5187,9.5318,9.5311,9.5022,9.5275,9.5354,9.5151,9.5024,9.4964,9.4964,9.4964,9.471,9.4239,9.4493,9.4434]}]]